[[[{"header":{"parameterUnit":"kt","parameterCategory":2,"dx":1,"dy":1,"la1":29.285339999999998,"la2":30.599998999999997,"lo1":-89.70041500000002,"lo2":-87.6738589999976,"nx":112,"ny":82,"refTime":"2022-09-30T18:00:00:Z","depth":0,"parameterNumber":1,"parameterNumberName":"U-component_of_WINDS"},"data":[4.2808,4.3268,4.2728,3.7875,3.7092,3.6245,3.1354,2.8501,2.6455,2.4897,2.3137,2.1287,1.9413,1.85,1.7465,1.573,1.4755,1.4129,0.0,1.3516,1.3731,1.4826,1.8587,2.1904,2.3991,2.631,2.967,3.4483,3.6147,3.74,3.8399,3.9145,3.9213,3.8434,3.4768,3.3722,3.5679,3.3352,3.2615,3.3445,3.376,3.4033,3.4228,3.4228,3.4228,3.4228,3.4228,3.4228,3.4241,3.441,3.467,3.4835,3.3268,3.0614,2.722,2.3932,2.1049,1.8829,1.8829,1.8506,1.8153,1.812,1.7741,1.7324,1.7324,1.7324,1.7324,1.7324,1.7324,1.7324,1.7324,1.7324,1.7324,1.7324,1.7324,1.7324,1.7324,1.7324,1.7324,1.7324,1.7324,1.7324,1.7324,1.8271,1.9033,1.9033,1.9033,1.9033,1.9033,1.9033,1.9191,1.9605,2.0328,1.9362,1.5829,1.5528,1.5528,1.5528,1.5528,1.5528,1.5528,1.5528,1.5528,1.5528,1.5528,1.5528,1.5528,1.5528,1.5528,1.5528,1.5528,1.5528,3.8755,3.934,3.9265,3.3577,3.3186,3.2872,2.793,2.5673,2.4299,2.3202,2.1845,2.03,1.8483,1.7599,1.6606,1.4861,1.4148,1.3801,0.0,1.4015,1.4812,1.648,2.1334,2.501,2.6153,2.8512,3.1815,3.628,3.7114,3.7896,3.9004,3.9069,3.8135,3.6074,3.3542,3.3027,3.473,3.3475,3.3109,3.3719,3.4059,3.4228,3.4228,3.4228,3.4228,3.4228,3.4228,3.4228,3.4228,3.4228,3.441,3.4448,3.1652,2.9189,2.6638,2.239,1.9948,1.8664,1.8565,1.8259,1.7904,1.7904,1.7602,1.7324,1.7324,1.7324,1.7324,1.7324,1.7324,1.7324,1.7324,1.7324,1.7324,1.7324,1.7324,1.7324,1.7324,1.7324,1.7324,1.7324,1.7324,1.7324,1.7324,1.7949,1.8455,1.8455,1.8784,1.9033,1.9033,1.9033,1.9033,1.9033,1.9723,1.8935,1.579,1.5528,1.5528,1.5528,1.5528,1.5528,1.5528,1.5528,1.5528,1.5528,1.5528,1.5528,1.5528,1.5528,1.5528,1.5528,1.5528,1.5528,3.5653,3.4432,3.419,2.9909,2.7266,2.5679,2.555,2.3949,2.2159,2.0995,2.0219,1.9211,1.7477,1.6595,1.5645,1.4167,1.4009,0.0,0.0,1.4746,1.6598,1.9932,2.3922,2.7696,3.1077,2.9196,3.0514,3.7184,3.6124,3.5652,3.6716,3.9666,3.8075,3.0998,3.3608,3.4268,3.2514,3.3109,3.3669,3.4228,3.4228,3.4228,3.4228,3.4228,3.4228,3.4228,3.4228,3.4228,3.4228,3.4228,3.4228,3.3907,3.0963,2.8311,2.5561,1.9946,1.8199,1.8591,1.8295,1.8067,1.789,1.789,1.7596,1.7324,1.7324,1.7324,1.7324,1.7324,1.7324,1.7324,1.7324,1.7324,1.7324,1.7324,1.7324,1.7324,1.7324,1.7324,1.7324,1.7324,1.7324,1.7324,1.7324,1.7324,1.7324,1.7324,1.8264,1.8974,1.8974,1.9007,1.9033,1.9033,1.8935,1.7955,1.5666,1.5508,1.5528,1.5528,1.5528,1.5528,1.5528,1.5528,1.5528,1.5528,1.5528,1.5528,1.5528,1.5528,1.5528,1.5528,1.5528,1.5528,3.1497,3.1082,3.1017,2.7443,2.6747,2.6097,2.2846,2.1677,2.0974,1.9901,1.8698,0.0,0.0,0.0,1.6312,1.6451,0.0,1.9285,1.6838,2.0823,2.4802,2.6949,2.822,3.023,3.3638,3.4435,3.6542,4.0871,3.9617,3.8344,3.7652,3.8759,3.7141,3.2126,3.2763,3.3381,3.3696,3.3513,3.3669,3.4228,3.4228,3.4228,3.4228,3.4228,3.4228,3.4228,3.4228,3.4228,3.4228,3.4228,3.4228,3.3702,2.8867,2.6546,2.5283,1.9559,1.7535,1.7633,1.7391,1.7378,1.7436,1.7436,1.7384,1.7324,1.7324,1.7324,1.7324,1.7324,1.7324,1.7324,1.7324,1.7324,1.7324,1.7324,1.7324,1.7324,1.7324,1.7324,1.7324,1.7324,1.7324,1.7324,1.7324,1.7324,1.7324,1.7324,1.7587,1.7791,1.7791,1.8514,1.9033,1.9033,1.6766,1.5004,1.4322,1.5043,1.5528,1.5528,1.5528,1.5528,1.5528,1.5528,1.5528,1.5528,1.5528,1.5528,1.5528,1.5528,1.5528,1.5528,1.5528,1.5528,2.8425,2.7374,2.7283,2.4949,2.4477,2.3956,2.1385,2.0473,2.0107,1.9912,0.0,0.0,0.0,0.0,0.0,0.0,2.0331,2.1987,2.033,2.4654,2.8626,3.0297,3.2669,3.4695,3.5915,3.7244,3.9408,4.2787,4.1194,3.983,3.939,3.8945,3.7155,3.3701,3.3103,3.32,3.3877,3.3786,3.3903,3.4228,3.4228,3.4228,3.4228,3.4228,3.4228,3.4228,3.4228,3.4228,3.4228,3.4228,3.4228,3.3626,2.7861,2.5603,2.4937,1.9227,1.7134,1.7108,1.6943,1.6989,1.7134,1.7134,1.7219,1.7324,1.7324,1.7324,1.7324,1.7324,1.7324,1.7324,1.7324,1.7324,1.7324,1.7324,1.7324,1.7324,1.7324,1.7324,1.7324,1.7324,1.7324,1.7324,1.7324,1.7324,1.7324,1.7324,1.7324,1.7324,1.7324,1.7903,1.8494,1.8981,1.5911,1.3792,1.3792,1.4414,1.501,1.5502,1.5528,1.5528,1.5528,1.5528,1.5528,1.5528,1.5528,1.5528,1.5528,1.5528,1.5528,1.5528,1.5528,1.5528,2.6095,2.3827,2.351,2.2588,2.1486,2.0722,2.1133,0.0,2.0185,2.1411,0.0,2.1533,2.1079,0.0,0.0,1.9137,2.1757,2.4078,2.4366,2.7727,3.0743,3.2256,3.7105,3.9731,3.8248,3.845,3.9975,4.3138,4.1388,4.0417,4.0911,3.9562,3.7555,3.4854,3.395,3.3537,3.3537,3.3981,3.4228,3.4228,3.4228,3.4228,3.4228,3.4228,3.4228,3.4228,3.4228,3.4228,3.4228,3.4228,3.4228,3.3587,2.7602,2.524,2.4527,1.8895,1.6838,1.6831,1.6792,1.6805,1.6838,1.6838,1.7002,1.7272,1.7272,1.7292,1.7324,1.7324,1.7324,1.7324,1.7324,1.7324,1.7324,1.7324,1.7324,1.7324,1.7324,1.7324,1.7324,1.7324,1.7324,1.7324,1.7324,1.7324,1.7324,1.7324,1.7324,1.7324,1.7324,1.7324,1.7607,1.8363,1.5681,1.3792,1.3792,1.3792,1.4231,1.5266,1.5456,1.5528,1.5528,1.5528,1.5528,1.5528,1.5528,1.5528,1.5528,1.5528,1.5528,1.5528,1.5528,1.5528,2.4005,2.2169,2.1385,2.1179,2.0326,2.0291,0.0,0.0,0.0,2.6453,2.7007,2.7052,2.6952,2.7013,2.7169,2.7475,3.0391,3.1701,2.9092,3.4573,3.8954,3.9257,4.0946,4.1973,4.165,3.993,3.9419,4.0786,4.1059,4.0216,3.8042,3.8917,3.727,3.2517,3.3475,3.4072,3.4072,3.4176,3.4228,3.4228,3.4228,3.4228,3.4228,3.4228,3.4228,3.4228,3.4228,3.4228,3.4228,3.4228,3.4228,3.3587,2.7602,2.5011,2.3965,1.836,1.6288,1.6255,1.5911,1.604,1.6288,1.6288,1.6594,1.6963,1.6963,1.7134,1.7324,1.7324,1.7324,1.7324,1.7324,1.7324,1.7324,1.7324,1.7324,1.7324,1.7324,1.7324,1.7324,1.7324,1.7324,1.7324,1.7324,1.7324,1.7324,1.7324,1.7324,1.7324,1.7324,1.7324,1.668,1.4971,1.4191,1.3792,1.3792,1.3792,1.389,1.4113,1.501,1.5528,1.5528,1.5528,1.5528,1.5528,1.5528,1.5528,1.5528,1.5528,1.5528,1.5528,1.5528,1.5528,2.1283,2.006,2.0009,2.0009,2.0009,0.0,0.0,2.304,2.4285,2.7353,2.7995,2.839,2.9788,3.008,3.0254,3.0563,3.3068,3.5123,3.554,3.9219,4.1874,4.1874,4.2294,4.2711,4.311,4.2051,4.1168,4.0819,4.1179,4.0799,3.9341,3.9523,3.8266,3.5259,3.4533,3.4098,3.3812,3.4085,3.4228,3.4228,3.4228,3.4228,3.4228,3.4228,3.4228,3.4215,3.3929,3.3812,3.3812,3.3812,3.363,3.2906,2.8308,2.5636,2.3956,2.101,1.8212,1.6045,1.7288,1.6905,1.5875,1.6076,1.6321,1.6528,1.6666,1.6811,1.6943,1.7239,1.7324,1.7324,1.7324,1.7324,1.7324,1.7324,1.7324,1.7324,1.7324,1.7324,1.7324,1.7324,1.7324,1.7324,1.7324,1.7324,1.7324,1.7324,1.7324,1.7324,1.7324,1.6249,1.5082,1.3916,1.3792,1.3792,1.3792,1.3792,1.3792,1.3792,1.4335,1.4919,1.5508,1.5528,1.5528,1.5528,1.5528,1.5528,1.5528,1.5528,1.5528,1.5528,1.5528,1.5528,1.8791,1.8302,1.9035,1.9437,2.018,0.0,2.2525,2.3494,2.5166,2.8978,2.9826,3.0498,3.2514,3.3049,3.3115,3.3038,3.4777,3.7323,4.0528,4.1762,4.2351,4.2562,4.2692,4.3091,4.3885,4.3525,4.2572,4.0877,4.0738,4.0495,3.9889,3.9142,3.8266,3.7155,3.5021,3.3734,3.3432,3.3838,3.4111,3.4228,3.4228,3.4228,3.4228,3.4111,3.4072,3.4033,3.346,3.3213,3.3213,3.3213,3.281,3.181,2.8374,2.6068,2.4512,2.3344,2.0389,1.728,1.9122,1.8225,1.6287,1.6105,1.6076,1.6169,1.6394,1.642,1.6442,1.6983,1.7232,1.7324,1.7324,1.7324,1.7324,1.7324,1.7324,1.7324,1.7324,1.7324,1.7324,1.7324,1.7324,1.7324,1.7324,1.7324,1.7324,1.7324,1.7324,1.7324,1.7324,1.5233,1.3792,1.3792,1.3792,1.3792,1.3792,1.3792,1.3792,1.3792,1.3792,1.4211,1.5154,1.541,1.5528,1.5528,1.5528,1.5528,1.5528,1.5528,1.5528,1.5528,1.5528,1.5528,1.7594,1.7763,1.8302,2.0156,2.0727,0.0,2.8712,3.0234,3.1672,3.648,3.8091,3.8499,3.7973,3.8526,3.9079,3.9064,3.9902,4.0433,4.0206,4.087,4.1666,4.2486,4.3186,4.3904,4.4677,4.2864,4.0747,3.8457,3.828,3.7125,3.4486,3.5197,3.4436,3.1683,3.2309,3.2927,3.3432,3.3498,3.3734,3.4228,3.4228,3.4228,3.4215,3.3708,3.3524,3.3498,3.2862,3.2566,3.2566,3.2566,3.193,3.0484,2.6195,2.5407,2.6155,2.1577,2.094,2.2045,2.0145,1.9275,1.8636,1.6335,1.5862,1.6136,1.6162,1.5934,1.5793,1.6422,1.6963,1.7324,1.7324,1.7324,1.7324,1.7324,1.7324,1.7324,1.7324,1.7324,1.7324,1.7324,1.7324,1.7324,1.7324,1.7324,1.7324,1.7324,1.7324,1.7324,1.7324,1.5233,1.3792,1.3792,1.3792,1.3792,1.3792,1.3792,1.3792,1.3792,1.3792,1.3851,1.3982,1.4984,1.5528,1.5528,1.5528,1.5528,1.5528,1.5528,1.5528,1.5528,1.5528,1.5528,1.6679,1.768,1.895,2.0448,0.0,0.0,2.848,3.0309,3.2395,3.5927,3.6514,3.688,3.8421,3.8991,3.9446,3.9977,4.0718,4.1116,4.0756,4.1477,4.2142,4.2543,4.3262,4.3847,4.4188,4.3754,4.2456,4.0127,3.8678,3.7225,3.566,3.4668,3.3607,3.232,3.2109,3.2303,3.2875,3.3213,3.3669,3.4228,3.4228,3.4228,3.4228,3.3981,3.3745,3.3406,3.2771,3.2281,3.1956,3.1618,3.1156,3.0557,2.865,2.7547,2.6919,2.6276,2.4775,2.2983,2.1941,2.0619,1.9011,1.639,1.5662,1.5816,1.5816,1.5681,1.5629,1.5872,1.6115,1.6412,1.7147,1.7324,1.7324,1.7324,1.7324,1.7324,1.7324,1.7324,1.7324,1.7324,1.7324,1.7324,1.7324,1.7324,1.7324,1.7324,1.7324,1.7324,1.7324,1.5233,1.3792,1.3792,1.3792,1.3792,1.3792,1.3792,1.3792,1.3792,1.3792,1.3792,1.3792,1.4257,1.4519,1.4519,1.4519,1.4853,1.5528,1.4847,1.4866,1.5528,1.5528,1.5528,1.623,0.0,0.0,0.0,0.0,0.0,3.0066,3.1531,3.3128,3.5371,3.5301,3.5612,3.8231,3.8669,3.8991,3.9883,4.0509,4.0869,4.0869,4.1458,4.1973,4.2161,4.2671,4.3126,4.3395,4.4112,4.3618,4.1264,3.8951,3.721,3.618,3.3635,3.2251,3.2251,3.1419,3.1268,3.1995,3.2615,3.3278,3.3994,3.415,3.415,3.3994,3.3774,3.3447,3.2924,3.2255,3.1774,3.1359,3.0897,3.0728,3.0623,2.9964,2.9013,2.8153,2.9291,2.7793,2.5057,2.3597,2.195,1.9912,1.6624,1.5528,1.5528,1.5528,1.5528,1.5528,1.5528,1.5528,1.5724,1.6621,1.6956,1.7075,1.7075,1.7075,1.7121,1.7285,1.7239,1.7193,1.7298,1.7324,1.7324,1.7324,1.7324,1.7324,1.7324,1.7324,1.7088,1.6437,1.4833,1.3792,1.3792,1.3792,1.3792,1.3792,1.3792,1.3792,1.3792,1.3792,1.3792,1.3792,1.3792,1.3792,1.3792,1.3792,1.4211,1.505,1.4204,1.4224,1.505,1.505,1.505,0.0,0.0,0.0,2.7141,2.818,2.9388,3.6234,3.6393,3.5513,3.7143,3.7412,3.7662,3.8535,3.8669,3.8991,3.9883,4.0072,4.0091,4.0091,4.011,4.0396,4.1134,4.1247,4.1647,4.2503,4.3319,4.2783,4.0429,3.8348,3.6078,3.3651,3.085,2.9287,2.9287,2.9269,2.9741,3.0767,3.1398,3.2303,3.3458,3.3968,3.3942,3.3445,3.2774,3.2216,3.1705,3.1027,3.0767,3.0741,3.0728,3.0728,3.0485,2.806,2.8537,3.0333,2.8014,2.8537,2.9779,2.4822,2.3087,2.2178,1.7202,1.5528,1.5528,1.5528,1.5528,1.5528,1.5528,1.5528,1.5534,1.5574,1.6093,1.6566,1.6566,1.6566,1.6673,1.7193,1.7022,1.6871,1.7252,1.7324,1.7324,1.7324,1.7324,1.7324,1.7324,1.7324,1.6503,1.4185,1.3831,1.3792,1.3792,1.3792,1.3792,1.3792,1.3792,1.3792,1.3792,1.3792,1.3792,1.3792,1.3792,1.3792,1.3792,1.3792,1.3811,1.3844,1.3811,1.3811,1.3844,1.3844,1.3844,1.9934,2.2765,2.6041,3.1794,3.4739,3.6882,3.9262,3.9484,3.9356,3.9884,4.0105,4.0094,3.9671,4.123,4.2404,4.1945,4.1863,4.1437,4.0242,4.0053,4.013,4.0415,4.0888,4.1304,4.1647,4.2918,4.3405,4.2621,3.9498,3.6911,3.5333,3.1383,2.8822,2.8025,2.832,2.906,3.0203,3.0774,3.1631,3.281,3.3395,3.3615,3.3432,3.3187,3.2576,3.1666,3.1471,3.1125,3.0728,3.0728,3.0728,3.0623,2.9813,2.9964,3.0623,2.9779,3.001,3.0254,2.6884,2.4587,2.2604,1.9243,1.6962,1.5528,1.5528,1.5528,1.5528,1.5528,1.5528,1.5528,1.5528,1.5721,1.5931,1.6194,1.645,1.6713,1.697,1.6824,1.6686,1.6963,1.6976,1.7016,1.7278,1.7324,1.7324,1.7324,1.5997,1.4676,1.3897,1.3792,1.3792,1.3792,1.3792,1.3792,1.3792,1.3792,1.3792,1.3792,1.3792,1.3792,1.3792,1.3792,1.3792,1.3792,1.3792,1.3792,1.3792,1.3792,1.3792,1.3792,1.3792,1.3792,2.2748,2.6172,2.977,3.5649,3.8565,4.0352,4.1601,4.1552,4.1138,4.0855,4.1233,4.1484,4.1092,4.3739,4.5523,4.4045,4.322,4.236,4.1196,4.0449,4.0053,4.0053,4.0471,4.0813,4.0813,4.2026,4.2955,4.33,4.0253,3.7729,3.6205,3.231,2.9238,2.7452,2.7736,2.8281,2.9009,2.9775,3.0689,3.1817,3.229,3.2576,3.282,3.2563,3.2069,3.132,3.132,3.1112,3.0728,3.0728,3.0728,3.0728,3.0728,3.0728,3.0728,3.0728,3.0728,3.0254,2.679,2.453,2.2567,1.9147,1.6913,1.5528,1.5528,1.5528,1.5528,1.5528,1.5528,1.5528,1.5528,1.5528,1.5593,1.5842,1.6227,1.6548,1.6614,1.6475,1.648,1.6719,1.6759,1.6858,1.7075,1.7226,1.7324,1.7324,1.5286,1.3792,1.3792,1.3792,1.3792,1.3792,1.3792,1.3792,1.3792,1.3792,1.3792,1.3792,1.3792,1.3792,1.3792,1.3792,1.3792,1.3792,1.3792,1.3792,1.3792,1.3792,1.3792,1.3792,1.3792,1.3792,2.4969,2.834,3.2354,3.9005,3.9973,4.0141,4.3504,4.2794,4.1188,4.0449,4.1179,4.2146,4.2914,4.6182,4.8097,4.6156,4.4273,4.3,4.2781,4.1251,4.0147,4.0053,4.0053,4.0053,4.0053,4.0718,4.159,4.2465,4.0511,3.8313,3.6256,3.329,3.0411,2.7645,2.7577,2.7618,2.7741,2.8748,2.97,3.0638,3.0664,3.1021,3.1575,3.1008,3.0702,3.0676,3.0676,3.0689,3.0728,3.0728,3.0728,3.0728,3.0728,3.0728,3.0728,3.0728,3.0728,3.001,2.5198,2.3361,2.232,1.7532,1.577,1.5528,1.5528,1.5528,1.5528,1.5528,1.5528,1.5528,1.5528,1.5528,1.5528,1.5528,1.5842,1.6103,1.6103,1.6103,1.6182,1.646,1.6693,1.6805,1.6726,1.7002,1.7239,1.7272,1.5266,1.3792,1.3792,1.3792,1.3792,1.3792,1.3792,1.3792,1.3792,1.3792,1.3792,1.3792,1.3792,1.3792,1.3792,1.3792,1.3792,1.3792,1.3792,1.3792,1.3792,1.3792,1.3792,1.3792,1.3792,1.3792,2.9134,3.5368,4.036,4.5031,4.5424,4.4907,4.581,4.4935,4.3914,4.3737,4.5191,4.6577,4.6774,4.8983,5.0124,4.8166,4.7412,4.6086,4.3183,4.236,4.1549,4.0185,4.0053,4.0053,4.0053,4.0718,4.159,4.2465,4.0348,3.8148,3.624,3.3124,3.0891,2.9748,2.9734,3.0499,3.2046,3.0819,2.9969,2.9572,2.9943,3.0216,3.0372,3.0599,3.0495,3.0138,3.0138,3.0385,3.0728,3.0728,3.0728,3.0728,3.0728,3.0728,3.0728,3.0728,3.0728,3.0531,2.9257,2.6287,2.2936,2.1609,1.862,1.5528,1.5528,1.5528,1.5528,1.5528,1.5528,1.5528,1.5528,1.5528,1.5528,1.5528,1.5635,1.5695,1.5695,1.5695,1.5829,1.6176,1.6288,1.631,1.6299,1.6098,1.6168,1.6646,1.505,1.3792,1.3792,1.3792,1.3792,1.3792,1.3792,1.3792,1.3792,1.3792,1.3792,1.3792,1.3792,1.3792,1.3792,1.3792,1.3792,1.3792,1.3792,1.3792,1.3792,1.3792,1.3792,1.3792,1.3792,1.3792,3.0417,3.7496,4.3501,4.6103,4.6337,4.5874,4.5874,4.5356,4.4918,4.4918,4.6313,4.7654,4.8142,4.9589,5.0568,4.9985,4.9144,4.7853,4.5637,4.3839,4.236,4.1363,4.0504,4.0053,4.0053,4.0414,4.106,4.1914,4.0662,3.9042,3.7098,3.5256,3.3553,3.1926,3.1871,3.2428,3.3616,3.1552,3.0277,2.9717,2.9117,2.9117,2.9611,2.9619,2.9432,2.919,2.945,2.9879,3.0352,3.0352,3.0495,3.0728,3.0728,3.0728,3.0728,3.0728,3.0728,3.0577,2.9489,2.6475,2.2936,2.1846,1.8812,1.5528,1.5528,1.5528,1.5528,1.5528,1.5528,1.5528,1.5528,1.5528,1.5528,1.5528,1.5528,1.5528,1.5528,1.5528,1.5629,1.5842,1.6037,1.6056,1.5747,1.5491,1.5373,1.5572,1.4354,1.3552,1.3765,1.3792,1.3792,1.3792,1.3792,1.3792,1.3792,1.3792,1.3792,1.3792,1.3792,1.3792,1.3792,1.3792,1.3792,1.3792,1.3792,1.3792,1.3792,1.3792,1.3792,1.3792,1.3792,1.3792,3.0764,3.727,4.3394,4.5023,4.5308,4.5156,4.4947,4.4918,4.4918,4.4918,4.5825,4.6977,4.802,4.9076,5.0158,5.1315,5.009,4.8904,4.8628,4.5673,4.3366,4.2817,4.1363,4.0298,4.0053,4.0053,4.0377,4.1134,4.1135,4.0202,3.821,3.8003,3.6767,3.416,3.4088,3.4222,3.4481,3.2413,3.1392,3.1352,2.8965,2.8226,2.8883,2.8346,2.8109,2.8213,2.8805,2.9338,2.9827,2.9904,3.0216,3.0612,3.0689,3.0728,3.0728,3.0728,3.0728,3.0392,2.8246,2.5797,2.3267,2.0761,1.8197,1.6004,1.5673,1.5528,1.5528,1.5528,1.5528,1.5528,1.5528,1.5528,1.5528,1.5528,1.5528,1.5528,1.5528,1.5528,1.5528,1.5528,1.5836,1.5855,1.5328,1.5031,1.4853,1.4652,1.4105,1.3968,1.4744,1.4772,1.4721,1.4721,1.4721,1.4471,1.3835,1.3792,1.3792,1.3792,1.3792,1.3792,1.3792,1.3792,1.3792,1.3792,1.3792,1.3792,1.3792,1.3792,1.3792,1.3792,1.3792,1.3792,3.4356,3.8605,4.159,4.681,4.7483,4.6485,4.5185,4.4918,4.4918,4.4918,4.5825,4.6977,4.802,4.9076,5.0158,5.1315,5.1218,5.0429,4.8835,4.7992,4.6369,4.3147,4.2507,4.1678,4.0204,4.0053,4.0377,4.1134,4.0604,3.9609,3.8192,3.7471,3.6912,3.6385,3.6385,3.7196,3.8917,3.6888,3.5825,3.5786,3.1871,2.9184,2.7713,2.7621,2.7788,2.8187,2.8291,2.8697,2.9312,2.9736,2.9982,3.0112,3.0534,3.0728,3.0728,3.0728,3.0728,3.0682,3.0254,2.8444,2.5938,2.3314,2.0809,1.834,1.6197,1.5528,1.5528,1.5528,1.5528,1.5528,1.5528,1.5528,1.5528,1.5528,1.5528,1.5528,1.5528,1.5528,1.5528,1.5528,1.5622,1.5622,1.5524,1.4939,1.4833,1.5847,1.6607,1.7855,2.0101,1.9833,1.9447,1.9447,1.9447,1.7892,1.4135,1.3792,1.3792,1.3792,1.3792,1.3792,1.3792,1.3792,1.3792,1.3792,1.3792,1.3792,1.3792,1.3792,1.3792,1.3792,1.3792,1.3792,3.4582,3.9664,4.4015,4.6934,4.8005,4.7976,4.6456,4.6138,4.6264,4.6902,4.6325,4.624,4.7898,4.8605,4.9515,5.1241,5.151,5.1185,5.0226,4.9247,4.7888,4.605,4.402,4.2397,4.1549,4.0617,4.0187,4.0566,4.0244,3.975,3.9163,3.8776,3.8556,3.8556,3.8556,3.9031,4.0016,3.7982,3.6926,3.6888,3.2572,3.0002,2.9033,2.9033,2.8557,2.7788,2.7788,2.8113,2.8658,2.8931,2.9385,2.9956,3.0216,3.0469,3.0728,3.0728,3.0728,3.0728,3.0728,2.9106,2.6779,2.5563,2.3456,2.0904,1.834,1.758,1.7299,1.5915,1.5528,1.5528,1.5528,1.5528,1.5528,1.5528,1.5528,1.5528,1.5528,1.6624,1.758,1.758,1.8628,1.9311,1.8785,1.8119,1.7596,1.7455,1.7875,1.8815,2.0515,2.0411,2.0628,2.1694,2.0415,1.8899,1.7468,1.5149,1.3792,1.3792,1.3792,1.3792,1.3792,1.3792,1.3792,1.3792,1.3792,1.3792,1.3792,1.3792,1.3792,1.3792,1.3792,1.3792,3.3579,3.9417,4.5363,4.6599,4.7963,4.8832,4.8241,4.8132,4.8321,4.8957,4.7356,4.6365,4.8037,4.8518,4.9212,5.0859,5.1339,5.151,5.151,5.0192,4.9076,4.8662,4.5908,4.3693,4.2854,4.1474,4.0467,4.0091,4.0053,4.0053,4.0053,4.0053,4.0053,4.0053,4.0053,4.0053,4.0053,3.8421,3.7599,3.756,3.3718,3.1632,3.1192,3.0711,2.9612,2.8055,2.7618,2.7632,2.8019,2.8135,2.8749,2.9567,2.9741,3.0086,3.0534,3.0534,3.0612,3.0728,3.0728,2.9442,2.7723,2.721,2.5657,2.3503,2.0999,2.0237,1.9673,1.7106,1.639,1.6246,1.5673,1.5528,1.5818,1.6913,1.7195,1.7051,1.6487,1.8388,2.0094,1.9529,2.1428,2.2804,2.1745,2.1023,2.013,1.8772,1.8901,1.959,2.0779,2.113,2.1676,2.2874,2.0995,1.9911,2.0541,1.7341,1.5277,1.5277,1.4807,1.4557,1.4557,1.4557,1.4307,1.3792,1.3792,1.3792,1.3792,1.3792,1.3792,1.3792,1.3792,1.3792,3.2313,3.6569,4.1204,4.6422,4.7729,4.8343,5.0474,5.1042,5.0805,4.9584,4.9152,4.8923,4.8752,4.9509,5.009,4.9944,5.0826,5.151,5.151,5.1352,5.0588,4.8835,4.8293,4.6652,4.311,4.2617,4.1826,4.0147,4.0053,4.0053,4.0053,4.0053,4.0053,4.0053,4.0053,4.0053,4.0053,3.9864,3.9732,3.9732,3.7427,3.5319,3.326,3.1352,3.0404,3.0123,2.8205,2.7411,2.7543,2.7967,2.8239,2.8382,2.9,2.9546,3.0008,3.0008,3.0288,3.0728,3.0728,3.0577,3.001,2.7781,2.6872,2.6172,2.3597,2.2803,2.2282,1.9768,1.9107,1.8532,1.6149,1.5528,1.6721,2.1332,2.2415,2.1846,1.9577,2.1047,2.214,1.9864,2.1428,2.2804,2.1745,2.1023,2.0197,1.8982,2.034,2.2159,2.4157,2.5258,2.5148,2.329,2.3279,2.2664,2.0751,2.0205,1.9995,1.9995,1.8113,1.6983,1.6983,1.6983,1.5961,1.3835,1.3792,1.3792,1.3792,1.3792,1.3792,1.3792,1.3792,1.3792,3.0818,3.5968,4.1105,4.2831,4.5991,4.8974,5.0127,5.104,5.1691,5.1788,5.0528,4.9046,4.7939,4.8644,4.9267,4.8872,4.975,5.0695,5.1412,5.151,5.1218,5.0429,4.9316,4.7992,4.644,4.4129,4.247,4.1715,4.0655,4.0053,4.0053,4.0053,4.0053,4.0053,4.0053,4.0053,4.0053,4.0053,4.0053,4.0016,3.7944,3.6463,3.5591,3.4755,3.2968,3.047,2.9667,2.8559,2.7439,2.7619,2.7876,2.82,2.8476,2.8961,2.9468,2.9468,2.9775,3.0268,3.0268,3.043,3.0577,2.9581,2.9245,2.8781,2.6229,2.5469,2.4953,2.2415,2.1665,2.1428,2.038,2.0094,2.0619,2.2652,2.3125,2.2851,2.1846,2.3682,2.5188,2.419,2.5476,2.6414,2.5287,2.4303,2.3225,2.2075,2.2575,2.3494,2.4723,2.5253,2.5415,2.5168,2.4103,2.3223,2.2642,2.137,2.0625,2.0625,1.9784,1.9878,2.1212,1.9995,1.824,1.5961,1.5918,1.5199,1.3792,1.3792,1.3792,1.3792,1.3792,1.3792,2.959,3.4496,3.9255,3.9578,4.3328,4.7388,4.9084,4.9941,5.096,5.3104,5.1377,4.9014,4.7476,4.7814,4.8135,4.777,4.884,5.0182,5.1339,5.151,5.151,5.151,5.0318,4.9247,4.8662,4.6121,4.4273,4.3693,4.2454,4.1437,4.086,4.0879,4.0617,4.0053,4.0053,4.0053,4.0053,4.0053,4.0053,4.0016,3.8574,3.7867,3.7829,3.7214,3.5263,3.2333,3.1072,2.9693,2.8287,2.7659,2.7619,2.797,2.797,2.8333,2.887,2.887,2.9234,2.9715,2.9715,3.0047,3.0469,3.0469,3.0586,3.0392,2.863,2.8107,2.7595,2.5,2.4294,2.4116,2.3314,2.4257,2.5386,2.5386,2.5386,2.5151,2.4446,2.6323,2.7874,2.7164,2.82,2.8766,2.7621,2.6437,2.5282,2.4087,2.3918,2.4097,2.4537,2.4589,2.4943,2.5853,2.4874,2.4269,2.4636,2.3398,2.2644,2.2644,2.1965,2.2289,2.3839,2.2414,2.0541,1.8333,1.8282,1.7477,1.5817,1.5149,1.4857,1.4814,1.4135,1.3792,2.8779,3.1407,3.4294,3.7519,3.9811,4.2619,4.7652,4.8004,4.8506,5.2793,5.157,4.9303,4.7881,4.7323,4.6916,4.654,4.832,5.0182,5.1339,5.151,5.151,5.151,5.151,5.0723,4.88,4.8535,4.7749,4.5779,4.5659,4.4778,4.2854,4.2744,4.19,4.0091,4.0053,4.0053,4.0053,4.0053,4.0053,4.0053,4.0016,4.0016,3.994,3.7867,3.6905,3.6656,3.2373,3.0511,3.0324,2.8246,2.7426,2.7385,2.7385,2.7736,2.8187,2.8187,2.8593,2.9143,2.9143,2.9507,2.993,2.993,3.0262,3.0728,3.0669,3.0669,3.0149,2.7676,2.6977,2.6417,2.3786,2.6848,3.0623,3.0623,3.0623,2.9964,2.749,2.892,2.9964,2.749,2.82,2.8766,2.7621,2.6437,2.5282,2.4087,2.3918,2.3918,2.3918,2.3918,2.4175,2.4811,2.5788,2.6396,2.6409,2.6967,2.7344,2.7344,2.5157,2.3869,2.3922,2.3869,2.2831,2.0625,2.0583,2.0583,2.0541,1.8325,1.7281,1.7196,1.4899,1.3792,2.7823,3.1349,3.4831,3.7285,3.9835,4.297,4.7705,4.8178,4.8187,5.0201,5.0149,4.9074,4.683,4.6988,4.7319,4.6917,4.8723,5.0184,5.0321,5.1021,5.151,5.151,5.151,5.1285,5.0656,4.9385,4.8328,4.7714,4.644,4.5423,4.4778,4.3475,4.2507,4.1937,4.0692,4.0053,4.0053,4.0053,4.0053,4.0053,4.0053,4.0053,4.0016,3.9353,3.8288,3.6849,3.5513,3.3244,3.047,2.9814,2.8681,2.7426,2.7426,2.7489,2.7645,2.7645,2.8009,2.8502,2.8502,2.8879,2.9403,2.9403,2.978,3.019,3.019,3.0417,3.0577,2.9766,2.9535,2.935,2.8549,2.9489,3.0819,3.1268,3.106,3.0634,3.0304,3.0475,3.0266,2.8753,2.8211,2.7595,2.6412,2.5243,2.4347,2.397,2.3918,2.3918,2.3918,2.3918,2.3983,2.4201,2.4904,2.5645,2.6371,2.6644,2.6957,2.74,2.669,2.6307,2.6307,2.6307,2.5198,2.2914,2.2872,2.2122,2.0625,1.992,1.879,1.7281,1.6557,1.5327,2.724,3.1347,3.5178,3.7538,3.8676,4.0543,4.5707,4.6146,4.5989,4.7719,4.8266,4.7738,4.5337,4.4814,4.513,4.6278,4.8344,5.0213,5.1381,5.2032,5.2398,5.2398,5.1861,5.151,5.151,5.0395,4.9692,4.9692,4.8581,4.7586,4.685,4.5601,4.4309,4.2817,4.164,4.0767,4.0053,4.0053,4.0053,4.0053,4.0053,4.0053,4.0053,4.0053,3.9353,3.8059,3.7273,3.5419,3.2809,3.1192,2.9774,2.8477,2.7741,2.7426,2.7426,2.7426,2.7606,2.7905,2.7905,2.8281,2.8805,2.8805,2.9195,2.9689,2.9866,3.0177,3.0456,3.0664,3.0728,3.0728,3.0728,3.0728,3.0819,3.1216,3.1203,3.1138,3.1268,3.119,3.0697,2.939,2.8207,2.7022,2.584,2.4697,2.3918,2.3918,2.3918,2.3918,2.3918,2.3918,2.3918,2.3918,2.4279,2.4865,2.5775,2.619,2.6591,2.7035,2.7256,2.7426,2.7426,2.7426,2.6744,2.5281,2.524,2.4566,2.3155,2.23,2.1171,1.9784,1.895,1.7315,2.6887,3.1018,3.4863,3.7841,3.6853,3.6655,4.2442,4.2628,4.2444,4.5206,4.5821,4.5266,4.3421,4.1456,4.1338,4.5042,4.7377,4.9983,5.3513,5.3622,5.3402,5.3537,5.228,5.1414,5.1519,5.151,5.151,5.151,5.151,5.0723,4.8904,4.8674,4.6898,4.3293,4.2927,4.1937,4.026,4.0091,4.0053,4.0053,4.0053,4.0053,4.0053,4.0053,4.0053,3.994,3.7982,3.7081,3.6617,3.2611,3.0792,3.0324,2.8368,2.7549,2.7426,2.7426,2.7426,2.7426,2.7426,2.7723,2.8122,2.8122,2.8554,2.9169,2.9645,2.9866,3.0034,3.0508,3.0664,3.0676,3.0702,3.0728,3.0741,3.0832,3.1268,3.1562,3.1014,3.1242,3.1068,2.939,2.8116,2.6892,2.5749,2.4646,2.3918,2.3918,2.3918,2.3918,2.3918,2.3918,2.3918,2.3918,2.3918,2.4162,2.4782,2.5749,2.6332,2.6384,2.6968,2.7333,2.7426,2.7426,2.7426,2.7426,2.7426,2.7426,2.7426,2.524,2.4046,2.3839,2.1788,1.9658,2.6039,2.8079,3.0614,3.4633,3.786,4.0751,4.3317,4.293,4.1902,4.1345,4.1454,4.1444,4.0765,4.0828,4.2306,4.6461,4.6682,4.7226,4.9877,4.9243,4.9139,5.0798,5.0699,5.0746,5.1439,5.151,5.151,5.151,5.151,5.1319,5.0858,4.9419,4.8166,4.7271,4.4346,4.2544,4.2102,4.0767,4.0053,4.0053,4.0053,4.0053,4.0053,4.0053,4.0053,4.0016,3.9505,3.8421,3.6849,3.5864,3.3481,3.047,2.9976,2.8803,2.7426,2.7426,2.7426,2.7426,2.7426,2.7463,2.758,2.758,2.797,2.845,2.8537,2.9229,2.9956,3.0086,3.0125,3.0216,3.0612,3.0728,3.0949,3.1865,3.1852,3.1887,3.2628,3.151,2.9943,2.8671,2.7152,2.5697,2.4529,2.41,2.3918,2.3918,2.3918,2.3918,2.3918,2.3918,2.3918,2.3918,2.3918,2.397,2.4113,2.4813,2.5424,2.5814,2.6372,2.6878,2.74,2.7426,2.7426,2.7426,2.7426,2.7426,2.7426,2.6867,2.5664,2.3869,2.3371,2.1955,2.5868,2.8616,3.1544,3.3208,3.5569,3.7876,3.9322,3.9151,3.8634,3.8365,3.849,3.8694,3.8846,3.9796,4.1088,4.2613,4.4956,4.7625,5.0684,5.1338,5.237,5.472,5.3119,5.2275,5.3402,5.229,5.151,5.151,5.151,5.151,5.151,5.0521,4.9521,4.8605,4.6546,4.4598,4.2781,4.2691,4.2179,4.1288,4.1288,4.0879,4.0053,4.0053,4.0053,4.0053,4.0053,3.9391,3.8288,3.733,3.5591,3.3284,3.1312,2.9855,2.8721,2.7782,2.7426,2.7426,2.7426,2.7426,2.7426,2.7426,2.7593,2.7892,2.8109,2.8615,2.9255,2.9775,2.9736,2.9715,3.0242,3.0385,3.056,3.1428,3.1865,3.216,3.2524,3.1372,2.986,2.8446,2.6813,2.5308,2.4113,2.3918,2.3918,2.3918,2.3918,2.3918,2.3918,2.3918,2.3918,2.3918,2.3918,2.3918,2.3918,2.424,2.4669,2.5268,2.5554,2.61,2.6916,2.7243,2.7426,2.7426,2.7426,2.7426,2.7426,2.7426,2.6731,2.5541,2.5541,2.4318,2.6409,3.0468,3.3986,3.2779,3.2647,3.3031,3.4019,3.4282,3.4611,3.5817,3.608,3.6388,3.7374,3.8648,3.9137,3.7904,4.3032,4.844,5.2223,5.4553,5.6768,5.9176,5.6265,5.44,5.5394,5.3318,5.1752,5.1544,5.151,5.151,5.151,5.151,5.0757,4.911,4.8743,4.6991,4.3693,4.528,4.5173,4.322,4.322,4.2233,4.0449,4.0449,4.0298,4.0053,4.0053,4.0053,3.9902,3.8135,3.7214,3.6561,3.2928,3.1112,3.0284,2.8518,2.77,2.7426,2.7426,2.7426,2.7426,2.7426,2.7426,2.7476,2.7957,2.8109,2.8382,2.9398,2.9364,2.913,2.9702,2.9866,3.0086,3.0702,3.1709,3.232,3.1796,3.1034,2.9963,2.8252,2.654,2.5087,2.4087,2.3918,2.3918,2.3918,2.3918,2.3918,2.3918,2.3918,2.3918,2.3918,2.3918,2.3918,2.3918,2.3918,2.4162,2.4717,2.4835,2.5307,2.6268,2.6904,2.7294,2.7426,2.7426,2.7426,2.7426,2.7426,2.7426,2.7426,2.7426,2.6348,2.8079,3.0547,3.2746,3.2515,3.3383,3.4019,3.2999,3.2811,3.2844,3.3075,3.3108,3.3888,3.6423,3.7514,3.8345,3.9296,4.2004,4.5104,4.8257,4.9962,5.1698,5.3967,5.4588,5.4639,5.419,5.3727,5.293,5.1586,5.151,5.151,5.151,5.151,5.1385,5.1084,4.9453,4.8293,4.7714,4.7992,4.7166,4.5244,4.5244,4.4237,4.236,4.236,4.1512,4.0053,4.0053,4.0053,4.0016,3.9694,3.8536,3.6849,3.6213,3.3718,3.047,3.0163,2.8911,2.7426,2.7426,2.7426,2.7426,2.7426,2.7426,2.7439,2.7489,2.784,2.8213,2.8395,2.8382,2.8489,2.9104,2.9611,3.019,3.1289,3.2008,3.232,3.1796,3.0469,2.8883,2.7072,2.5335,2.4126,2.3944,2.3918,2.3918,2.3918,2.3918,2.3918,2.3918,2.3918,2.3918,2.3918,2.3918,2.3918,2.3918,2.3918,2.3944,2.4035,2.4576,2.5162,2.5737,2.632,2.6839,2.7372,2.7426,2.7426,2.7426,2.7426,2.7426,2.7426,2.7426,2.7208,2.8838,3.0898,3.2996,3.3489,3.4118,3.4414,3.3767,3.3646,3.3383,3.2614,3.3097,3.3778,3.4315,3.5935,3.75,3.8525,3.9885,4.1908,4.4966,4.9142,5.3268,5.7026,5.7274,5.7219,5.7504,5.531,5.3528,5.2832,5.1993,5.151,5.151,5.151,5.151,5.151,5.0656,5.0158,5.0158,5.0158,4.919,4.7271,4.7271,4.5673,4.2744,4.2744,4.1772,4.0053,4.0053,4.0053,4.0053,4.0053,3.9467,3.8498,3.7368,3.5747,3.3836,3.2611,3.1607,3.0781,3.0781,3.003,2.8911,2.7782,2.7426,2.7426,2.7426,2.7567,2.7762,2.7762,2.7762,2.7905,2.8476,2.8814,2.9372,3.0813,3.1606,3.1865,3.1281,3.0118,2.8623,2.6773,2.5075,2.3918,2.3918,2.3918,2.3918,2.3918,2.3918,2.3918,2.3918,2.3918,2.3918,2.3918,2.3918,2.3918,2.3918,2.3918,2.3918,2.3918,2.4165,2.4617,2.5203,2.5749,2.6294,2.6865,2.723,2.7426,2.7426,2.7426,2.7426,2.7426,2.7426,2.7426,3.0991,0.0,3.6049,3.6942,3.6374,3.5619,0.0,3.4797,3.3767,3.268,3.335,3.3866,3.3097,3.5027,3.7009,3.7857,3.8536,4.0073,4.322,4.8029,5.3051,5.7937,5.8313,5.843,5.9233,5.6722,5.4717,5.3915,5.2734,5.1894,5.1544,5.151,5.151,5.151,5.151,5.151,5.151,5.151,5.0757,4.9282,4.9282,4.7481,4.4129,4.3657,4.2434,4.0655,4.0223,4.0053,4.0053,4.0053,4.0053,3.9902,3.8288,3.7368,3.6733,3.5045,3.4088,3.3632,3.3632,3.2587,3.0992,2.9398,2.8531,2.8124,2.8124,2.8491,2.8776,2.8287,2.8124,2.8107,2.8043,2.8083,2.8576,3.0158,3.071,3.0756,3.0223,2.9177,2.7856,2.6177,2.479,2.3918,2.3918,2.3918,2.3918,2.3918,2.3918,2.3918,2.3918,2.3918,2.3918,2.3918,2.3918,2.3918,2.3918,2.3918,2.3918,2.3918,2.3918,2.4214,2.4861,2.5255,2.5763,2.6423,2.6916,2.7243,2.7426,2.7426,2.7426,2.7426,2.7426,2.7426,0.0,4.042,4.3711,4.451,4.1612,3.8551,3.8551,3.5477,0.0,3.2482,3.2548,3.2999,3.4216,3.5707,3.7196,3.8556,3.9335,4.0889,4.4158,4.4299,4.5687,5.0063,5.3677,5.5718,5.5451,5.7291,5.723,5.4075,5.3754,5.3035,5.1586,5.151,5.151,5.151,5.151,5.151,5.151,5.151,5.1419,5.1285,5.1285,5.0192,4.8097,4.6298,4.4418,4.247,4.0767,4.0053,4.0053,4.0053,4.0053,4.0016,3.9902,3.865,3.6926,3.6772,3.5397,3.3632,3.3632,3.3537,3.3395,3.3221,3.1871,3.0284,3.0284,3.1632,3.2785,3.0832,3.0284,2.9855,2.7945,2.7827,2.8485,2.971,2.9216,2.842,2.8369,2.71,2.5554,2.4334,2.3996,2.3918,2.3918,2.3918,2.3918,2.3918,2.3918,2.3918,2.3918,2.3918,2.3918,2.3918,2.3918,2.3918,2.3918,2.3918,2.3918,2.3918,2.3918,2.4214,2.4861,2.4926,2.5411,2.6423,2.6488,2.68,2.7426,2.7426,2.7426,2.7426,2.7426,2.7426,4.2878,4.5276,4.6836,4.6827,4.3546,4.0323,4.0323,3.6923,3.3547,3.2647,3.3196,3.3668,3.3317,3.4457,3.6189,3.8498,3.869,3.9592,4.2599,4.3222,4.4838,4.8919,5.4435,5.8158,5.8823,5.8913,5.8367,5.7079,5.6037,5.4717,5.3035,5.2962,5.2529,5.1552,5.151,5.151,5.151,5.151,5.151,5.151,5.151,5.0487,4.8593,4.7853,4.644,4.449,4.2544,4.1715,0.0,4.0524,4.0053,4.0053,4.0053,3.9543,3.8879,3.8879,3.8327,3.7619,3.7619,3.6755,3.5669,3.5669,3.4206,3.2468,3.2468,3.397,3.524,3.3063,3.2468,3.1951,2.9895,2.947,2.9681,2.9921,2.8788,2.7801,2.8109,2.6879,2.5321,2.4152,2.3918,2.3918,2.3918,2.3918,2.3918,2.3918,2.3918,2.3918,2.3918,2.3918,2.3918,2.3918,2.3918,2.3918,2.3918,2.3918,2.3918,2.3918,2.3918,2.4009,2.4266,2.4654,2.5203,2.5944,2.6255,2.6761,2.7426,2.7426,2.7426,2.7426,2.7426,2.7426,4.8726,5.061,5.1874,5.1748,4.8479,4.5026,4.4138,4.0191,3.6036,3.3613,3.3931,3.4315,3.3317,3.4293,3.6057,3.8498,3.885,3.9892,4.2983,4.3626,4.4999,4.8302,5.2815,5.6483,5.8634,5.9341,5.9421,5.8926,5.783,5.6191,5.3979,5.385,5.336,5.2266,5.1752,5.151,5.151,5.151,5.151,5.151,5.151,5.0824,4.9487,4.8904,4.7853,4.651,4.4526,4.3693,4.3548,4.166,4.0897,4.0823,4.026,4.0053,4.0053,4.0053,4.0053,4.0053,4.0053,3.9107,3.7906,3.7906,3.687,3.5552,3.4889,3.6346,3.7974,3.6457,3.5386,3.4206,3.207,3.1512,3.1512,3.1429,2.9694,2.8265,2.8975,2.7578,2.6031,2.5386,2.5485,2.5518,2.4892,2.475,2.4571,2.3977,2.3918,2.3918,2.3918,2.3918,2.3918,2.3918,2.3918,2.3918,2.3918,2.3918,2.3918,2.3918,2.3918,2.3918,2.3918,2.4331,2.4863,2.5424,2.5918,2.6502,2.7113,2.7294,2.7426,2.7426,2.7426,2.7426,5.3849,5.6747,5.9682,6.0461,5.7356,5.3329,5.0388,4.5322,3.9973,3.5498,3.46,3.46,3.46,3.5761,3.7219,3.8629,4.0211,4.248,4.5978,4.5477,4.5481,4.7443,4.7802,4.9413,5.33,5.8283,6.0571,5.9043,5.8926,5.7442,5.4075,5.3915,5.3883,5.385,5.2332,5.1544,5.151,5.151,5.151,5.151,5.151,5.151,5.1452,4.9487,4.8628,4.8524,4.6568,4.573,4.5587,4.3641,4.2821,4.2638,4.0824,4.011,4.011,4.0072,4.0072,4.0072,4.0072,4.0072,4.0072,4.0053,4.0053,3.9675,3.7617,3.8985,4.1191,4.121,3.9195,3.6463,3.4261,3.371,3.3808,3.4431,3.202,2.986,3.0874,2.9175,2.7549,2.8073,2.8925,2.8922,2.6985,2.6683,2.6049,2.4228,2.3941,2.3941,2.3941,2.3918,2.3918,2.3918,2.3918,2.3918,2.3918,2.3918,2.3918,2.3918,2.3918,2.3918,2.3941,2.3941,2.4264,2.4911,2.5449,2.5957,2.6476,2.714,2.7467,2.7467,2.7426,2.7426,5.804,6.0281,6.1598,6.0837,5.892,5.5614,4.963,4.5388,4.1152,3.5728,3.46,3.46,3.46,3.5761,3.7219,3.8629,4.1875,4.4955,4.6977,4.8262,4.9556,5.1126,5.1608,5.3033,5.6084,5.8487,6.004,6.0485,6.0572,5.9595,5.7502,5.7412,5.6315,5.3915,5.3392,5.2603,5.1544,5.151,5.151,5.151,5.151,5.151,5.151,5.0892,5.1065,5.1624,4.9692,4.9242,4.977,4.7919,4.7158,4.6933,4.4811,4.4005,4.3832,4.2373,4.1821,4.1745,4.1098,4.1288,4.1612,4.0453,4.0434,4.0887,4.0903,4.1063,4.1362,4.2009,4.0709,3.9084,3.9017,3.7465,3.5739,3.4795,3.202,2.986,3.0874,2.9175,2.7549,2.8073,2.8925,2.9371,2.8783,2.8679,2.8506,2.7949,2.6704,2.5851,2.5851,2.4714,2.3918,2.3918,2.3918,2.3918,2.3918,2.3918,2.3918,2.3918,2.3918,2.4513,2.5766,2.5851,2.6724,2.867,2.9408,3.0073,3.0676,2.9941,2.9626,2.9586,2.8083,2.7426,6.1324,6.2884,6.3575,6.3279,6.2536,5.984,5.1982,4.7971,4.3913,3.6879,3.5005,3.4764,3.5334,3.6616,3.8654,4.1842,4.4584,4.7657,5.1439,5.2172,5.3013,5.5029,5.4647,5.5291,5.7969,5.8456,5.933,6.1106,6.1252,6.0799,5.9884,6.0176,5.9197,5.6641,5.5942,5.517,5.4249,5.3025,5.263,5.3028,5.2434,5.2145,5.217,5.2585,5.2869,5.3019,5.2277,5.2279,5.2703,5.085,5.007,4.9883,4.7785,4.6981,4.6732,4.4572,4.3821,4.3624,4.221,4.2123,4.241,4.1384,4.1572,4.233,4.2863,4.2446,4.1912,4.2787,4.18,4.0604,4.1097,3.968,3.7755,3.6156,3.3674,3.1698,3.1647,3.0228,2.9118,2.9764,3.0616,3.1134,3.0677,3.0625,3.0386,2.9681,2.8541,2.7511,2.6718,2.566,2.4714,2.3977,2.5234,2.614,2.614,2.614,2.614,2.614,2.614,2.6669,2.7755,2.779,2.8498,2.9979,3.0666,3.1354,3.2057,3.154,3.1044,3.047,2.9222,2.8219,6.3575,6.4521,6.5212,6.6536,6.7041,6.4904,5.5892,5.1949,4.766,3.8765,3.5904,3.54,3.6693,3.8457,4.1369,4.6586,4.8198,5.1061,5.744,5.6646,5.6253,5.8649,5.7008,5.6627,5.8871,5.8142,5.8504,6.0874,6.1048,6.1106,6.1252,6.2133,6.2023,6.0692,5.9255,5.8496,5.8504,5.5781,5.4912,5.5824,5.4242,5.3462,5.3476,5.4282,5.4152,5.3371,5.4347,5.4835,5.479,5.3022,5.2281,5.2121,5.0227,4.9495,4.923,4.7001,4.6224,4.5932,4.3739,4.3055,4.3053,4.2678,4.3414,4.447,4.447,4.3713,4.3015,4.3796,4.2623,4.1096,4.1172,4.0623,3.9673,3.8115,3.6333,3.4516,3.2816,3.1834,3.1552,3.2316,3.322,3.3534,3.2684,3.2507,3.1967,3.0299,2.9888,2.9164,2.7371,2.6985,2.626,2.4607,2.7496,2.9544,2.9544,2.9544,2.9544,2.9544,2.9544,2.9612,2.9785,2.9785,2.9888,3.0059,3.0571,3.1218,3.1909,3.2482,3.2129,3.0983,3.0882,2.9788,6.3717,6.4521,6.4982,6.5331,6.7085,6.5869,5.4875,5.2754,5.0339,4.0449,3.8169,3.8071,3.8379,4.2447,4.5782,4.5914,5.2656,5.7622,5.6932,5.9262,6.0517,5.9071,5.8472,5.8056,5.7801,5.7545,5.802,5.9588,5.9681,6.0146,6.1164,6.2387,6.2316,6.0694,6.0302,6.0036,5.9846,5.9216,5.8989,5.9171,5.7329,5.6406,5.6397,5.5174,5.4946,5.5531,5.5751,5.6397,5.7203,5.6768,5.6595,5.6407,5.4258,5.3428,5.3173,5.1023,5.0291,4.9865,4.7057,4.6454,4.649,4.3546,4.5891,4.985,4.985,4.7575,4.5185,4.6092,4.341,4.0453,4.1059,4.0623,3.9958,3.9597,3.7168,3.4516,3.2816,3.1834,3.1552,3.2316,3.322,3.394,3.4339,3.4403,3.427,3.3886,3.2592,3.151,3.1102,2.9803,2.8783,2.8367,2.906,2.9544,2.9544,2.9544,2.9544,2.9544,2.9544,3.018,3.1629,3.1679,3.2356,3.3786,3.4541,3.4983,3.5166,3.5009,3.4768,3.4444,3.3438,3.2706,6.4042,6.4713,6.5245,6.6625,6.8104,6.7085,5.8971,5.7144,5.4529,4.4997,4.2532,4.1612,4.0244,4.4171,4.8297,5.037,5.6307,6.0615,6.0484,6.1819,6.205,5.9988,5.9242,5.8685,5.8242,5.7666,5.7638,5.839,5.8428,5.901,6.0233,6.157,6.2705,6.3716,6.3714,6.366,6.353,6.2125,6.1647,6.2187,6.036,5.9039,5.8156,5.7736,5.7036,5.6239,5.6775,5.7373,5.791,5.791,5.791,5.7835,5.6678,5.621,5.5942,5.3795,5.2986,5.2643,5.0095,4.946,4.947,4.7525,4.8233,4.9994,5.0529,4.8637,4.6517,4.7345,4.5277,4.2951,4.3812,4.3402,4.2629,4.212,3.9111,3.5998,3.4559,3.2335,3.0895,3.1739,3.2593,3.3448,3.4283,3.4758,3.4971,3.4971,3.4171,3.3248,3.2372,3.2221,3.2137,3.2137,3.2137,3.2137,3.2137,3.2137,3.2137,3.2137,3.2137,3.2576,3.3533,3.3567,3.4019,3.4971,3.5388,3.5772,3.6151,3.5929,3.5741,3.5543,3.4863,3.423,6.4203,6.4916,6.5606,6.8477,6.92,6.8006,6.3444,6.172,5.8609,5.0107,4.7229,4.542,4.2803,4.5435,4.9514,5.4087,5.7688,6.0728,6.3128,6.2655,6.172,6.078,5.9806,5.9167,5.9082,5.8005,5.7354,5.75,5.7101,5.7466,5.8894,6.0001,6.2384,6.6253,6.6602,6.6951,6.7388,6.4935,6.4183,6.5131,6.339,6.1791,6.0291,6.085,5.9583,5.6995,5.7992,5.8224,5.791,5.791,5.791,5.791,5.791,5.791,5.7698,5.588,5.5179,5.4908,5.2771,5.1946,5.181,5.201,5.0906,4.9728,5.0386,4.9158,4.7746,4.8578,4.7277,4.5934,4.7087,4.6674,4.5733,4.4843,4.1354,3.7857,3.6721,3.3038,3.0202,3.1115,3.1929,3.2752,3.3669,3.4473,3.4971,3.4971,3.4971,3.4437,3.2928,3.4052,3.4971,3.4971,3.4971,3.4971,3.4971,3.4971,3.4971,3.4971,3.4971,3.4971,3.4971,3.4971,3.4971,3.4971,3.4971,3.5313,3.5942,3.6094,3.5993,3.5676,3.5979,3.5534,6.3497,6.4916,6.5606,6.8477,6.92,6.7721,6.2194,6.1734,6.0371,5.2853,5.0207,4.8694,4.708,4.8249,4.9319,4.8856,5.3364,5.7081,5.7476,5.8393,5.9478,6.055,6.0514,6.0029,5.9017,5.7876,5.7215,5.7372,5.5376,5.5222,5.764,5.7931,5.9766,6.3547,6.4769,6.6455,6.8724,6.8329,6.8235,6.8345,6.6439,6.5367,6.5129,6.3647,6.1942,6.008,6.0233,5.9399,5.791,5.791,5.791,5.791,5.791,5.791,5.791,5.7584,5.7485,5.7158,5.4986,5.3589,5.3006,5.3898,5.4612,5.4973,5.4204,5.1982,4.9959,5.097,4.8553,4.6144,4.8175,4.7875,4.7008,4.6845,4.2943,3.8944,3.7925,3.3601,3.0202,3.1115,3.1929,3.2752,3.3669,3.4473,3.4971,3.4971,3.4971,3.4905,3.4654,3.4839,3.4971,3.4971,3.4971,3.4971,3.4971,3.4971,3.4971,3.4971,3.4971,3.4971,3.4971,3.4971,3.4971,3.4971,3.4971,3.5028,3.5142,3.581,3.6127,3.613,3.7591,3.8157,6.1188,6.372,6.5606,6.8477,6.8597,6.7337,6.4825,6.4114,6.2391,5.6749,5.3773,5.1243,4.8198,5.0108,5.1966,5.1308,5.6815,6.0879,6.0075,6.0517,6.0827,6.0662,6.0648,6.0159,5.9019,5.783,5.6879,5.6281,5.5235,5.482,5.5334,5.7379,5.9272,6.0959,6.4361,6.6748,6.7912,6.8637,6.9015,6.8983,6.8104,6.7146,6.6044,6.4207,6.2372,6.0558,5.8878,5.7695,5.6897,5.6324,5.608,5.608,5.608,5.608,5.608,5.608,5.608,5.591,5.4957,5.3947,5.3233,5.4283,5.4128,5.3664,5.4421,5.3308,5.2003,5.3053,5.2065,5.0929,5.1911,5.1758,5.1223,5.065,4.6312,4.1987,4.0877,3.6275,3.2451,3.2861,3.2957,3.3007,3.304,3.377,3.4473,3.4947,3.4971,3.4971,3.4971,3.4971,3.4971,3.4971,3.4971,3.4971,3.4971,3.4971,3.4971,3.4971,3.4971,3.4971,3.4971,3.4971,3.4971,3.4971,3.4971,3.4971,3.4971,3.5332,3.5715,3.6189,3.6909,3.7531,5.8624,6.1648,6.4061,6.7294,6.7315,6.6416,6.6042,6.543,6.3798,5.9873,5.6995,5.4102,5.0534,5.185,5.3494,5.3494,5.8046,6.1484,6.1194,6.1161,6.101,6.0681,6.0648,6.0308,5.9403,5.8273,5.7227,5.6372,5.6047,5.536,5.4155,5.739,5.9301,5.9301,6.4042,6.6719,6.7069,6.8346,6.884,6.852,6.852,6.7566,6.5771,6.4442,6.281,6.0962,5.8725,5.722,5.6363,5.5584,5.5263,5.5227,5.4793,5.4899,5.5192,5.4758,5.464,5.4613,5.4446,5.4077,5.3672,5.3814,5.2942,5.217,5.3455,5.3284,5.2942,5.425,5.4445,5.4421,5.525,5.525,5.4612,5.3044,4.8686,4.4369,4.2393,3.7885,3.4222,3.4222,3.3901,3.354,3.3296,3.4189,3.5026,3.5219,3.5457,3.5789,3.6194,3.5887,3.5644,3.5644,3.5236,3.4971,3.4971,3.4971,3.4971,3.4971,3.4971,3.4971,3.4971,3.4971,3.4971,3.4971,3.4971,3.4971,3.4971,3.4971,3.5275,3.5848,3.6056,3.6526,5.6304,5.8737,5.9854,6.4094,6.508,6.4673,6.3312,6.3983,6.4094,6.1175,5.9347,5.7783,5.6226,5.3774,5.2031,5.2031,5.2327,5.3544,5.6325,5.6686,5.7655,6.0352,6.0648,6.061,6.0572,5.9515,5.8782,5.872,5.7811,5.6675,5.5395,5.7827,5.9301,5.9301,6.314,6.5817,6.7039,6.8346,6.8375,6.7155,6.7155,6.6485,6.5172,6.5082,6.4026,6.2299,6.2149,6.0175,5.7078,5.7036,5.7036,5.6864,5.5263,5.5624,5.683,5.5192,5.464,5.4535,5.4075,5.4481,5.4888,5.2462,5.2292,5.282,5.1926,5.1632,5.2023,5.4054,5.3884,5.387,5.6934,5.6922,5.5325,5.2327,4.8741,4.487,4.0723,3.6857,3.4222,3.4222,3.4212,3.4451,3.5264,3.6887,3.7568,3.6125,3.6761,3.7962,3.9587,3.8356,3.7373,3.7373,3.5953,3.4971,3.4971,3.4971,3.4971,3.4971,3.4971,3.4971,3.4971,3.4971,3.4971,3.4971,3.4971,3.4971,3.4971,3.4971,3.499,3.5047,3.5791,3.6189,5.1061,5.4974,5.8182,6.2457,6.3543,6.3411,6.2905,6.2457,6.1879,6.0879,5.8774,5.6965,5.6456,5.5502,5.4761,5.4761,5.6307,5.7886,5.8971,5.9103,5.9497,6.055,6.0648,6.0648,6.0648,6.0269,5.9694,5.8978,5.7837,5.6681,5.5451,5.6372,5.6916,5.6916,5.9824,6.2006,6.3315,6.5408,6.6719,6.7069,6.7069,6.6369,6.5088,6.3918,6.3002,6.2264,6.0362,5.8803,5.7587,5.6913,5.6629,5.6591,5.598,5.6109,5.6591,5.5948,5.5747,5.5714,5.5548,5.571,5.5879,5.4917,5.4139,5.3625,5.3935,5.3284,5.2795,5.4225,5.4347,5.4323,5.5494,5.5519,5.4567,5.2097,4.8926,4.5646,4.2652,3.937,3.6945,3.6945,3.6223,3.5685,3.602,3.6339,3.6773,3.7347,3.8697,3.9734,4.0,3.9524,3.9147,3.9147,3.861,3.8229,3.8229,3.8229,3.777,3.6682,3.6617,3.6116,3.5037,3.4971,3.4971,3.4971,3.4971,3.4971,3.4971,3.4971,3.4971,3.499,3.5275,3.5407,4.6162,5.0798,5.4958,5.8299,6.0221,6.1339,6.1339,6.0615,6.007,6.055,5.9135,5.7787,5.7787,5.7787,5.7787,5.7787,5.9399,6.0648,6.0648,6.0648,6.0648,6.0648,6.0648,6.0648,6.0648,6.0648,6.0327,5.9555,5.8801,5.7878,5.6641,5.7132,5.7037,5.623,5.8591,6.0114,6.0554,6.314,6.4885,6.5758,6.5758,6.5292,6.439,6.277,6.2001,6.1883,5.9892,5.8738,5.8193,5.7497,5.723,5.717,5.6591,5.6713,5.714,5.6591,5.7079,5.795,5.7412,5.723,5.714,5.656,5.5602,5.4721,5.4833,5.4161,5.3413,5.3961,5.4079,5.4177,5.4543,5.464,5.3835,5.0622,4.8229,4.5757,4.2438,4.0022,3.8485,3.8485,3.7731,3.707,3.707,3.6775,3.7104,3.8724,3.9727,4.0358,4.0602,4.0797,4.0915,4.0915,4.0398,4.0056,4.0056,4.0056,3.9556,3.8419,3.8377,3.7866,3.6747,3.6149,3.5822,3.5822,3.5301,3.4971,3.4971,3.4971,3.4971,3.4971,3.4971,3.4971,4.2236,4.6477,4.9994,5.1456,5.5138,5.8375,5.8309,5.8342,5.8802,6.0268,6.0615,6.0648,6.0648,6.0648,6.0648,6.0648,6.0648,6.0648,6.0648,6.0648,6.0648,6.0648,6.0648,6.0648,6.0648,6.0648,6.0648,6.0648,6.0735,6.022,5.8949,6.02,5.9818,5.7403,5.9633,6.0338,5.9266,6.1744,6.3024,6.3111,6.3111,6.314,6.314,6.1833,6.1252,6.1252,6.1252,6.0372,5.8984,5.8984,5.8984,5.8808,5.717,5.7502,5.8779,5.714,5.8515,6.1025,5.9508,5.8984,5.872,5.7048,5.6499,5.613,5.4496,5.3979,5.3822,5.3286,5.3187,5.3398,5.4345,5.4589,5.3235,4.7856,4.6587,4.5123,3.9656,3.8485,3.8485,3.8485,3.8485,3.8485,3.8485,3.8485,3.8876,4.0001,3.9685,3.988,4.1543,4.2221,4.2624,4.2617,4.1192,4.018,4.018,4.018,4.018,4.0118,4.0118,4.0087,4.0056,3.8451,3.7578,3.7578,3.5985,3.5136,3.5136,3.5103,3.507,3.507,3.5004,3.4971,4.3792,4.5768,4.7247,4.9746,5.2853,5.4972,5.3955,5.4529,5.5991,5.8572,5.9939,6.0648,6.0648,6.0648,6.0648,6.0648,6.0648,6.0648,6.0648,6.0648,6.0648,6.0648,6.0648,6.0648,6.0648,6.0648,6.0648,6.0648,5.9891,5.928,5.8917,5.8467,5.7894,5.724,5.7026,5.7258,5.7876,5.8672,5.9999,6.1775,6.1775,6.2268,6.314,6.1833,6.1252,6.1252,6.1252,6.0997,6.06,6.06,6.06,6.0572,6.0057,6.02,6.0543,6.0057,6.0457,6.1166,6.0742,6.06,6.0486,6.0028,5.9131,5.8129,5.7653,5.6652,5.565,5.5495,5.5473,5.5238,5.4329,5.4042,5.2596,4.6785,4.5381,4.4142,3.946,3.8485,3.8485,3.8485,3.8485,3.8485,3.8485,3.8485,3.8607,3.89,3.9538,4.016,4.0608,4.2103,4.3435,4.4204,4.3838,4.3546,4.3546,4.3546,4.3098,4.1927,4.1866,4.1346,4.0087,3.9587,3.9336,3.9336,3.8895,3.8641,3.8641,3.7438,3.6824,3.6812,3.5546,3.4971,3.8689,4.0441,4.2099,4.3157,4.6082,4.8613,4.8398,4.8975,5.0405,5.3363,5.5106,5.6092,5.6092,5.7622,5.8872,5.8872,5.9859,6.0648,6.0648,6.0648,6.0648,6.0648,6.0648,6.0648,6.0648,6.0648,6.0648,6.0648,6.0003,5.9635,5.9635,5.8966,5.8409,5.7893,5.6743,5.6239,5.6518,5.6646,5.744,5.8869,5.9942,6.0815,6.1541,6.1339,6.1252,6.1252,6.1252,6.1252,6.1252,6.1252,6.1252,6.1252,6.1252,6.1252,6.1252,6.1252,6.1252,6.1252,6.1252,6.1252,6.1252,6.1252,6.0628,5.9769,5.9072,5.8218,5.7291,5.656,5.6376,5.613,5.5164,5.4113,5.2166,4.7786,4.5923,4.4195,4.0797,4.0009,4.0009,4.0009,3.9646,3.9304,3.9304,3.8859,3.8685,3.923,3.9902,4.0298,4.0226,4.1321,4.2438,4.3484,4.3996,4.443,4.4869,4.4918,4.4512,4.36,4.354,4.3098,4.2117,4.1446,4.1078,4.1078,4.0398,4.0056,4.0056,3.9052,3.8578,3.8546,3.7546,3.6616,2.991,3.2725,3.5948,3.4677,3.7428,4.0783,0.0,4.2499,4.3453,4.6506,4.8282,4.9336,4.9468,5.3133,5.6127,5.6127,5.8675,6.0648,6.0648,6.0648,6.0648,6.0648,6.0648,6.0648,6.0648,6.0648,6.0648,6.0648,6.0648,6.0648,6.0648,6.0648,6.0159,5.9141,5.7957,5.6832,5.5813,5.5767,5.5757,5.581,5.8029,5.9087,5.9126,6.0437,6.1019,6.1019,6.1164,6.1252,6.1252,6.1252,6.1252,6.1252,6.1252,6.1252,6.1252,6.1252,6.1252,6.1252,6.1252,6.1252,6.1252,6.1252,6.1252,6.0997,5.9566,5.9131,5.8837,5.7351,5.6927,5.6866,5.6713,5.4726,5.2186,4.9906,4.7388,4.4906,4.2665,4.2175,4.2175,4.2175,4.1344,4.0639,4.0639,3.9696,3.9304,4.0471,4.0519,4.0393,4.029,4.0252,4.0587,4.1513,4.256,4.3557,4.4479,4.4552,4.4601,4.4723,4.4625,4.4552,4.4552,4.3215,4.2502,4.2502,4.1009,4.0253,4.0222,4.0037,3.9945,3.9945,3.976,3.8748,0.0,0.0,0.0,0.0,0.0,0.0,0.0,3.7175,3.9192,4.3321,4.5308,4.667,4.7821,5.1587,5.4479,5.4479,5.7966,6.0648,6.0648,6.0648,6.0648,6.0648,6.0648,6.0648,6.0648,6.0648,6.0648,6.0648,6.0648,6.0648,6.0648,6.0648,6.0553,6.0308,5.9181,5.8472,5.821,5.73,5.6909,5.7004,5.7482,5.7767,5.7931,5.9126,5.9652,5.971,6.0787,6.1252,6.1252,6.1252,6.1252,6.1252,6.1252,6.1252,6.1252,6.1252,6.1252,6.1252,6.1252,6.1252,6.1252,6.1252,6.1252,6.1166,6.0855,6.077,6.0714,6.0372,6.0286,5.9999,5.8749,5.6475,5.3647,5.0205,4.7388,4.4906,4.2665,4.2175,4.2175,4.2175,4.2017,4.1855,4.1855,4.1646,4.1575,4.1808,4.104,4.0429,4.0416,4.0298,4.0294,4.0514,4.1465,4.217,4.2365,4.2389,4.2756,4.3606,4.2878,4.2389,4.2389,4.2113,4.1951,4.1951,4.1617,4.1454,4.1454,4.0082,3.9407,3.9401,3.8024,3.8174,0.0,0.0,0.0,0.0,0.0,0.0,0.0,0.0,0.0,0.0,0.0,4.0277,4.098,0.0,5.1045,5.1785,5.6206,5.984,6.055,6.0648,6.0648,6.0648,6.0648,6.0648,6.0648,6.0648,6.0648,6.0648,6.0648,6.0648,6.0648,6.0648,6.0648,6.0648,5.9515,5.8885,5.8885,5.7744,5.7172,5.7247,5.7285,5.7381,5.745,5.8134,5.8719,5.933,5.9971,6.0612,6.1252,6.1252,6.1252,6.1252,6.1252,6.1252,6.1252,6.1252,6.1252,6.1252,6.1252,6.1252,6.1252,6.1252,6.1252,6.1252,6.1252,6.1252,6.1252,6.1252,6.1252,6.1054,6.0257,5.7205,5.3858,5.1964,4.8523,4.5359,4.4238,4.403,4.403,4.403,4.3565,4.314,4.314,4.3632,4.3832,4.323,4.2645,4.1842,4.0591,4.0373,4.0076,3.9441,4.0341,4.1027,4.1027,4.1489,4.1999,4.2536,4.2072,4.1807,4.1807,4.1807,4.1807,4.1807,4.1807,4.1807,4.1807,4.0942,4.0245,3.9699,3.7197,3.6682,0.0,0.0,0.0,0.0,0.0,0.0,0.0,0.0,0.0,0.0,0.0,0.0,0.0,0.0,0.0,4.8251,5.3642,5.8244,5.9972,6.0254,6.0333,6.0615,6.0648,6.0648,6.0648,6.0648,6.0648,6.0648,6.0648,6.0648,6.0648,6.0648,6.0648,6.0648,5.9734,5.9242,5.9242,5.8305,5.7702,5.7465,5.7582,0.0,5.6982,5.7349,5.7906,5.8603,5.8836,5.9681,6.0874,6.0874,6.099,6.1223,6.0961,6.1019,6.1252,6.1252,6.1252,6.1252,6.1252,6.1252,6.1252,6.1252,6.1252,6.1252,6.1252,6.1252,0.0,6.1252,6.1252,6.1252,6.1252,5.7469,5.365,5.365,4.9668,4.5864,4.5864,4.5864,4.5864,4.5864,4.5121,4.4443,4.4443,4.525,4.5548,4.4624,4.4246,4.3397,4.1397,4.0924,4.0277,3.9008,3.9697,4.0187,3.9929,4.0881,4.1391,4.1172,4.1367,4.1391,4.1172,4.1147,4.1047,4.0852,4.0852,4.0754,4.0535,4.0535,4.0122,3.9219,3.6581,3.5264,0.0,0.0,0.0,0.0,0.0,0.0,0.0,0.0,0.0,0.0,0.0,0.0,0.0,0.0,0.0,0.0,4.9945,5.5531,5.8342,5.8737,5.9248,6.0498,6.0648,6.0648,6.0648,6.0648,6.0648,6.0648,6.0648,6.0648,6.0648,6.0648,0.0,0.0,0.0,6.0457,6.0457,6.0327,5.9734,5.87,5.8714,5.7619,5.5646,5.6856,5.6889,5.6073,5.7233,5.8426,5.9477,5.9477,6.0204,6.1135,5.9971,6.0233,6.1252,6.1252,6.1252,6.1252,6.1252,0.0,0.0,6.1252,6.1252,6.1252,6.1252,6.1252,6.1252,6.1252,6.1252,6.1252,6.1252,5.7469,5.365,5.365,4.9668,4.5864,4.5864,4.5864,4.5864,4.5864,4.5759,4.5675,4.5675,4.578,4.5822,4.5696,4.477,4.4026,4.3737,4.2709,4.1532,4.0351,4.0334,0.0,3.8781,3.9757,3.9977,3.8924,3.9829,3.9926,3.89,3.8875,3.8436,3.7509,3.7484,3.7021,3.6118,3.6118,3.6044,3.5922,3.5556,3.4896,0.0,0.0,0.0,0.0,0.0,0.0,0.0,0.0,0.0,0.0,0.0,0.0,0.0,0.0,0.0,0.0,4.6115,5.1029,5.3116,5.4841,5.6779,5.915,6.0136,6.0648,6.0648,6.0648,6.0648,6.0648,6.0648,6.0648,6.0648,6.0648,6.0648,6.0648,6.0648,6.0648,6.0648,6.0648,6.0385,5.9924,5.8987,5.8063,5.7052,5.5752,5.5752,5.6768,5.7291,5.8079,5.8954,5.8954,5.9419,6.0117,0.0,0.0,0.0,0.0,6.1252,6.1252,6.1252,6.1252,6.1252,6.1252,6.1252,6.1252,6.1252,6.1252,6.1252,6.1252,6.1252,6.1252,6.1252,5.7469,5.365,5.365,4.9668,4.5864,4.5864,4.5864,4.5864,4.5864,4.5864,0.0,4.5864,4.5864,4.5864,4.5864,4.5463,4.4906,4.423,4.3643,4.285,4.1579,4.0828,4.0206,3.9647,3.9378,0.0,0.0,0.0,3.8998,3.8509,3.8485,0.0,0.0,0.0,3.6425,3.5386,3.5976,0.0,0.0,3.1042,3.0744,0.0,0.0,0.0,0.0,0.0,0.0,0.0,0.0,0.0,0.0,0.0,0.0,0.0,0.0,0.0,0.0,4.1691,4.5585,4.6641,5.0273,5.3658,5.5844,5.7736,5.8985,5.9431,5.9464,5.9793,6.0583,6.0648,6.0648,6.0648,6.0648,6.0648,6.0648,6.0648,6.0648,6.0648,6.0648,6.0648,6.0629,5.9483,5.8627,5.7936,5.5661,5.5667,5.7407,5.6727,5.7178,5.8402,5.8402,5.8547,5.8894,5.9855,6.0233,6.0233,6.0233,6.0233,6.032,6.099,6.1252,6.1252,6.1252,6.1252,6.1252,6.1252,6.1252,6.1252,6.1252,6.0903,6.0322,5.9363,5.6131,5.2951,5.2199,4.8911,4.5864,4.5864,4.5864,4.5864,4.5864,4.5312,4.4847,4.4847,4.4847,4.4847,4.4847,4.5166,4.5078,4.4222,4.4398,4.413,4.2846,4.1955,4.1161,4.0471,3.9549,3.8884,3.851,3.8485,3.8485,3.8485,3.8216,3.7704,3.6948,3.6062,3.5083,0.0,0.0,0.0,0.0,0.0,0.0,0.0,0.0,0.0,0.0,0.0,0.0,0.0,0.0,0.0,0.0,0.0,0.0,0.0,0.0,0.0,0.0,0.0,0.0,3.9208,4.5378,4.9928,5.0026,5.2508,5.4825,5.6357,5.6522,5.7673,6.0432,6.0648,6.0648,6.0648,6.0648,6.0648,6.0648,6.0648,6.0648,6.0648,6.0648,6.0648,6.0648,6.0591,5.9363,5.7183,5.7074,5.7092,5.7022,5.4742,5.5222,5.7582,5.7582,5.7582,5.7582,5.764,5.764,5.764,5.764,5.764,5.799,6.038,6.1252,6.1252,6.1252,6.1252,6.1252,6.1252,6.1252,6.1252,6.1252,6.006,5.7997,5.4731,5.281,5.1129,4.8583,4.6919,4.5864,4.5864,4.5864,4.5864,4.5864,4.3916,4.2287,4.2287,4.2287,4.2287,4.2287,4.3354,0.0,4.4119,4.5096,4.5378,4.418,4.4026,4.3036,4.0615,4.0375,3.9818,3.856,3.8485,3.8485,3.8485,3.7509,3.6972,3.6948,3.3848,3.1701,3.0671,0.0,0.0,0.0,0.0,0.0,0.0,0.0,0.0,0.0,0.0,0.0,0.0,0.0,0.0,0.0,0.0,0.0,0.0,0.0,0.0,0.0,0.0,0.0,0.0,4.15,4.5523,4.5523,4.9731,5.2081,5.0699,5.0567,5.0962,5.1949,5.3774,5.527,5.6206,5.8145,5.9676,6.0615,6.0648,6.0648,6.0648,6.0648,6.0648,6.0648,6.0648,6.025,5.9443,5.9443,5.9443,5.9403,5.8627,5.7035,5.496,5.496,5.496,5.496,5.496,5.496,5.496,5.496,5.496,5.5105,5.5924,5.6215,5.6215,5.6215,5.6215,5.6215,5.6215,5.6215,5.6916,6.0264,6.0816,5.9361,5.4818,5.1665,4.9341,4.8118,4.6221,4.4692,4.4692,4.4692,4.446,4.3616,4.3179,4.2788,4.2286,4.2171,4.2171,4.2171,4.2539,4.315,4.4014,4.448,4.4868,4.5249,4.4596,4.3804,4.2968,4.1373,4.023,3.9794,3.8316,3.746,3.746,3.646,3.5558,3.4896,3.3021,3.1712,3.1021,0.0,0.0,0.0,0.0,0.0,0.0,0.0,0.0,0.0,0.0,0.0,0.0,0.0,0.0,0.0,0.0,0.0,0.0,0.0,0.0,0.0,0.0,0.0,0.0,0.0,0.0,4.196,4.5951,0.0,4.4796,4.4532,4.5007,4.6012,4.8282,5.0009,5.0947,5.4266,5.6585,5.7506,5.9051,5.9774,5.9629,6.0287,6.0648,6.0648,6.0648,6.0648,6.0648,6.0648,5.9734,5.8168,5.8168,5.7381,5.6154,5.6154,5.6154,5.5973,5.4318,5.365,5.365,5.365,5.365,5.365,5.365,5.4735,5.5859,5.4198,5.6154,5.883,5.694,5.2519,4.8847,5.2123,5.5698,5.7326,5.2199,4.9254,4.7338,4.6279,4.4917,4.3923,4.4271,4.4348,4.3674,4.1377,4.0884,4.0777,4.0484,4.0241,4.0251,4.0717,4.1182,4.1793,4.2627,4.3548,4.4422,4.5187,4.4949,4.4574,4.4158,4.2672,4.1561,4.1087,3.9254,3.8178,3.8178,3.6379,3.5014,3.4251,3.2319,3.0887,0.0,0.0,0.0,0.0,0.0,0.0,0.0,0.0,0.0,0.0,0.0,0.0,0.0,0.0,0.0,0.0,0.0,0.0,0.0,0.0,0.0,0.0,0.0,0.0,0.0,0.0,0.0,3.8728,4.0942,0.0,0.0,0.0,0.0,4.2499,4.4091,4.4946,4.5044,4.9071,5.1439,5.1571,5.5796,5.7867,5.7443,5.9431,6.0517,6.0648,6.0648,6.0648,6.0648,6.0648,5.82,5.3981,5.3981,5.6401,6.0327,6.0553,6.0192,5.9085,5.4798,5.2857,5.2509,5.2623,5.287,5.3099,5.2936,5.5791,5.878,5.4325,5.9412,6.6306,6.1222,4.9477,0.0,0.0,4.5367,5.1964,4.683,4.5486,4.5021,4.3126,4.294,4.3463,4.4374,4.4514,4.3311,3.9346,3.7358,3.6518,3.7122,0.0,3.6703,3.8,3.9263,4.0069,4.0215,4.2452,4.4043,4.4131,4.5187,4.5421,4.429,4.4108,4.3488,4.2255,4.0926,4.0173,4.0173,3.6982,3.5053,3.4729,3.1518,0.0,0.0,0.0,0.0,0.0,0.0,0.0,0.0,0.0,0.0,0.0,0.0,0.0,0.0,0.0,0.0,0.0,0.0,0.0,0.0,0.0,0.0,0.0,0.0,0.0,0.0,2.9131,3.1784,2.9601,3.2834,3.4534,0.0,0.0,0.0,0.0,0.0,0.0,3.8908,4.2145,4.4927,4.705,5.0289,5.2442,5.338,5.6094,5.8543,6.0648,6.0648,6.0648,6.0648,6.0648,6.0003,5.8853,5.8853,5.7563,5.5699,5.9189,5.4071,4.4148,4.546,4.212,3.6815,3.8771,4.2249,4.5626,4.3079,4.3005,4.3808,4.2601,4.1479,4.0303,3.8936,0.0,0.0,0.0,0.0,4.5096,4.1245,4.0259,4.0428,4.1166,4.1399,4.162,4.2148,4.1794,4.0553,3.7757,3.6533,3.5886,3.5887,3.5345,0.0,3.6645,3.7122,3.8053,3.9982,4.1676,4.3063,4.4014,4.5187,4.5759,4.5463,4.3726,4.2528,4.2199,3.8718,3.6676,3.6676,3.4062,3.2189,3.1229,0.0,0.0,0.0,0.0,0.0,0.0,0.0,0.0,0.0,0.0,0.0,0.0,0.0,0.0,0.0,0.0,0.0,0.0,0.0,0.0,0.0,0.0,0.0,0.0,0.0,0.0,0.0,2.6895,2.9295,2.7233,2.9107,2.9502,0.0,0.0,0.0,0.0,0.0,0.0,0.0,0.0,0.0,3.9731,4.3631,4.5819,4.6181,5.1669,5.6504,6.0648,6.0648,6.0648,6.0648,6.0648,6.0648,6.0648,6.0648,5.7694,5.272,5.0265,4.4289,3.6882,0.0,0.0,0.0,0.0,3.5952,3.7526,3.5625,3.5733,3.6677,3.6677,0.0,0.0,0.0,0.0,0.0,0.0,0.0,3.9683,4.0318,3.9398,3.8705,4.0434,4.0817,4.0739,4.0451,3.8952,3.7304,3.6039,3.4578,3.3493,3.3275,3.2997,0.0,0.0,0.0,3.6861,3.8343,4.0659,4.2462,4.3179,4.4817,4.5661,4.5158,4.3836,4.2786,4.2205,3.8828,3.6779,3.6654,3.3336,3.1118,0.0,0.0,0.0,0.0,0.0,0.0,0.0,0.0,0.0,0.0,0.0,0.0,0.0,0.0,0.0,0.0,0.0,0.0,0.0,0.0,0.0,0.0,0.0,0.0,0.0,0.0,0.0,0.0,0.0,2.961,2.7305,0.0,0.0,0.0,0.0,0.0,0.0,0.0,0.0,0.0,0.0,0.0,0.0,0.0,3.86,3.7217,4.4716,5.1439,5.7228,5.7228,5.8017,5.9497,5.9497,5.9497,5.9399,5.7886,0.0,4.7723,3.7647,0.0,0.0,0.0,0.0,0.0,0.0,0.0,0.0,0.0,0.0,0.0,0.0,0.0,0.0,0.0,0.0,0.0,0.0,0.0,0.0,0.0,0.0,3.8263,4.0065,4.0473,4.0027,3.8336,3.5839,3.3959,3.4022,3.1866,3.0079,0.0,0.0,0.0,0.0,0.0,0.0,3.6325,3.9612,4.1996,4.2142,4.4265,4.5245,4.4218,4.3985,4.3296,4.1996,3.9562,3.7984,3.76,3.3174,0.0,0.0,0.0,0.0,0.0,0.0,0.0,0.0,0.0,0.0,0.0,0.0,0.0,0.0,0.0,0.0,0.0,0.0,0.0,0.0,0.0,0.0,0.0,0.0,0.0,0.0,0.0,0.0,0.0,0.0,0.0,0.0,0.0,0.0,0.0,0.0,0.0,0.0,0.0,0.0,0.0,0.0,0.0,0.0,0.0,0.0,0.0,0.0,0.0,0.0,3.9147,4.4157,5.3413,5.3413,5.3413,5.287,4.3302,3.5882,3.0409,2.8369,0.0,0.0,0.0,0.0,0.0,0.0,0.0,0.0,0.0,0.0,0.0,0.0,0.0,0.0,0.0,0.0,0.0,0.0,0.0,0.0,0.0,0.0,3.5819,3.8169,3.8747,3.753,3.3116,0.0,0.0,0.0,0.0,0.0,0.0,0.0,0.0,0.0,0.0,0.0,3.6076,3.8809,4.0989,4.2055,4.3529,4.4334,4.4131,4.3121,4.1967,4.0669,3.7348,3.4972,0.0,0.0,0.0,0.0,0.0,0.0,0.0,0.0,0.0,0.0,0.0,0.0,0.0,0.0,0.0,0.0,0.0,0.0,0.0,0.0,0.0,0.0,0.0,0.0,0.0,0.0,0.0,0.0,0.0,0.0,0.0,0.0,0.0,0.0,0.0,0.0,0.0,0.0,0.0,0.0,0.0,0.0,0.0,0.0,0.0,0.0,0.0,0.0,0.0,0.0,0.0,0.0,0.0,0.0,0.0,0.0,0.0,0.0,3.3866,2.859,0.0,0.0,0.0,0.0,0.0,0.0,0.0,0.0,0.0,0.0,0.0,0.0,0.0,0.0,0.0,0.0,0.0,0.0,0.0,0.0,0.0,0.0,0.0,0.0,0.0,0.0,0.0,0.0,0.0,0.0,0.0,0.0,0.0,0.0,0.0,0.0,0.0,0.0,0.0,0.0,3.5101,3.8227,4.0756,4.2025,4.2743,4.3112,4.3112,4.1909,4.0339,3.8343,3.6053,0.0,0.0,0.0,0.0,0.0,0.0,0.0,0.0,0.0,0.0,0.0,0.0,0.0,0.0,0.0,0.0,0.0,0.0,0.0,0.0,0.0,0.0,0.0,0.0,0.0,0.0,0.0,0.0,0.0,0.0,0.0,0.0,0.0,0.0,0.0,0.0,0.0,0.0,0.0,0.0,0.0,0.0,0.0,0.0,0.0,0.0,0.0,0.0,0.0,0.0,0.0,0.0,0.0,0.0,0.0,0.0,0.0,0.0,0.0,2.6155,2.4197,0.0,0.0,0.0,0.0,0.0,0.0,0.0,0.0,0.0,0.0,0.0,0.0,0.0,0.0,0.0,0.0,0.0,0.0,0.0,0.0,0.0,0.0,0.0,0.0,0.0,0.0,0.0,0.0,0.0,0.0,0.0,0.0,0.0,0.0,0.0,0.0,0.0,0.0,0.0,0.0,3.4184,3.7338,4.0117,4.1996,4.1938,4.188,4.2142,4.0989,3.9128,3.6512,3.5087,0.0,0.0,0.0,0.0,0.0,0.0,0.0,0.0,0.0,0.0,0.0,0.0,0.0,0.0,0.0,0.0,0.0,0.0,0.0,0.0,0.0,0.0,0.0,0.0,0.0,0.0,0.0,0.0,0.0,0.0,0.0,0.0,0.0,0.0,0.0,0.0,0.0,0.0,0.0,0.0,0.0,0.0,0.0,0.0,0.0,0.0,0.0,0.0,0.0,0.0,0.0,0.0,0.0,0.0,0.0,0.0,0.0,0.0,0.0,0.0,0.0,0.0,0.0,0.0,0.0,0.0,0.0,0.0,0.0,0.0,0.0,0.0,0.0,0.0,0.0,0.0,0.0,0.0,0.0,0.0,0.0,0.0,0.0,0.0,0.0,0.0,0.0,0.0,0.0,0.0,0.0,0.0,0.0,0.0,0.0,0.0,0.0,0.0,0.0,0.0,0.0,3.3952,3.574,3.8128,4.1812,4.1124,4.0902,4.2084,4.0989,3.9128,3.6512,0.0,0.0,0.0,0.0,0.0,0.0,0.0,0.0,0.0,0.0,0.0,0.0,0.0,0.0,0.0,0.0,0.0,0.0,0.0,0.0,0.0,0.0,0.0,0.0,0.0,0.0,0.0,0.0,0.0,0.0,0.0,0.0,0.0,0.0,0.0,0.0,0.0,0.0,0.0,0.0,0.0,0.0,0.0,0.0,0.0,0.0,0.0,0.0,0.0,0.0,0.0,0.0,0.0,0.0,0.0,0.0,0.0,0.0,0.0,0.0,0.0,0.0,0.0,0.0,0.0,0.0,0.0,0.0,0.0,0.0,0.0,0.0,0.0,0.0,0.0,0.0,0.0,0.0,0.0,0.0,0.0,0.0,0.0,0.0,0.0,0.0,0.0,0.0,0.0,0.0,0.0,0.0,0.0,0.0,0.0,0.0,0.0,0.0,0.0,0.0,0.0,0.0,3.2833,3.5071,3.7576,4.0688,3.9844,3.9582,4.0902,3.9099,3.7122,3.5304,0.0,0.0,0.0,0.0,0.0,0.0,0.0,0.0,0.0,0.0,0.0,0.0,0.0,0.0,0.0,0.0,0.0,0.0,0.0,0.0,0.0,0.0,0.0,0.0,0.0,0.0,0.0,0.0,0.0,0.0,0.0,0.0,0.0,0.0,0.0,0.0,0.0,0.0,0.0,0.0,0.0,0.0,0.0,0.0,0.0,0.0,0.0,0.0,0.0,0.0,0.0,0.0,0.0,0.0,0.0,0.0,0.0,0.0,0.0,0.0,0.0,0.0,0.0,0.0,0.0,0.0,0.0,0.0,0.0,0.0,0.0,0.0,0.0,0.0,0.0,0.0,0.0,0.0,0.0,0.0,0.0,0.0,0.0,0.0,0.0,0.0,0.0,0.0,0.0,0.0,0.0,0.0,0.0,0.0,0.0,0.0,0.0,0.0,0.0,0.0,0.0,0.0,3.2121,3.4416,3.6919,3.9942,3.9059,3.8815,4.0127,3.7849,3.564,3.3936,0.0,0.0,0.0,0.0,0.0,0.0,0.0,0.0,0.0,0.0,0.0,0.0,0.0,0.0,0.0,0.0,0.0,0.0,0.0,0.0,0.0,0.0,0.0,0.0,0.0,0.0,0.0,0.0,0.0,0.0,0.0,0.0,0.0,0.0,0.0,0.0,0.0,0.0,0.0,0.0,0.0,0.0,0.0,0.0,0.0,0.0,0.0,0.0,0.0,0.0,0.0,0.0,0.0,0.0,0.0,0.0,0.0,0.0,0.0,0.0,0.0,0.0,0.0,0.0,0.0,0.0,0.0,0.0,0.0,0.0,0.0,0.0,0.0,0.0,0.0,0.0,0.0,0.0,0.0,0.0,0.0,0.0,0.0,0.0,0.0,0.0,0.0,0.0,0.0,0.0,0.0,0.0,0.0,0.0,0.0,0.0,0.0,0.0,0.0,0.0,0.0,0.0,3.2092,3.3617,3.5927,3.9826,3.9059,3.8815,4.0127,3.7849,3.5246,0.0,0.0,0.0,0.0,0.0,0.0,0.0,0.0,0.0,0.0,0.0,0.0,0.0,0.0,0.0,0.0,0.0,0.0,0.0,0.0,0.0,0.0,0.0,0.0,0.0,0.0,0.0,0.0,0.0,0.0,0.0,0.0,0.0,0.0,0.0,0.0,0.0,0.0,0.0,0.0,0.0,0.0,0.0,0.0,0.0,0.0,0.0,0.0,0.0,0.0,0.0,0.0,0.0,0.0,0.0,0.0,0.0,0.0,0.0,0.0,0.0,0.0,0.0,0.0,0.0,0.0,0.0,0.0,0.0,0.0,0.0,0.0,0.0,0.0,0.0,0.0,0.0,0.0,0.0,0.0,0.0,0.0,0.0,0.0,0.0,0.0,0.0,0.0,0.0,0.0,0.0,0.0,0.0,0.0,0.0,0.0,0.0,0.0,0.0,0.0,0.0,0.0,0.0,3.1377,3.3278,3.5582,3.8594,3.8542,3.8466,3.8873,3.6512,3.43,3.2586,0.0,0.0,0.0,0.0,0.0,0.0,0.0,0.0,0.0,0.0,0.0,0.0,0.0,0.0,0.0,0.0,0.0,0.0,0.0,0.0,0.0,0.0,0.0,0.0,0.0,0.0,0.0,0.0,0.0,0.0,0.0,0.0,0.0,0.0,0.0,0.0,0.0,0.0,0.0,0.0,0.0,0.0,0.0,0.0,0.0,0.0,0.0,0.0,0.0,0.0,0.0,0.0,0.0,0.0,0.0,0.0,0.0,0.0,0.0,0.0,0.0,0.0,0.0,0.0,0.0,0.0,0.0,0.0,0.0,0.0,0.0,0.0,0.0,0.0,0.0,0.0,0.0,0.0,0.0,0.0,0.0,0.0,0.0,0.0,0.0,0.0,0.0,0.0,0.0,0.0,0.0,0.0,0.0,0.0,0.0,0.0,0.0,0.0,0.0,0.0,0.0,0.0,0.0,3.3134,3.5391,3.8029,3.8309,3.8309,3.8309,3.5901,3.3677,3.1933,0.0,0.0,0.0,0.0,0.0,0.0,0.0,0.0,0.0,0.0,0.0,0.0,0.0,0.0,0.0,0.0,0.0,0.0,0.0,0.0,0.0,0.0,0.0,0.0,0.0,0.0,0.0,0.0,0.0,0.0,0.0,0.0,0.0,0.0,0.0,0.0,0.0,0.0,0.0,0.0,0.0,0.0,0.0,0.0,0.0,0.0,0.0,0.0,0.0,0.0,0.0,0.0,0.0,0.0,0.0,0.0,0.0,0.0,0.0,0.0,0.0,0.0,0.0,0.0,0.0,0.0,0.0,0.0,0.0,0.0,0.0,0.0,0.0,0.0,0.0,0.0,0.0,0.0,0.0,0.0,0.0,0.0,0.0,0.0,0.0,0.0,0.0,0.0,0.0,0.0,0.0,0.0,0.0,0.0,0.0,0.0,0.0,0.0,0.0,0.0,0.0,0.0,0.0,3.3104,3.5362,3.7884,3.8233,3.8309,3.8309,3.5901,3.3343,3.0885,2.8253,0.0,0.0,0.0,0.0,0.0,0.0,0.0,0.0,0.0,0.0,0.0,0.0,0.0,0.0,0.0,0.0,0.0,0.0,0.0,0.0,0.0,0.0,0.0,0.0,0.0,0.0,0.0,0.0,0.0,0.0,0.0,0.0,0.0,0.0,0.0,0.0,0.0,0.0,0.0,0.0,0.0,0.0,0.0,0.0,0.0,0.0,0.0,0.0,0.0,0.0,0.0,0.0,0.0,0.0,0.0,0.0,0.0,0.0,0.0,0.0,0.0,0.0,0.0,0.0,0.0,0.0,0.0,0.0,0.0,0.0,0.0,0.0,0.0,0.0,0.0,0.0,0.0,0.0,0.0,0.0,0.0,0.0,0.0,0.0,0.0,0.0,0.0,0.0,0.0,0.0,0.0,0.0,0.0,0.0,0.0,0.0,0.0,0.0,0.0,0.0,0.0,0.0,3.3237,3.5013,3.6645,3.7709,3.8309,3.8309,3.5901,3.3343,3.0885,2.8253,0.0,0.0,0.0,0.0,0.0,0.0,0.0,0.0,0.0,0.0,0.0,0.0,0.0,0.0,0.0,0.0,0.0,0.0,0.0,0.0,0.0,0.0,0.0,0.0,0.0,0.0,0.0,0.0,0.0,0.0,0.0,0.0,0.0,0.0,0.0,0.0,0.0,0.0,0.0,0.0,0.0,0.0,0.0,0.0,0.0,0.0,0.0,0.0,0.0,0.0,0.0,0.0,0.0,0.0,0.0,0.0,0.0,0.0,0.0,0.0,0.0,0.0,0.0,0.0,0.0,0.0,0.0,0.0,0.0,0.0,0.0,0.0,0.0,0.0,0.0,0.0,0.0,0.0,0.0,0.0,0.0,0.0,0.0,0.0,0.0,0.0,0.0,0.0,0.0,0.0,0.0,0.0,0.0,0.0,0.0,0.0,0.0,0.0,0.0,0.0,0.0,0.0,3.1624,3.3972,3.6125,3.7506,3.8076,3.7447,3.5565,3.3111,3.0012,2.738,0.0,0.0,0.0,0.0,0.0,0.0,0.0,0.0,0.0,0.0,0.0,0.0,0.0,0.0,0.0,0.0,0.0,0.0,0.0,0.0,0.0,0.0,0.0,0.0,0.0,0.0,0.0,0.0,0.0,0.0,0.0,0.0,0.0,0.0,0.0,0.0,0.0,0.0,0.0,0.0,0.0,0.0,0.0,0.0,0.0,0.0,0.0,0.0,0.0,0.0,0.0,0.0,0.0,0.0,0.0,0.0,0.0,0.0,0.0,0.0,0.0,0.0,0.0,0.0,0.0,0.0,0.0,0.0,0.0,0.0,0.0,0.0,0.0,0.0,0.0,0.0,0.0,0.0,0.0,0.0,0.0,0.0,0.0,0.0,0.0,0.0,0.0,0.0,0.0,0.0,0.0,0.0,0.0,0.0,0.0,0.0,0.0,0.0,0.0,0.0,0.0,0.0,0.0,3.2103,3.5168,3.6994,3.7564,3.6441,3.5159,3.2776,2.9009,0.0,0.0,0.0,0.0,0.0,0.0,0.0,0.0,0.0,0.0,0.0,0.0,0.0,0.0,0.0,0.0,0.0,0.0,0.0,0.0,0.0,0.0,0.0,0.0,0.0,0.0,0.0,0.0,0.0,0.0,0.0,0.0,0.0,0.0,0.0,0.0,0.0,0.0,0.0,0.0,0.0,0.0,0.0,0.0,0.0,0.0,0.0,0.0,0.0,0.0,0.0,0.0,0.0,0.0,0.0,0.0,0.0,0.0,0.0,0.0,0.0,0.0,0.0,0.0,0.0,0.0,0.0,0.0,0.0,0.0,0.0,0.0,0.0,0.0,0.0,0.0,0.0,0.0,0.0,0.0,0.0,0.0,0.0,0.0,0.0,0.0,0.0,0.0,0.0,0.0,0.0,0.0,0.0,0.0,0.0,0.0,0.0,0.0,0.0,0.0,0.0,0.0,0.0,0.0,2.8602,3.1293,3.4625,3.6558,3.6367,3.5159,3.2776,2.9009,0.0,0.0,0.0,0.0,0.0,0.0,0.0,0.0,0.0,0.0,0.0,0.0,0.0,0.0]}],[{"header":{"parameterUnit":"kt","parameterCategory":2,"dx":1,"dy":1,"la1":29.285339999999998,"la2":30.599998999999997,"lo1":-89.70041500000002,"lo2":-87.6738589999976,"nx":112,"ny":82,"refTime":"2022-09-30T18:00:00:Z","depth":0,"parameterNumber":2,"parameterNumberName":"V-component_of_WINDS"},"data":[5.096,5.1565,5.0977,4.5088,4.5146,4.4759,3.7574,3.5591,3.4398,3.123,3.0531,3.0051,2.8579,2.8727,2.857,2.7041,2.5588,2.4503,0.0,2.341,2.3812,2.581,3.2275,3.7987,4.1605,4.5571,5.139,5.9878,6.2687,6.704,7.3961,7.7034,7.9844,8.2657,8.266,8.3993,8.6805,8.7887,8.9458,9.158,9.2597,9.3346,9.3881,9.3881,9.3881,9.3881,9.3881,9.3881,9.3916,9.4541,9.5417,9.6528,9.748,10.0134,10.3388,10.3146,10.4625,10.6783,10.6783,10.495,10.2622,10.2436,10.0613,9.8566,9.8566,9.8566,9.8566,9.8566,9.8566,9.8566,9.8566,9.8566,9.8566,9.8566,9.8566,9.8566,9.8566,9.8566,9.8566,9.8566,9.8566,9.8566,9.8566,10.3951,10.8288,10.8288,10.8288,10.8288,10.8288,10.8288,10.9186,11.1542,11.5655,11.0158,9.0349,8.8629,8.8629,8.8629,8.8629,8.8629,8.8629,8.8629,8.8629,8.8629,8.8629,8.8629,8.8629,8.8629,8.8629,8.8629,8.8629,8.8629,4.6084,4.6832,4.6846,3.9971,3.9506,3.9175,3.3212,3.0596,2.9023,2.7713,2.7157,2.6726,2.5942,2.6184,2.6288,2.5483,2.4536,2.3903,0.0,2.4305,2.5687,2.8581,3.7045,4.3428,4.5355,4.9385,5.5106,6.2918,6.4365,6.8719,7.7489,7.9661,8.1665,8.3838,8.4474,8.5898,8.8168,8.9383,9.0813,9.2328,9.3417,9.3881,9.3881,9.3881,9.3881,9.3881,9.3881,9.3881,9.3881,9.3881,9.4541,9.5618,9.634,9.8739,10.1853,10.1782,10.3526,10.5848,10.5287,10.3221,10.0893,10.0893,9.9828,9.8566,9.8566,9.8566,9.8566,9.8566,9.8566,9.8566,9.8566,9.8566,9.8566,9.8566,9.8566,9.8566,9.8566,9.8566,9.8566,9.8566,9.8566,9.8566,9.8566,10.2119,10.4998,10.4998,10.6868,10.8288,10.8288,10.8288,10.8288,10.8288,11.2215,10.7728,9.0124,8.8629,8.8629,8.8629,8.8629,8.8629,8.8629,8.8629,8.8629,8.8629,8.8629,8.8629,8.8629,8.8629,8.8629,8.8629,8.8629,8.8629,4.2442,4.0989,4.0746,3.5565,3.253,3.0739,3.055,2.8573,2.6408,2.5104,2.5249,2.5408,2.4701,2.4983,2.5098,2.4261,2.4265,0.0,0.0,2.5637,2.882,3.4479,4.1382,4.7971,5.3691,5.0568,5.2919,6.4324,6.2569,6.6266,7.8515,7.945,8.119,8.4592,8.5183,8.6718,8.9333,9.0813,9.2347,9.3881,9.3881,9.3881,9.3881,9.3881,9.3881,9.3881,9.3881,9.3881,9.3881,9.3881,9.3881,9.3956,9.4768,9.6543,9.8838,10.0277,10.2884,10.5437,10.3754,10.2136,10.0818,10.0818,9.9791,9.8566,9.8566,9.8566,9.8566,9.8566,9.8566,9.8566,9.8566,9.8566,9.8566,9.8566,9.8566,9.8566,9.8566,9.8566,9.8566,9.8566,9.8566,9.8566,9.8566,9.8566,9.8566,9.8566,10.3914,10.7952,10.7952,10.8139,10.8288,10.8288,10.7728,10.2156,8.9414,8.8516,8.8629,8.8629,8.8629,8.8629,8.8629,8.8629,8.8629,8.8629,8.8629,8.8629,8.8629,8.8629,8.8629,8.8629,8.8629,8.8629,3.7454,3.696,3.6965,3.2778,3.1875,3.1033,2.7318,2.592,2.5023,2.3743,2.4176,0.0,0.0,0.0,2.7624,2.8423,0.0,3.3318,2.9164,3.6157,4.3066,4.6736,4.894,5.2426,5.8262,5.9643,6.3292,7.0701,6.8532,7.0896,8.0173,8.1833,8.416,8.7818,8.8068,8.958,9.2579,9.1919,9.2347,9.3881,9.3881,9.3881,9.3881,9.3881,9.3881,9.3881,9.3881,9.3881,9.3881,9.3881,9.3881,9.403,9.5348,9.6335,9.7106,9.8612,9.9763,10.0324,9.8632,9.8557,9.9202,9.9202,9.8903,9.8566,9.8566,9.8566,9.8566,9.8566,9.8566,9.8566,9.8566,9.8566,9.8566,9.8566,9.8566,9.8566,9.8566,9.8566,9.8566,9.8566,9.8566,9.8566,9.8566,9.8566,9.8566,9.8566,10.0062,10.1221,10.1221,10.5334,10.8288,10.8288,9.5388,8.5367,8.1748,8.5861,8.8629,8.8629,8.8629,8.8629,8.8629,8.8629,8.8629,8.8629,8.8629,8.8629,8.8629,8.8629,8.8629,8.8629,8.8629,8.8629,3.3838,3.2588,3.2515,2.9766,2.9171,2.8518,2.557,2.4452,2.4016,2.3783,0.0,0.0,0.0,0.0,0.0,0.0,3.5126,3.794,3.5258,4.2756,4.9582,5.2475,5.6585,6.0018,6.2207,6.4509,6.8257,7.411,7.126,7.2507,8.0095,8.2459,8.4817,8.751,8.9278,9.1063,9.2918,9.2668,9.2989,9.3881,9.3881,9.3881,9.3881,9.3881,9.3881,9.3881,9.3881,9.3881,9.3881,9.3881,9.3881,9.3977,9.4816,9.5136,9.5352,9.6936,9.7482,9.7332,9.6398,9.6659,9.7482,9.7482,9.7968,9.8566,9.8566,9.8566,9.8566,9.8566,9.8566,9.8566,9.8566,9.8566,9.8566,9.8566,9.8566,9.8566,9.8566,9.8566,9.8566,9.8566,9.8566,9.8566,9.8566,9.8566,9.8566,9.8566,9.8566,9.8566,9.8566,10.1857,10.5222,10.7989,9.0527,7.8719,7.8719,8.2271,8.5674,8.8479,8.8629,8.8629,8.8629,8.8629,8.8629,8.8629,8.8629,8.8629,8.8629,8.8629,8.8629,8.8629,8.8629,8.8629,3.1133,2.8427,2.8049,2.689,2.5634,2.4887,2.5779,0.0,2.4788,2.6678,0.0,2.803,3.0244,0.0,0.0,3.257,3.759,4.1599,4.2309,4.8085,5.3182,5.5728,6.4107,6.8729,6.6165,6.7188,7.0208,7.5572,7.2505,7.3008,7.9116,8.2249,8.435,8.546,8.961,9.1829,9.1829,9.3203,9.3881,9.3881,9.3881,9.3881,9.3881,9.3881,9.3881,9.3881,9.3881,9.3881,9.3881,9.3881,9.3881,9.387,9.3745,9.3582,9.3575,9.4989,9.5491,9.5454,9.5229,9.5304,9.5491,9.5491,9.6734,9.8267,9.8267,9.8379,9.8566,9.8566,9.8566,9.8566,9.8566,9.8566,9.8566,9.8566,9.8566,9.8566,9.8566,9.8566,9.8566,9.8566,9.8566,9.8566,9.8566,9.8566,9.8566,9.8566,9.8566,9.8566,9.8566,9.8566,10.0174,10.4474,8.9218,7.8719,7.8719,7.8719,8.1224,8.7133,8.8217,8.8629,8.8629,8.8629,8.8629,8.8629,8.8629,8.8629,8.8629,8.8629,8.8629,8.8629,8.8629,8.8629,2.8576,2.6449,2.557,2.5297,2.4278,2.4946,0.0,0.0,0.0,3.9172,4.1537,4.2771,4.3237,4.4626,4.6124,4.7528,5.264,5.4908,5.0453,5.9958,6.7555,6.8081,7.092,7.2607,7.2048,7.2972,7.4626,7.691,7.7323,7.7979,7.8978,8.3102,8.5844,8.6539,9.1043,9.3453,9.3453,9.3738,9.3881,9.3881,9.3881,9.3881,9.3881,9.3881,9.3881,9.3881,9.3881,9.3881,9.3881,9.3881,9.3881,9.387,9.3745,9.2936,9.1839,9.2038,9.208,9.1893,9.0527,9.0967,9.208,9.208,9.4108,9.651,9.651,9.7482,9.8566,9.8566,9.8566,9.8566,9.8566,9.8566,9.8566,9.8566,9.8566,9.8566,9.8566,9.8566,9.8566,9.8566,9.8566,9.8566,9.8566,9.8566,9.8566,9.8566,9.8566,9.8566,9.8566,9.8566,9.4902,8.545,8.1,7.8719,7.8719,7.8719,7.928,8.0551,8.5674,8.8629,8.8629,8.8629,8.8629,8.8629,8.8629,8.8629,8.8629,8.8629,8.8629,8.8629,8.8629,8.8629,2.5308,2.3907,2.3899,2.3899,2.3899,0.0,0.0,3.1031,3.3929,3.9891,4.2751,4.5159,4.8314,4.9692,5.0916,5.2672,5.7276,6.0911,6.1635,6.8016,7.262,7.262,7.3255,7.3978,7.4669,7.5183,7.6318,7.8308,7.9105,7.9429,7.923,8.3446,8.5695,8.5253,9.085,9.3524,9.2739,9.3488,9.3881,9.3881,9.3881,9.3881,9.3881,9.3881,9.3881,9.3845,9.306,9.2739,9.2739,9.2739,9.224,9.1493,9.0992,9.0519,9.0192,9.0105,9.0015,8.9848,8.9462,8.9574,9.0032,9.0884,9.2267,9.3734,9.4519,9.5342,9.6398,9.808,9.8566,9.8566,9.8566,9.8566,9.8566,9.8566,9.8566,9.8566,9.8566,9.8566,9.8566,9.8566,9.8566,9.8566,9.8566,9.8566,9.8566,9.8566,9.8566,9.8566,9.8566,9.2742,8.6086,7.9429,7.8719,7.8719,7.8719,7.8719,7.8719,7.8719,8.1822,8.5151,8.8516,8.8629,8.8629,8.8629,8.8629,8.8629,8.8629,8.8629,8.8629,8.8629,8.8629,8.8629,2.2345,2.1763,2.2685,2.319,2.4103,0.0,2.8701,3.1498,3.5445,4.246,4.5546,4.8453,5.3189,5.433,5.5045,5.6722,6.0235,6.4727,7.0285,7.2334,7.3353,7.3626,7.3945,7.4636,7.6106,7.6444,7.7499,7.9688,7.9845,7.9798,7.9678,8.3583,8.5196,8.3821,8.9767,9.2525,9.1544,9.2811,9.356,9.3881,9.3881,9.3881,9.3881,9.356,9.3453,9.3346,9.1776,9.1098,9.1098,9.1098,8.9993,8.8296,8.8144,8.818,8.8389,8.8666,8.8534,8.8381,8.9244,8.9082,8.8685,9.0184,9.0884,9.1407,9.2678,9.2828,9.3248,9.6622,9.8043,9.8566,9.8566,9.8566,9.8566,9.8566,9.8566,9.8566,9.8566,9.8566,9.8566,9.8566,9.8566,9.8566,9.8566,9.8566,9.8566,9.8566,9.8566,9.8566,9.8566,8.6946,7.8719,7.8719,7.8719,7.8719,7.8719,7.8719,7.8719,7.8719,7.8719,8.1112,8.6497,8.7955,8.8629,8.8629,8.8629,8.8629,8.8629,8.8629,8.8629,8.8629,8.8629,8.8629,2.0921,2.1076,2.1763,2.4074,2.4784,0.0,4.2319,4.5732,4.9417,6.1393,6.5071,6.5932,6.5359,6.6311,6.7263,6.7491,6.9112,7.0121,6.955,7.0789,7.2258,7.3495,7.48,7.6139,7.7578,7.8638,7.9755,8.0968,8.1052,8.0878,8.0388,8.3551,8.5098,8.4459,8.7872,9.0314,9.1544,9.1722,9.2525,9.3881,9.3881,9.3881,9.3845,9.2454,9.1794,9.1722,9.0135,8.9475,8.9475,8.9475,8.7727,8.5343,8.7905,8.7701,8.6054,8.7353,8.743,8.7001,8.7694,8.7851,8.7911,8.8676,8.9958,9.122,9.137,9.0369,8.9854,9.3136,9.6201,9.8566,9.8566,9.8566,9.8566,9.8566,9.8566,9.8566,9.8566,9.8566,9.8566,9.8566,9.8566,9.8566,9.8566,9.8566,9.8566,9.8566,9.8566,9.8566,9.8566,8.6946,7.8719,7.8719,7.8719,7.8719,7.8719,7.8719,7.8719,7.8719,7.8719,7.9055,7.9803,8.5525,8.8629,8.8629,8.8629,8.8629,8.8629,8.8629,8.8629,8.8629,8.8629,8.8629,1.9855,2.1047,2.2558,2.4423,0.0,0.0,4.0958,4.6228,5.1969,5.9866,6.2299,6.3798,6.6547,6.7534,6.8236,6.9069,7.0526,7.1305,7.068,7.1841,7.2992,7.3593,7.4932,7.6041,7.6633,7.7928,7.9117,8.0154,8.0863,8.0748,7.9625,8.1425,8.2402,8.2181,8.5881,8.8602,9.0171,9.1098,9.2347,9.3881,9.3881,9.3881,9.3881,9.3203,9.24,9.1473,8.9886,8.8691,8.7799,8.6871,8.5746,8.4671,8.5936,8.6057,8.5539,8.5778,8.6224,8.6719,8.6988,8.735,8.7792,8.8435,8.9106,8.9696,8.9696,8.9218,8.8919,9.0303,9.1686,9.3677,9.7557,9.8566,9.8566,9.8566,9.8566,9.8566,9.8566,9.8566,9.8566,9.8566,9.8566,9.8566,9.8566,9.8566,9.8566,9.8566,9.8566,9.8566,9.8566,8.6946,7.8719,7.8719,7.8719,7.8719,7.8719,7.8719,7.8719,7.8719,7.8719,7.8719,7.8719,8.1374,8.287,8.287,8.287,8.4777,8.8629,8.4739,8.4852,8.8629,8.8629,8.8629,1.8941,0.0,0.0,0.0,0.0,0.0,4.2396,4.815,5.406,5.865,5.9929,6.1681,6.6219,6.7062,6.7534,6.8992,7.0164,7.0877,7.0877,7.1808,7.2607,7.3025,7.4001,7.4791,7.5162,7.6501,7.7787,7.8847,7.9972,8.0253,7.939,7.9966,8.0329,8.0329,8.3342,8.5908,8.7906,8.9458,9.1277,9.3239,9.3667,9.3667,9.3239,9.2793,9.174,9.0153,8.8619,8.7299,8.6158,8.5033,8.4569,8.4567,8.4762,8.5012,8.5221,8.4917,8.5379,8.6142,8.6554,8.7025,8.7553,8.8352,8.8629,8.8629,8.8629,8.8629,8.8629,8.8629,8.8629,8.975,9.4565,9.6472,9.7146,9.7146,9.7146,9.7407,9.8342,9.808,9.7819,9.8417,9.8566,9.8566,9.8566,9.8566,9.8566,9.8566,9.8566,9.722,9.3518,8.4665,7.8719,7.8719,7.8719,7.8719,7.8719,7.8719,7.8719,7.8719,7.8719,7.8719,7.8719,7.8719,7.8719,7.8719,7.8719,8.1112,8.5899,8.1075,8.1187,8.5899,8.5899,8.5899,0.0,0.0,0.0,3.2238,3.6232,4.1201,5.2352,5.6175,5.8741,6.369,6.4719,6.5232,6.6745,6.7062,6.7534,6.8992,6.9233,6.9266,6.9266,6.9299,6.9879,7.1426,7.1623,7.2225,7.3617,7.503,7.6296,7.7355,7.8408,7.9394,8.0371,8.0105,7.9922,7.9922,8.0009,8.1575,8.4676,8.6265,8.8602,9.1615,9.3167,9.3096,9.158,9.0046,8.8512,8.6961,8.539,8.4676,8.4605,8.4569,8.4569,8.4617,8.5252,8.5133,8.4631,8.5267,8.5133,8.4827,8.621,8.673,8.6928,8.8241,8.8629,8.8629,8.8629,8.8629,8.8629,8.8629,8.8629,8.8666,8.889,9.1266,9.365,9.365,9.365,9.4556,9.7819,9.6846,9.5986,9.8155,9.8566,9.8566,9.8566,9.8566,9.8566,9.8566,9.8566,9.3892,8.0962,7.8943,7.8719,7.8719,7.8719,7.8719,7.8719,7.8719,7.8719,7.8719,7.8719,7.8719,7.8719,7.8719,7.8719,7.8719,7.8719,7.8831,7.9018,7.8831,7.8831,7.9018,7.9018,7.9018,2.2359,2.6391,3.0931,3.7849,4.4067,4.9503,5.3363,5.652,5.918,6.0833,6.1097,6.1739,6.403,6.4485,6.5218,6.7534,6.7898,6.8203,6.909,6.92,6.9419,6.9912,7.091,7.1722,7.2225,7.4429,7.5944,7.63,7.8897,7.9722,7.7981,7.9163,7.892,7.6867,7.7809,7.9843,8.2982,8.4552,8.6907,8.9993,9.1598,9.2043,9.1544,9.1027,8.9351,8.6854,8.6319,8.5515,8.4569,8.4569,8.4569,8.4567,8.4775,8.4762,8.4567,8.4827,8.4746,8.47,8.559,8.6278,8.6818,8.7703,8.8288,8.8629,8.8629,8.8629,8.8629,8.8629,8.8629,8.8629,8.8629,8.9443,9.0639,9.2135,9.3593,9.5089,9.6547,9.5416,9.4631,9.651,9.6585,9.6809,9.8305,9.8566,9.8566,9.8566,9.1013,8.3767,7.9317,7.8719,7.8719,7.8719,7.8719,7.8719,7.8719,7.8719,7.8719,7.8719,7.8719,7.8719,7.8719,7.8719,7.8719,7.8719,7.8719,7.8719,7.8719,7.8719,7.8719,7.8719,7.8719,7.8719,2.4934,2.9615,3.4587,4.2297,4.8592,5.3307,5.4647,5.7191,5.9162,5.8619,5.8818,5.98,6.2083,6.2903,6.3968,6.623,6.6952,6.7544,6.8393,6.8926,6.92,6.92,7.0098,7.069,7.069,7.2883,7.4495,7.4997,7.7532,7.8328,7.6657,7.7763,7.7428,7.5297,7.6204,7.7702,7.97,8.1805,8.4462,8.7566,8.8566,8.9351,8.9868,8.9315,8.796,8.6051,8.6051,8.548,8.4569,8.4569,8.4569,8.4569,8.4569,8.4569,8.4569,8.4569,8.4569,8.47,8.5619,8.6255,8.6867,8.7723,8.8297,8.8629,8.8629,8.8629,8.8629,8.8629,8.8629,8.8629,8.8629,8.8629,8.9003,9.0424,9.2322,9.3846,9.422,9.3435,9.3164,9.4818,9.5351,9.5912,9.7146,9.8006,9.8566,9.8566,8.7245,7.8719,7.8719,7.8719,7.8719,7.8719,7.8719,7.8719,7.8719,7.8719,7.8719,7.8719,7.8719,7.8719,7.8719,7.8719,7.8719,7.8719,7.8719,7.8719,7.8719,7.8719,7.8719,7.8719,7.8719,7.8719,2.6027,3.0726,3.6209,4.5922,5.014,5.2848,5.6441,5.8164,5.8618,5.7234,5.8066,5.9428,6.0792,6.2269,6.3682,6.5008,6.626,6.7093,6.7233,6.8315,6.9101,6.92,6.92,6.92,6.92,7.0614,7.2127,7.3551,7.4515,7.5498,7.6549,7.6107,7.5627,7.5186,7.513,7.5115,7.507,7.8057,8.1186,8.4319,8.4391,8.523,8.6604,8.5194,8.4498,8.4426,8.4426,8.4462,8.4569,8.4569,8.4569,8.4569,8.4569,8.4569,8.4569,8.4569,8.4569,8.4746,8.6101,8.6618,8.6892,8.8138,8.8586,8.8629,8.8629,8.8629,8.8629,8.8629,8.8629,8.8629,8.8629,8.8629,8.8629,8.8629,8.9845,9.1033,9.1033,9.1033,9.1482,9.3052,9.4669,9.5612,9.5164,9.6734,9.808,9.8267,8.7133,7.8719,7.8719,7.8719,7.8719,7.8719,7.8719,7.8719,7.8719,7.8719,7.8719,7.8719,7.8719,7.8719,7.8719,7.8719,7.8719,7.8719,7.8719,7.8719,7.8719,7.8719,7.8719,7.8719,7.8719,7.8719,3.0868,3.8344,4.4531,5.2958,5.4859,5.4841,5.582,5.5553,5.4961,5.4617,5.637,5.8033,5.841,6.0287,6.2245,6.3629,6.4146,6.5059,6.6975,6.7544,6.8135,6.908,6.92,6.92,6.92,7.0614,7.2127,7.3551,7.4603,7.5582,7.6515,7.6179,7.5391,7.4093,7.4058,7.3746,7.3046,7.4518,7.7189,8.1111,8.2269,8.3018,8.3446,8.4212,8.3927,8.2804,8.2804,8.3482,8.4569,8.4569,8.4569,8.4569,8.4569,8.4569,8.4569,8.4569,8.4569,8.46,8.4969,8.5815,8.6731,8.7072,8.7837,8.8629,8.8629,8.8629,8.8629,8.8629,8.8629,8.8629,8.8629,8.8629,8.8629,8.8629,8.8957,8.9293,8.9293,8.9293,8.9771,9.1444,9.208,9.25,9.2733,9.1882,9.1985,9.4407,8.5629,7.8719,7.8719,7.8719,7.8719,7.8719,7.8719,7.8719,7.8719,7.8719,7.8719,7.8719,7.8719,7.8719,7.8719,7.8719,7.8719,7.8719,7.8719,7.8719,7.8719,7.8719,7.8719,7.8719,7.8719,7.8719,2.9277,3.8365,4.6905,5.404,5.5284,5.4731,5.4731,5.4174,5.365,5.365,5.5255,5.6855,5.7437,5.9097,6.0802,6.221,6.2973,6.3865,6.5328,6.6548,6.7544,6.8248,6.8849,6.92,6.92,7.0,7.1118,7.2597,7.3262,7.401,7.4918,7.4754,7.4161,7.3098,7.308,7.2835,7.2295,7.3219,7.4821,7.7165,7.8528,7.9863,8.1218,8.1377,8.1001,8.02,8.0913,8.2091,8.3534,8.3534,8.3927,8.4569,8.4569,8.4569,8.4569,8.4569,8.4569,8.4583,8.4889,8.5757,8.6731,8.7012,8.7796,8.8629,8.8629,8.8629,8.8629,8.8629,8.8629,8.8629,8.8629,8.8629,8.8629,8.8629,8.8629,8.8629,8.8629,8.8629,8.8919,8.9845,9.0659,9.0771,8.9592,8.8134,8.7461,8.8312,8.1665,7.7103,7.8569,7.8719,7.8719,7.8719,7.8719,7.8719,7.8719,7.8719,7.8719,7.8719,7.8719,7.8719,7.8719,7.8719,7.8719,7.8719,7.8719,7.8719,7.8719,7.8719,7.8719,7.8719,7.8719,7.8719,2.553,3.4907,4.5231,5.1964,5.352,5.34,5.3625,5.365,5.365,5.365,5.4673,5.5985,5.7291,5.8487,5.971,6.1019,6.2272,6.316,6.3373,6.5303,6.6857,6.721,6.8248,6.9014,6.92,6.92,6.9846,7.1426,7.1337,7.1693,7.2817,7.2712,7.2451,7.2123,7.2073,7.2052,7.1886,7.28,7.3288,7.3305,7.4484,7.651,7.9221,7.7881,7.7361,7.7646,7.9007,8.0469,8.1948,8.2162,8.3018,8.4248,8.4462,8.4569,8.4569,8.4569,8.4569,8.465,8.519,8.5884,8.6643,8.7316,8.7964,8.8505,8.8603,8.8629,8.8629,8.8629,8.8629,8.8629,8.8629,8.8629,8.8629,8.8629,8.8629,8.8629,8.8629,8.8629,8.8629,8.8629,8.9808,8.992,8.6929,8.5516,8.3967,8.1535,7.7043,7.4906,7.7657,7.827,7.8473,7.8473,7.8473,7.8558,7.8711,7.8719,7.8719,7.8719,7.8719,7.8719,7.8719,7.8719,7.8719,7.8719,7.8719,7.8719,7.8719,7.8719,7.8719,7.8719,7.8719,7.8719,2.8574,3.4913,4.1363,5.1084,5.2678,5.2196,5.3375,5.365,5.365,5.365,5.4673,5.5985,5.7291,5.8487,5.971,6.1019,6.1447,6.1998,6.3213,6.376,6.4857,6.6999,6.7451,6.8012,6.9112,6.92,6.9846,7.1426,7.0329,7.0546,7.2784,7.179,7.1097,7.1026,7.1026,7.0605,6.9758,7.0767,7.1268,7.1288,7.308,7.4684,7.601,7.5761,7.6347,7.7575,7.7861,7.8844,8.0398,8.1698,8.2376,8.2733,8.4034,8.4569,8.4569,8.4569,8.4569,8.4586,8.47,8.5164,8.5842,8.6631,8.7305,8.7934,8.847,8.8629,8.8629,8.8629,8.8629,8.8629,8.8629,8.8629,8.8629,8.8629,8.8629,8.8629,8.8629,8.8629,8.8629,8.8629,8.8882,8.8882,8.8321,8.4723,8.0769,7.7246,7.5299,7.4193,7.4206,7.6006,7.728,7.728,7.728,7.7694,7.8658,7.8719,7.8719,7.8719,7.8719,7.8719,7.8719,7.8719,7.8719,7.8719,7.8719,7.8719,7.8719,7.8719,7.8719,7.8719,7.8719,7.8719,2.6776,3.3764,4.0643,4.5621,4.8638,5.0777,5.2222,5.2553,5.2696,5.3247,5.4,5.5167,5.7146,5.799,5.901,6.0932,6.1252,6.1474,6.2162,6.2892,6.3839,6.5084,6.6428,6.7521,6.8135,6.8782,6.9518,7.0263,6.9616,6.9724,7.0925,7.0314,6.9915,6.9915,6.9915,6.9695,6.9222,7.0229,7.0747,7.0767,7.2729,7.3909,7.4417,7.4417,7.5129,7.6347,7.6347,7.7239,7.8737,7.9486,8.0735,8.2305,8.3018,8.3855,8.4569,8.4569,8.4569,8.4569,8.4569,8.4981,8.5583,8.5954,8.6592,8.7282,8.7934,8.8128,8.8223,8.856,8.8629,8.8629,8.8629,8.8629,8.8629,8.8629,8.8629,8.8629,8.8629,8.8352,8.8128,8.8128,8.7874,8.7104,8.5393,8.173,7.7567,7.3234,7.2195,7.2426,7.3817,7.5027,7.5991,7.6601,7.703,7.7416,7.7791,7.8391,7.8719,7.8719,7.8719,7.8719,7.8719,7.8719,7.8719,7.8719,7.8719,7.8719,7.8719,7.8719,7.8719,7.8719,7.8719,7.8719,2.4509,3.1741,3.8958,4.0374,4.4482,4.8779,5.0891,5.0943,5.092,5.2043,5.2537,5.3514,5.6182,5.687,5.7875,6.041,6.1048,6.1252,6.1252,6.219,6.3026,6.3346,6.5184,6.6644,6.7186,6.818,6.8871,6.9178,6.92,6.92,6.92,6.92,6.92,6.92,6.92,6.92,6.92,7.0033,7.0435,7.0455,7.2205,7.3184,7.3373,7.3575,7.4106,7.4912,7.5115,7.5919,7.7111,7.7432,7.8987,8.1234,8.1575,8.2661,8.4034,8.4034,8.4248,8.4569,8.4569,8.4905,8.5322,8.5487,8.5926,8.6579,8.7259,8.7439,8.7607,8.826,8.8435,8.8461,8.8603,8.8629,8.8577,8.8297,8.8204,8.8232,8.8417,8.7924,8.7472,8.7639,8.7155,8.5666,8.2412,7.9148,7.5456,7.0985,6.9929,7.0488,7.2914,7.3841,7.4671,7.5702,7.6678,7.7162,7.6997,7.7819,7.8366,7.8366,7.8457,7.8542,7.8542,7.8542,7.8627,7.8719,7.8719,7.8719,7.8719,7.8719,7.8719,7.8719,7.8719,7.8719,2.4683,2.8796,3.3033,3.8824,4.2367,4.5576,4.9981,4.9237,4.8002,4.9422,4.9746,5.0606,5.332,5.4685,5.6306,5.8996,6.0438,6.1252,6.1252,6.1335,6.1917,6.3213,6.3581,6.4654,6.7022,6.7382,6.792,6.9101,6.92,6.92,6.92,6.92,6.92,6.92,6.92,6.92,6.92,6.9309,6.9341,6.9341,7.0483,7.152,7.2459,7.3305,7.3744,7.3859,7.4816,7.5312,7.5547,7.6968,7.7718,7.811,7.9542,8.104,8.2447,8.2447,8.3356,8.4569,8.4569,8.4583,8.4746,8.5343,8.5554,8.5771,8.6554,8.6806,8.6941,8.7586,8.7771,8.7894,8.8479,8.8629,8.8334,8.7179,8.6867,8.7012,8.7628,8.7248,8.6977,8.7564,8.7155,8.5666,8.2412,7.9148,7.5871,7.2579,7.0354,6.8966,6.8694,7.1204,7.3294,7.3865,7.5261,7.6359,7.6941,7.7086,7.7141,7.7141,7.7682,7.8015,7.8015,7.8015,7.823,7.8711,7.8719,7.8719,7.8719,7.8719,7.8719,7.8719,7.8719,7.8719,2.0229,2.4749,2.9523,3.2865,3.7077,4.1276,4.4641,4.5156,4.5682,4.8452,4.9222,4.953,5.0078,5.2336,5.4597,5.5912,5.8314,6.0349,6.1135,6.1252,6.1447,6.1998,6.2839,6.376,6.4806,6.6356,6.7474,6.7989,6.876,6.92,6.92,6.92,6.92,6.92,6.92,6.92,6.92,6.92,6.92,6.9222,7.0249,7.0987,7.1385,7.1754,7.2551,7.3676,7.4125,7.4641,7.5261,7.5883,7.6719,7.7611,7.8238,7.9435,8.0826,8.0826,8.1805,8.3161,8.3161,8.3748,8.4583,8.4856,8.4933,8.5091,8.5793,8.5982,8.6133,8.6867,8.7097,8.7155,8.7406,8.7472,8.735,8.6806,8.6681,8.6793,8.7012,8.6491,8.6065,8.6311,8.4315,8.1596,7.8409,7.5216,7.2013,6.8833,6.7591,6.7277,6.7927,6.9148,7.0786,7.2965,7.4043,7.5079,7.6287,7.6732,7.6974,7.6974,7.7195,7.721,7.6815,7.7141,7.7652,7.823,7.8239,7.842,7.8719,7.8719,7.8719,7.8719,7.8719,7.8719,1.7538,2.1739,2.6261,2.8329,3.265,3.7149,4.0193,4.1123,4.2571,4.6777,4.7389,4.7074,4.6858,4.9567,5.2186,5.3288,5.6744,5.9739,6.1048,6.1252,6.1252,6.1252,6.2137,6.2892,6.3346,6.5034,6.626,6.6644,6.753,6.8203,6.8594,6.8627,6.8782,6.92,6.92,6.92,6.92,6.92,6.92,6.9222,6.9949,7.0291,7.0311,7.0639,7.1506,7.2836,7.3424,7.4074,7.4785,7.51,7.5883,7.6846,7.6846,7.7845,7.9185,7.9185,8.0184,8.1504,8.1504,8.2554,8.3855,8.3855,8.4176,8.465,8.5102,8.5236,8.5403,8.612,8.6321,8.6411,8.6631,8.6371,8.6046,8.6046,8.6046,8.6115,8.6318,8.5764,8.5313,8.5502,8.2482,7.89,7.5761,7.2636,6.9461,6.6179,6.5715,6.6095,6.7187,6.733,6.8413,7.1152,7.2625,7.3869,7.4987,7.5939,7.6445,7.6445,7.6603,7.647,7.6041,7.6433,7.6997,7.7669,7.7642,7.7828,7.8182,7.8391,7.8486,7.8494,7.8658,7.8719,1.8136,2.0299,2.2752,2.6639,3.0,3.3448,3.7734,3.7716,3.8368,4.381,4.3321,4.2295,4.3731,4.6201,4.8955,5.1688,5.614,5.9739,6.1048,6.1252,6.1252,6.1252,6.1252,6.1807,6.324,6.3396,6.3943,6.5228,6.5359,6.592,6.7186,6.7256,6.7875,6.9178,6.92,6.92,6.92,6.92,6.92,6.92,6.9222,6.9222,6.9265,7.0291,7.08,7.0887,7.2818,7.3659,7.3777,7.48,7.5226,7.5241,7.5241,7.6204,7.7575,7.7575,7.8559,7.9934,7.9934,8.0933,8.2233,8.2233,8.3284,8.4569,8.455,8.455,8.4697,8.5337,8.5561,8.5735,8.6502,8.5641,8.4567,8.4567,8.4567,8.4762,8.5397,8.5044,8.4762,8.5397,8.2482,7.89,7.5761,7.2636,6.9461,6.6179,6.5715,6.5715,6.5715,6.5715,6.6309,6.7936,7.0974,7.2894,7.2929,7.4343,7.5256,7.5256,7.5735,7.5991,7.6015,7.5991,7.631,7.6974,7.6986,7.6986,7.6997,7.7632,7.7949,7.7968,7.8478,7.8719,1.6573,1.8813,2.1345,2.4561,2.6964,2.9844,3.4779,3.7556,3.9371,4.0201,4.111,4.1452,4.0396,4.2962,4.6096,4.8849,5.3347,5.7287,5.9573,6.067,6.1252,6.1252,6.1252,6.1391,6.1862,6.2785,6.3554,6.3969,6.4806,6.5477,6.592,6.6786,6.7451,6.7852,6.8738,6.92,6.92,6.92,6.92,6.92,6.92,6.92,6.9222,6.9557,7.0062,7.0787,7.1424,7.2424,7.3676,7.4025,7.4594,7.5226,7.5226,7.5526,7.5954,7.5954,7.6953,7.8309,7.8309,7.9343,8.0647,8.0647,8.1682,8.2947,8.2947,8.3713,8.4583,8.4792,8.4872,8.4937,8.5169,8.4889,8.4819,8.5908,8.5337,8.4886,8.6172,8.5467,8.4009,8.2049,7.8979,7.5689,7.2565,6.9354,6.6893,6.5858,6.5715,6.5715,6.5715,6.5715,6.5894,6.638,6.8306,7.046,7.2701,7.3329,7.4063,7.5154,7.5369,7.5464,7.5464,7.5464,7.5721,7.6285,7.6297,7.6518,7.6974,7.7199,7.7521,7.7949,7.8106,7.8395,1.5766,1.8144,2.0618,2.3031,2.3934,2.5674,3.1157,3.3952,3.5609,3.641,3.7752,3.8357,3.6918,3.9301,4.2454,4.5477,4.9952,5.4143,5.7189,5.9201,6.0343,6.0343,6.0855,6.1252,6.1252,6.2025,6.2542,6.2542,6.3313,6.4017,6.4557,6.5353,6.6236,6.721,6.8034,6.8694,6.92,6.92,6.92,6.92,6.92,6.92,6.92,6.92,6.9557,7.0187,7.0564,7.1429,7.2622,7.3373,7.4042,7.4672,7.507,7.5226,7.5226,7.5226,7.5847,7.6668,7.6668,7.7702,7.9007,7.9007,8.0077,8.1432,8.2055,8.2911,8.382,8.4391,8.4569,8.4569,8.4569,8.4569,8.4819,8.5765,8.5729,8.5551,8.5908,8.5694,8.4338,8.0612,7.7366,7.4242,7.1116,6.7856,6.5715,6.5715,6.5715,6.5715,6.5715,6.5715,6.5715,6.5715,6.6594,6.8199,7.0817,7.2201,7.3308,7.4277,7.4884,7.5226,7.5226,7.5226,7.5391,7.5694,7.5707,7.5889,7.6331,7.6506,7.6826,7.7195,7.7443,7.7903,1.5543,1.7954,2.0179,2.193,2.1438,2.1998,2.7496,2.8182,2.873,3.2469,3.3367,3.3418,3.3093,3.529,3.8338,4.2048,4.6254,5.0312,5.3923,5.6567,5.8278,5.8617,5.9943,6.0935,6.1194,6.1252,6.1252,6.1252,6.1252,6.1807,6.316,6.329,6.4476,6.6904,6.714,6.7852,6.9036,6.9178,6.92,6.92,6.92,6.92,6.92,6.92,6.92,6.9265,7.0229,7.0666,7.0907,7.2712,7.3542,7.3777,7.4754,7.5181,7.5226,7.5226,7.5226,7.5226,7.5226,7.6168,7.7397,7.7397,7.8452,8.0005,8.1448,8.2055,8.2519,8.3962,8.4391,8.4426,8.4498,8.4569,8.4605,8.4854,8.5908,8.6568,8.5354,8.5836,8.5213,8.0612,7.7116,7.3885,7.0746,6.7713,6.5715,6.5715,6.5715,6.5715,6.5715,6.5715,6.5715,6.5715,6.5715,6.6273,6.7744,7.0746,7.2594,7.2737,7.4221,7.5098,7.5226,7.5226,7.5226,7.5226,7.5226,7.5226,7.5226,7.5707,7.5975,7.6041,7.6614,7.7227,1.4807,1.6211,1.7742,2.0046,2.3087,2.6055,2.803,2.9299,2.9647,2.8052,2.9162,2.9767,2.7756,3.0732,3.5696,4.2527,4.3962,4.5756,5.015,5.0826,5.2237,5.5925,5.6679,5.8056,6.0964,6.1252,6.1252,6.1252,6.1252,6.1363,6.1696,6.2758,6.3629,6.4249,6.6211,6.7428,6.7705,6.8694,6.92,6.92,6.92,6.92,6.92,6.92,6.92,6.9222,6.9471,7.0033,7.0787,7.1249,7.2315,7.3676,7.396,7.4547,7.5226,7.5226,7.5226,7.5226,7.5226,7.5455,7.5776,7.5776,7.6846,7.8166,7.8538,8.0307,8.2305,8.2661,8.2768,8.3018,8.4248,8.4569,8.5176,8.7549,8.7513,8.746,8.9493,8.6426,8.2269,7.8773,7.4599,7.0603,6.7392,6.6215,6.5715,6.5715,6.5715,6.5715,6.5715,6.5715,6.5715,6.5715,6.5715,6.5858,6.625,6.8056,6.9733,7.1045,7.2579,7.3971,7.5154,7.5226,7.5226,7.5226,7.5226,7.5226,7.5226,7.5347,7.5605,7.5991,7.6146,7.6566,1.41,1.619,1.8258,1.9173,2.1372,2.3496,2.4333,2.5243,2.5481,2.4002,2.4728,2.5459,2.5016,2.7223,3.0892,3.6274,3.9599,4.2882,4.6852,4.9038,5.152,5.5079,5.6468,5.8121,6.0625,6.1088,6.1252,6.1252,6.1252,6.1252,6.1252,6.1972,6.2677,6.3343,6.473,6.6042,6.7233,6.7335,6.7747,6.8293,6.8293,6.8627,6.92,6.92,6.92,6.92,6.92,6.9535,7.0062,7.0578,7.1385,7.2406,7.3322,7.4009,7.4578,7.5055,7.5226,7.5226,7.5226,7.5226,7.5226,7.5226,7.5812,7.6632,7.7361,7.8753,8.0378,8.1805,8.1698,8.1504,8.3089,8.3482,8.4105,8.6496,8.7549,8.8209,8.9208,8.6193,8.2178,7.8289,7.3793,6.9533,6.625,6.5715,6.5715,6.5715,6.5715,6.5715,6.5715,6.5715,6.5715,6.5715,6.5715,6.5715,6.5715,6.6487,6.7664,6.9305,7.021,7.1709,7.4078,7.4848,7.5226,7.5226,7.5226,7.5226,7.5226,7.5226,7.5355,7.5646,7.5646,7.5969,1.373,1.6845,1.9647,1.8853,1.8778,1.9023,1.9666,1.9818,2.0008,2.0653,2.0804,2.1407,2.3439,2.4621,2.6027,2.824,3.4576,4.0376,4.3724,4.7947,5.1621,5.4107,5.6326,5.8337,6.0056,6.0598,6.0997,6.1223,6.1252,6.1252,6.1252,6.1252,6.1779,6.3,6.3236,6.4455,6.6644,6.5576,6.565,6.6952,6.6952,6.7668,6.8926,6.8926,6.9014,6.92,6.92,6.92,6.9287,7.0145,7.0639,7.0893,7.2569,7.3407,7.3793,7.4656,7.5085,7.5226,7.5226,7.5226,7.5226,7.5226,7.5226,7.549,7.681,7.7361,7.811,8.0771,8.054,7.9898,8.1468,8.2055,8.2661,8.4498,8.7121,8.8798,8.7211,8.5266,8.2464,7.7753,7.3043,6.8926,6.6179,6.5715,6.5715,6.5715,6.5715,6.5715,6.5715,6.5715,6.5715,6.5715,6.5715,6.5715,6.5715,6.5715,6.6273,6.7566,6.7887,6.9412,7.2415,7.4042,7.4991,7.5226,7.5226,7.5226,7.5226,7.5226,7.5226,7.5226,7.5226,7.5449,1.4384,1.678,1.8834,1.8702,1.9249,1.9666,1.9004,1.8872,1.8891,1.9024,1.9043,1.959,2.1348,2.3214,2.4812,2.5856,3.0869,3.6119,4.0358,4.2342,4.504,4.9452,5.1183,5.3869,5.8687,5.9214,5.9826,6.1138,6.1252,6.1252,6.1252,6.1252,6.1307,6.1558,6.2731,6.3581,6.3969,6.376,6.4327,6.5601,6.5601,6.6284,6.7544,6.7544,6.8157,6.92,6.92,6.92,6.9222,6.9363,6.997,7.0787,7.1072,7.2205,7.3676,7.3843,7.4464,7.5226,7.5226,7.5226,7.5226,7.5226,7.5226,7.5261,7.5526,7.6489,7.7646,7.8146,7.811,7.8273,7.9827,8.1218,8.2947,8.5819,8.7941,8.8798,8.7211,8.3572,7.9221,7.4506,6.9725,6.6286,6.5787,6.5715,6.5715,6.5715,6.5715,6.5715,6.5715,6.5715,6.5715,6.5715,6.5715,6.5715,6.5715,6.5715,6.5787,6.6036,6.7294,6.8899,7.0831,7.2437,7.3864,7.5205,7.5226,7.5226,7.5226,7.5226,7.5226,7.5226,7.5226,7.5265,1.4143,1.6042,1.8079,1.9141,1.9723,1.9894,1.9495,1.9401,1.9249,1.8759,1.9061,1.9477,1.9762,2.1353,2.3093,2.4602,2.7895,3.1759,3.6049,4.06,4.5194,4.979,5.157,5.365,5.6695,5.8158,5.9189,5.9913,6.0742,6.1252,6.1252,6.1252,6.1252,6.1252,6.1862,6.2217,6.2217,6.2217,6.2889,6.4249,6.4249,6.5303,6.7256,6.7256,6.7998,6.92,6.92,6.92,6.92,6.92,6.9492,6.9991,7.0557,7.1307,7.215,7.2712,7.3236,7.3629,7.3629,7.3979,7.4464,7.5055,7.5226,7.5226,7.5226,7.574,7.6275,7.6275,7.6275,7.6668,7.8238,7.9165,8.0699,8.4659,8.6835,8.7549,8.5944,8.2609,7.8507,7.3807,6.9011,6.5715,6.5715,6.5715,6.5715,6.5715,6.5715,6.5715,6.5715,6.5715,6.5715,6.5715,6.5715,6.5715,6.5715,6.5715,6.5715,6.5715,6.6393,6.7521,6.9126,7.0746,7.2365,7.3935,7.4813,7.5226,7.5226,7.5226,7.5226,7.5226,7.5226,7.5226,1.4658,0.0,1.8891,2.098,2.1054,2.0616,0.0,2.0141,1.9495,1.8796,1.923,1.9552,1.9061,2.0198,2.1773,2.3598,2.5628,2.8419,3.2605,3.8418,4.3975,4.8668,5.0971,5.2726,5.4158,5.6352,5.8039,5.8837,5.9999,6.0827,6.1223,6.1252,6.1252,6.1252,6.1252,6.1252,6.1252,6.1252,6.1779,6.2865,6.2865,6.4094,6.6356,6.6667,6.7498,6.876,6.9058,6.92,6.92,6.92,6.92,6.9287,7.0062,7.0557,7.0847,7.1655,7.2073,7.2329,7.2329,7.2764,7.3458,7.4273,7.4692,7.4846,7.4846,7.4707,7.4598,7.4785,7.4846,7.5177,7.6658,7.729,7.8646,8.2999,8.4374,8.4357,8.3177,8.0164,7.6403,7.2044,6.8226,6.5715,6.5715,6.5715,6.5715,6.5715,6.5715,6.5715,6.5715,6.5715,6.5715,6.5715,6.5715,6.5715,6.5715,6.5715,6.5715,6.5715,6.5715,6.6416,6.7958,6.9269,7.0902,7.2844,7.4078,7.4848,7.5226,7.5226,7.5226,7.5226,7.5226,7.5226,0.0,2.0098,2.2755,2.5182,2.4055,2.237,2.237,2.0482,0.0,1.8683,1.8721,1.9004,1.978,2.0615,2.1529,2.2513,2.4312,2.7096,3.1389,3.3381,3.6423,4.1868,4.524,4.8169,5.0811,5.296,5.5509,5.869,5.8984,5.9682,6.1138,6.1252,6.1252,6.1252,6.1252,6.1252,6.1252,6.1252,6.1279,6.1391,6.1391,6.219,6.3682,6.4908,6.6163,6.7474,6.8694,6.92,6.92,6.92,6.92,6.9222,6.9287,6.9907,7.0747,7.0827,7.1482,7.2329,7.2329,7.2331,7.2439,7.2477,7.308,7.3793,7.3793,7.3184,7.2675,7.3525,7.3793,7.4009,7.5116,7.6454,7.8396,8.1627,8.0271,7.8217,7.8075,7.4456,7.021,6.6857,6.5929,6.5715,6.5715,6.5715,6.5715,6.5715,6.5715,6.5715,6.5715,6.5715,6.5715,6.5715,6.5715,6.5715,6.5715,6.5715,6.5715,6.5715,6.5715,6.6416,6.7958,6.8136,6.9697,7.2844,7.3022,7.3757,7.5226,7.5226,7.5226,7.5226,7.5226,7.5226,2.0337,2.2697,2.4969,2.6561,2.5109,2.3251,2.3251,2.1318,1.9344,1.8778,1.9117,1.9438,1.9211,1.9894,2.092,2.2311,2.3767,2.5681,2.8363,3.1583,3.511,3.913,4.4923,4.9289,5.1022,5.2813,5.4368,5.5664,5.6713,5.8039,5.9682,5.9797,6.0229,6.1166,6.1252,6.1252,6.1252,6.1252,6.1252,6.1252,6.1252,6.2,6.3399,6.3865,6.4806,6.6114,6.7428,6.7989,0.0,6.8881,6.92,6.92,6.92,6.9449,6.978,6.978,7.0041,7.0381,7.0381,7.0793,7.1346,7.1346,7.2017,7.2817,7.2817,7.2129,7.1559,7.2549,7.2817,7.3046,7.3993,7.4694,7.6324,8.1105,7.9094,7.6382,7.7361,7.3849,6.9568,6.6357,6.5715,6.5715,6.5715,6.5715,6.5715,6.5715,6.5715,6.5715,6.5715,6.5715,6.5715,6.5715,6.5715,6.5715,6.5715,6.5715,6.5715,6.5715,6.5715,6.5965,6.6558,6.7508,6.9126,7.1402,7.238,7.365,7.5226,7.5226,7.5226,7.5226,7.5226,7.5226,2.2981,2.5441,2.7946,2.9427,2.7954,2.5963,2.5451,2.3175,2.0805,1.9382,1.959,1.9837,1.9211,1.9799,2.0844,2.2311,2.343,2.4927,2.7285,3.076,3.4218,3.7273,4.3007,4.7447,4.9255,5.1641,5.3327,5.3818,5.4939,5.656,5.8779,5.8896,5.9392,6.0457,6.0997,6.1252,6.1252,6.1252,6.1252,6.1252,6.1252,6.1723,6.2704,6.316,6.3865,6.4756,6.609,6.6644,6.6739,6.8067,6.8572,6.8616,6.9036,6.92,6.92,6.92,6.92,6.92,6.92,6.9652,7.027,7.027,7.0733,7.1405,7.1731,7.143,7.1138,7.1842,7.1953,7.2017,7.2993,7.3236,7.4351,7.8777,7.5503,7.1986,7.4032,7.0461,6.6296,6.4551,6.4593,6.4988,6.5271,6.5326,6.5393,6.5653,6.5715,6.5715,6.5715,6.5715,6.5715,6.5715,6.5715,6.5715,6.5715,6.5715,6.5715,6.5715,6.5715,6.5715,6.5715,6.6737,6.8078,6.9733,7.1331,7.2936,7.4492,7.4991,7.5226,7.5226,7.5226,7.5226,2.511,2.8448,3.1943,3.4382,3.3156,3.0867,2.9128,2.6134,2.3021,2.0521,2.0027,2.0027,2.0027,2.0673,2.1489,2.2387,2.3216,2.5054,2.88,3.0819,3.293,3.5832,3.858,4.1462,4.4625,4.8905,5.2134,5.369,5.3818,5.529,5.869,5.8837,5.8867,5.8896,6.04,6.1223,6.1252,6.1252,6.1252,6.1252,6.1252,6.1252,6.1251,6.2704,6.3373,6.3452,6.4761,6.5309,6.5409,6.6723,6.7297,6.7414,6.8704,6.9211,6.9211,6.9233,6.9233,6.9233,6.9233,6.9233,6.9233,6.92,6.92,6.9417,7.0468,7.1152,7.1524,7.1557,7.1167,7.0987,7.2033,7.2292,7.2708,7.426,6.8766,6.4034,6.7163,6.3013,5.9163,6.072,6.2208,6.3463,6.4352,6.4519,6.4778,6.5561,6.5666,6.5666,6.5666,6.5715,6.5715,6.5715,6.5715,6.5715,6.5715,6.5715,6.5715,6.5715,6.5715,6.5715,6.5666,6.5666,6.6438,6.798,6.9683,7.1316,7.2865,7.4441,7.5211,7.5211,7.5226,7.5226,2.7529,3.113,3.4762,3.4948,3.4017,3.2149,2.8618,2.6172,2.3789,2.0654,2.0027,2.0027,2.0027,2.0673,2.1489,2.2387,2.4207,2.6086,2.7741,3.0231,3.3191,3.6721,3.9199,4.2374,4.68,4.9076,5.0827,5.2117,5.2192,5.3133,5.5227,5.5321,5.6438,5.8837,5.9363,6.0114,6.1223,6.1252,6.1252,6.1252,6.1252,6.1252,6.1252,6.1668,6.2361,6.3326,6.4614,6.5718,6.665,6.804,6.8616,6.877,7.0171,7.0679,7.0831,7.1934,7.2344,7.2213,7.1183,7.1512,7.1983,6.989,6.9945,7.1086,7.2388,7.221,7.1732,7.2762,7.1407,6.9969,7.1395,7.1493,7.1778,7.409,6.8766,6.4034,6.7163,6.3013,5.9163,6.072,6.2208,6.3257,6.3526,6.3573,6.3651,6.3898,6.4469,6.4898,6.4898,6.5339,6.5715,6.5715,6.5715,6.5715,6.5715,6.5715,6.5715,6.5715,6.5715,6.5455,6.4891,6.4898,6.5323,6.6234,6.7735,6.9267,7.0868,7.3072,7.4142,7.4158,7.4862,7.5226,3.0158,3.3524,3.6659,3.6488,3.6105,3.4549,3.0012,2.7696,2.5385,2.1319,2.0236,2.0122,2.0426,2.1167,2.2345,2.4188,2.5741,2.748,2.9661,3.1776,3.4222,3.7161,3.9886,4.3004,4.6838,4.8402,4.9784,5.1388,5.151,5.1927,5.2865,5.4361,5.587,5.745,5.8184,5.8969,5.992,6.0198,6.0544,6.1002,6.1664,6.2007,6.2036,6.253,6.2937,6.3256,6.4557,6.5577,6.6405,6.7787,6.8365,6.8501,6.9935,7.0478,7.0688,7.2204,7.2751,7.2692,7.247,7.2959,7.3363,7.1588,7.2005,7.3409,7.4241,7.3518,7.2686,7.411,7.24,7.0329,7.1272,7.0854,7.0265,7.0674,6.6357,6.2379,6.3128,5.9889,5.7302,5.889,6.0331,6.1601,6.2465,6.2617,6.2733,6.3112,6.3636,6.4129,6.4504,6.4933,6.5339,6.5653,6.5099,6.47,6.47,6.47,6.47,6.47,6.47,6.4484,6.4024,6.4008,6.4195,6.4565,6.6046,6.7527,6.9042,7.1153,7.2693,7.3676,7.4302,7.4851,3.2612,3.5443,3.7697,3.8366,3.8706,3.7472,3.2351,3.0069,2.7551,2.2381,2.0729,2.0464,2.1185,2.2231,2.3945,2.6829,2.7757,2.9406,3.3163,3.4501,3.5708,3.7318,4.0243,4.3011,4.5327,4.6925,4.8819,5.1192,5.1339,5.1388,5.151,5.485,5.6338,5.5431,5.691,5.7798,5.8059,5.8653,5.9468,6.0589,6.2261,6.3082,6.3169,6.4476,6.4536,6.3605,6.4769,6.535,6.5586,6.6733,6.7219,6.7391,6.8815,6.9389,6.9578,7.1011,7.152,7.1753,7.3154,7.3735,7.3824,7.3734,7.4536,7.559,7.559,7.4581,7.3758,7.5192,7.3547,7.136,7.1491,7.0361,6.8543,6.5935,6.2931,5.9859,5.6983,5.5138,5.4512,5.6044,5.7539,5.9196,6.1309,6.1704,6.1985,6.2817,6.3014,6.3352,6.4189,6.4352,6.4692,6.5379,6.4094,6.3176,6.3176,6.3176,6.3176,6.3176,6.3176,6.3144,6.3063,6.3063,6.3014,6.2932,6.4455,6.5913,6.7182,6.8969,7.1013,7.3214,7.3421,7.4077,3.3081,3.5443,3.7564,3.7719,3.8781,3.8077,3.1682,3.0496,2.9137,2.3412,2.2121,2.2063,2.2214,2.4507,2.6399,2.6475,3.0363,3.3226,3.2828,3.4561,3.6317,3.7361,3.8154,4.0134,4.4102,4.4807,4.641,4.989,5.0134,5.0524,5.1437,5.3049,5.441,5.5373,5.5743,5.6972,5.9132,5.9281,5.9507,5.9755,6.168,6.2576,6.2635,6.4316,6.5555,6.6253,6.6515,6.7212,6.8171,6.8484,6.8579,6.8733,7.0154,7.0741,7.0885,7.2448,7.3004,7.3066,7.3422,7.4252,7.5035,7.4019,7.3798,7.3993,7.3993,7.2997,7.2136,7.3584,7.189,6.9978,7.1206,7.0361,6.9036,6.8411,6.4377,5.9859,5.6983,5.5138,5.4512,5.6044,5.7539,5.9008,6.0616,6.0885,6.096,6.1131,6.1702,6.2176,6.2381,6.3012,6.3526,6.3713,6.34,6.3176,6.3176,6.3176,6.3176,6.3176,6.3176,6.2833,6.2159,6.209,6.1826,6.1187,6.2635,6.3518,6.3851,6.7251,6.9165,6.975,7.1707,7.2711,3.4817,3.6427,3.7716,3.8515,3.937,3.8781,3.4004,3.2992,3.1522,2.6012,2.4587,2.4055,2.3235,2.547,2.7814,2.9008,3.2468,3.4952,3.4876,3.5601,3.6187,3.6312,3.7018,3.8935,4.2559,4.3652,4.5489,4.8778,4.9027,4.9515,5.0598,5.1721,5.3378,5.5693,5.5753,5.6446,5.7897,5.8187,5.8693,5.9337,6.1088,6.2418,6.3396,6.4901,6.612,6.7097,6.7737,6.8375,6.9015,6.9015,6.9015,6.9078,6.9835,7.0115,7.0329,7.1795,7.2347,7.2456,7.3231,7.3935,7.4476,7.3798,7.27,7.1732,7.2331,7.11,6.9783,7.1193,6.9554,6.7664,6.9187,6.8457,6.7644,6.8987,6.4374,5.969,5.9483,5.6077,5.3445,5.4974,5.6454,5.7933,5.938,6.0202,6.0648,6.0648,6.1016,6.1394,6.1775,6.1896,6.1983,6.1983,6.1983,6.1983,6.1983,6.1983,6.1983,6.1983,6.1983,6.1753,6.1282,6.1264,6.1057,6.0648,6.1372,6.2115,6.2773,6.4817,6.6778,6.8642,6.9924,7.1164,3.6556,3.7526,3.7925,3.9635,4.0053,3.9313,3.6583,3.5544,3.3795,2.8856,2.7234,2.619,2.465,2.6166,2.8515,3.1149,3.3264,3.5061,3.6447,3.6128,3.5544,3.5047,3.6247,3.8058,4.0653,4.2434,4.4558,4.7294,4.7596,4.8166,4.9418,5.0402,5.2405,5.5531,5.5824,5.6117,5.6483,5.7009,5.7854,5.8902,6.0551,6.2129,6.3742,6.504,6.6101,6.6955,6.805,6.8701,6.9015,6.9015,6.9015,6.9015,6.9015,6.9015,6.9143,7.033,7.0785,7.0995,7.255,7.291,7.2635,7.2164,7.0713,6.9316,7.0152,6.8837,6.7325,6.8737,6.7285,6.5676,6.7325,6.6734,6.6232,6.8478,6.3908,5.9566,6.1647,5.6722,5.2311,5.3756,5.5303,5.68,5.8244,5.9709,6.0648,6.0648,6.0648,6.0866,6.1523,6.1039,6.0648,6.0648,6.0648,6.0648,6.0648,6.0648,6.0648,6.0648,6.0648,6.0648,6.0648,6.0648,6.0648,6.0648,6.0648,6.124,6.2411,6.2674,6.4434,6.763,6.8114,6.9458,3.6568,3.7526,3.7925,3.9635,4.0053,3.9197,3.5863,3.5597,3.4768,3.0477,2.8987,2.8114,2.7113,2.7821,2.8474,2.8136,3.0732,3.2873,3.31,3.3713,3.434,3.4914,3.5203,3.6024,3.787,3.9592,4.1712,4.4472,4.5093,4.6234,4.8313,4.8556,5.015,5.3381,5.4347,5.5763,5.7666,5.7781,5.7893,5.8115,5.9888,6.0889,6.12,6.2956,6.4634,6.6215,6.6384,6.7434,6.9015,6.9015,6.9015,6.9015,6.9015,6.9015,6.9015,6.9238,6.9271,6.9492,7.0935,7.0714,6.9392,6.7005,6.6768,6.7209,6.6268,6.5717,6.57,6.703,6.637,6.59,6.8324,6.7978,6.7056,6.7448,6.3815,6.0041,5.9388,5.5372,5.2311,5.3756,5.5303,5.68,5.8244,5.9709,6.0648,6.0648,6.0648,6.0686,6.0786,6.0724,6.0648,6.0648,6.0648,6.0648,6.0648,6.0648,6.0648,6.0648,6.0648,6.0648,6.0648,6.0648,6.0648,6.0648,6.0648,6.0747,6.0944,6.2181,6.3049,6.3616,6.6104,6.7442,3.5327,3.6789,3.7925,3.9635,3.9655,3.8877,3.738,3.7016,3.5976,3.2764,3.1085,2.9622,2.7757,2.893,3.004,2.966,3.2802,3.5104,3.4597,3.4895,3.5118,3.5023,3.4971,3.5658,3.7373,3.9052,4.0947,4.3089,4.3446,4.4392,4.6277,4.8093,4.9735,5.115,5.4006,5.5946,5.6922,5.7593,5.791,5.7948,5.8747,5.9668,6.0717,6.2548,6.4377,6.6087,6.6476,6.7106,6.7883,6.7124,6.6834,6.6834,6.6834,6.6834,6.6834,6.6834,6.6834,6.6927,6.7564,6.6917,6.5737,6.5268,6.4507,6.3954,6.4856,6.4596,6.429,6.5589,6.5602,6.5481,6.6593,6.6471,6.6454,6.7983,6.3306,5.8796,5.9895,5.4936,5.045,5.1089,5.2871,5.4932,5.6941,5.8492,5.9709,6.0531,6.0648,6.0648,6.0648,6.0648,6.0648,6.0648,6.0648,6.0648,6.0648,6.0648,6.0648,6.0648,6.0648,6.0648,6.0648,6.0648,6.0648,6.0648,6.0648,6.0648,6.0648,6.1273,6.2016,6.2839,6.4089,6.5088,3.3846,3.5593,3.7032,3.895,3.8914,3.8345,3.8081,3.7776,3.688,3.4568,3.2947,3.1275,2.9102,2.9936,3.0962,3.0962,3.3555,3.5498,3.5241,3.5222,3.518,3.499,3.4971,3.548,3.676,3.8388,3.9931,4.1192,4.233,4.3349,4.4247,4.7784,4.9759,4.9759,5.3678,5.5922,5.6153,5.7349,5.7764,5.7495,5.7495,5.8091,5.9155,6.0489,6.2128,6.389,6.4368,6.5104,6.5847,6.4865,6.449,6.452,6.4939,6.485,6.455,6.4969,6.5118,6.4942,6.3889,6.3106,6.2703,6.3779,6.3024,6.2036,6.3634,6.3431,6.3024,6.4652,6.4885,6.4856,6.5845,6.5845,6.5883,6.691,6.2175,5.7692,5.855,5.3606,4.8988,4.8988,5.0497,5.2458,5.4669,5.6481,5.8149,5.9492,5.9969,6.0081,5.9793,6.0022,6.0211,6.0211,6.0495,6.0648,6.0648,6.0648,6.0648,6.0648,6.0648,6.0648,6.0648,6.0648,6.0648,6.0648,6.0648,6.0648,6.0648,6.0648,6.1175,6.2247,6.2608,6.3345,3.2548,3.3954,3.46,3.7051,3.7621,3.7339,3.6507,3.6941,3.7051,3.5275,3.4264,3.3403,3.238,3.1008,3.0002,3.0002,3.0173,3.0875,3.2437,3.2646,3.3245,3.4801,3.4971,3.5037,3.5103,3.665,3.7674,3.777,4.1666,4.3636,4.2747,4.7194,4.9759,4.9759,5.2981,5.5166,5.619,5.7349,5.7373,5.6287,5.6287,5.5787,5.4929,5.5035,5.6088,5.7778,5.7828,5.9717,6.2838,6.2723,6.2723,6.2878,6.449,6.4129,6.2909,6.455,6.5118,6.4561,6.0586,5.9914,6.0826,6.129,6.2181,6.2878,6.1746,6.1397,6.1862,6.442,6.4216,6.4129,6.7851,6.7912,6.608,6.2499,6.019,5.7496,5.2832,5.0324,4.8988,4.8988,4.9088,4.9661,5.113,5.3608,5.5763,5.6978,5.8193,5.8596,5.7465,5.8294,5.9019,5.9019,5.9983,6.0648,6.0648,6.0648,6.0648,6.0648,6.0648,6.0648,6.0648,6.0648,6.0648,6.0648,6.0648,6.0648,6.0648,6.0648,6.0681,6.078,6.2148,6.2839,2.948,3.1739,3.3549,3.6014,3.664,3.6564,3.6227,3.6014,3.5726,3.5104,3.389,3.2847,3.2513,3.1963,3.1577,3.1577,3.2468,3.3378,3.4004,3.408,3.4307,3.4914,3.4971,3.4971,3.4971,3.5546,3.6357,3.7438,3.9983,4.1798,4.2549,4.5853,4.7758,4.7758,5.0199,5.2029,5.3186,5.4944,5.5922,5.6153,5.6153,5.5629,5.4676,5.5808,5.6727,5.7368,5.7784,5.8674,5.9763,5.8935,5.8577,5.8666,5.9249,5.9127,5.8666,5.928,5.9521,5.9291,5.7773,5.7564,5.7928,5.806,5.9147,6.0479,6.0762,6.1635,6.2849,6.4623,6.4769,6.474,6.6136,6.6165,6.503,6.1949,5.8958,5.5806,5.232,4.9164,4.6969,4.6969,4.7528,4.817,4.8678,5.0886,5.3318,5.55,5.5587,5.5833,5.6993,5.7508,5.7766,5.7766,5.8126,5.8378,5.8378,5.8378,5.872,5.9495,5.9535,5.9885,6.061,6.0648,6.0648,6.0648,6.0648,6.0648,6.0648,6.0648,6.0648,6.0681,6.1175,6.1405,2.6652,2.9328,3.169,3.3574,3.4725,3.5369,3.5369,3.4952,3.4682,3.4914,3.4099,3.3321,3.3321,3.3321,3.3321,3.3321,3.4251,3.4971,3.4971,3.4971,3.4971,3.4971,3.4971,3.4971,3.4971,3.4971,3.5447,3.6585,3.8552,4.0058,4.0823,4.3789,4.5573,4.5788,4.7818,4.9554,5.0924,5.304,5.4445,5.5117,5.5117,5.4787,5.4149,5.4987,5.5398,5.5415,5.585,5.6352,5.6751,5.5889,5.5509,5.5571,5.616,5.6037,5.5602,5.616,5.5664,5.4812,5.5321,5.5509,5.5602,5.6191,5.714,5.8297,5.9644,6.0815,6.2125,6.3953,6.4449,6.4565,6.5001,6.5118,6.4158,6.0262,5.7413,5.4531,5.0576,4.7697,4.5864,4.5864,4.6438,4.6918,4.6918,4.8253,5.0143,5.2392,5.278,5.3255,5.4496,5.5768,5.6574,5.6574,5.6898,5.7139,5.7139,5.7139,5.7487,5.8252,5.8326,5.8658,5.9455,5.9865,6.0062,6.0062,6.0457,6.0648,6.0648,6.0648,6.0648,6.0648,6.0648,6.0648,2.4416,2.6867,2.89,2.9708,3.1834,3.3745,3.3707,3.3726,3.3992,3.4795,3.4952,3.4971,3.4971,3.4971,3.4971,3.4971,3.4971,3.4971,3.4971,3.4971,3.4971,3.4971,3.4971,3.4971,3.4971,3.4971,3.4971,3.4971,3.7492,3.8596,3.7554,4.1037,4.3361,4.3997,4.6017,4.7888,4.9565,5.1809,5.2942,5.3015,5.3015,5.304,5.304,5.1999,5.151,5.151,5.151,5.2365,5.3754,5.3754,5.3754,5.3947,5.5571,5.5227,5.3979,5.5602,5.4209,5.1719,5.323,5.3754,5.4043,5.5696,5.6253,5.6622,5.8248,5.8779,5.9384,6.2184,6.2966,6.3285,6.4622,6.4913,6.3373,5.7032,5.552,5.3775,4.726,4.5864,4.5864,4.5864,4.5864,4.5864,4.5864,4.5864,4.628,4.7566,4.9835,5.0987,4.984,5.2961,5.5298,5.5351,5.6372,5.7052,5.7052,5.7052,5.7052,5.7096,5.7096,5.7117,5.7139,5.8231,5.8844,5.8844,5.9964,6.0553,6.0553,6.0572,6.0591,6.0591,6.0629,6.0648,2.5667,2.6424,2.7278,2.8721,3.0553,3.1818,3.1151,3.1522,3.2408,3.3859,3.4606,3.4971,3.4971,3.4971,3.4971,3.4971,3.4971,3.4971,3.4971,3.4971,3.4971,3.4971,3.4971,3.4971,3.4971,3.4971,3.4971,3.4971,3.6836,3.7811,3.7534,3.9669,4.0963,4.116,4.2924,4.4434,4.5677,4.8258,5.0345,5.195,5.195,5.2307,5.304,5.1999,5.151,5.151,5.151,5.1752,5.2159,5.2159,5.2159,5.2192,5.2668,5.2562,5.2225,5.2668,5.2266,5.1552,5.1993,5.2159,5.2233,5.2701,5.3593,5.4622,5.507,5.6099,5.7252,5.8034,5.8265,5.8592,6.0206,6.0616,5.9514,5.5204,5.4203,5.2665,4.7078,4.5864,4.5864,4.5864,4.5864,4.5864,4.5864,4.5864,4.601,4.6359,4.7804,4.8718,4.8395,5.0905,5.3103,5.4043,5.4438,5.4623,5.4623,5.4623,5.4977,5.5828,5.5874,5.626,5.7117,5.7465,5.7637,5.7637,5.7936,5.8105,5.8105,5.8978,5.9363,5.9415,6.0269,6.0648,2.2961,2.3349,2.4275,2.4948,2.6639,2.8102,2.7943,2.8311,2.9175,3.0809,3.1815,3.2385,3.2385,3.3226,3.3947,3.3947,3.4516,3.4971,3.4971,3.4971,3.4971,3.4971,3.4971,3.4971,3.4971,3.4971,3.4971,3.4971,3.592,3.6455,3.6455,3.7385,3.8249,3.8958,4.0615,4.2139,4.3466,4.6179,4.8198,4.9506,5.0353,5.1086,5.1696,5.1583,5.151,5.151,5.151,5.151,5.151,5.151,5.151,5.151,5.151,5.151,5.151,5.151,5.151,5.151,5.151,5.151,5.151,5.151,5.2126,5.2995,5.3657,5.4527,5.5446,5.6191,5.6376,5.6622,5.7562,5.7148,5.5697,5.2609,5.1171,4.9354,4.5211,4.4337,4.4337,4.4337,4.4763,4.5114,4.5114,4.5548,4.5696,4.5229,4.5801,4.6665,4.7674,4.9135,5.0576,5.1879,5.249,5.3067,5.3591,5.365,5.3938,5.4629,5.4676,5.4977,5.5638,5.6139,5.6409,5.6409,5.6898,5.7139,5.7139,5.783,5.8147,5.8168,5.8864,5.8598,1.8038,1.887,2.0729,2.0046,2.1582,2.3516,0.0,2.4568,2.5119,2.6816,2.784,2.852,2.8596,3.0676,3.2323,3.2323,3.3833,3.4971,3.4971,3.4971,3.4971,3.4971,3.4971,3.4971,3.4971,3.4971,3.4971,3.4971,3.4971,3.4971,3.4971,3.4971,3.5658,3.718,3.8863,4.0491,4.201,4.4608,4.6065,4.6417,4.8262,4.9306,4.9613,5.0769,5.1315,5.1315,5.1437,5.151,5.151,5.151,5.151,5.151,5.151,5.151,5.151,5.151,5.151,5.151,5.151,5.151,5.151,5.151,5.151,5.1752,5.3165,5.3593,5.3915,5.5384,5.582,5.5882,5.6037,5.4428,5.2243,4.9906,4.7699,4.5349,4.2758,4.2175,4.2175,4.2175,4.3094,4.3915,4.3915,4.477,4.5114,4.407,4.4026,4.491,4.7122,4.7652,4.8263,4.9419,5.0721,5.1967,5.3126,5.3213,5.3271,5.3417,5.33,5.3213,5.3213,5.4207,5.4768,5.4768,5.5801,5.6302,5.6324,5.6455,5.6521,5.6521,5.6651,5.5274,0.0,0.0,0.0,0.0,0.0,0.0,0.0,2.149,2.2628,2.5043,2.6158,2.6911,2.7575,2.9784,3.1533,3.1533,3.3467,3.4971,3.4971,3.4971,3.4971,3.4971,3.4971,3.4971,3.4971,3.4971,3.4971,3.4971,3.4971,3.4971,3.4971,3.4971,3.5136,3.548,3.7115,3.8154,3.8483,4.0355,4.2447,4.4636,4.5011,4.6363,4.8556,4.9613,5.0109,5.0158,5.1119,5.151,5.151,5.151,5.151,5.151,5.151,5.151,5.151,5.151,5.151,5.151,5.151,5.151,5.151,5.151,5.151,5.1552,5.1861,5.196,5.2026,5.2365,5.2464,5.2734,5.4011,5.2779,5.0909,4.966,4.7699,4.5349,4.2758,4.2175,4.2175,4.2175,4.2385,4.2545,4.2545,4.275,4.2818,4.2591,4.3436,4.4314,4.4788,4.6614,4.7915,4.8176,4.9361,5.0256,5.0489,5.0518,5.0954,5.2025,5.1099,5.0518,5.0518,5.0748,5.0834,5.0834,5.1107,5.1191,5.1191,5.2176,5.2593,5.2645,5.3555,5.2183,0.0,0.0,0.0,0.0,0.0,0.0,0.0,0.0,0.0,0.0,0.0,2.3254,2.363,0.0,2.9508,2.9973,3.2491,3.4549,3.4914,3.4971,3.4971,3.4971,3.4971,3.4971,3.4971,3.4971,3.4971,3.4971,3.4971,3.4971,3.4971,3.4971,3.4971,3.4971,3.665,3.7514,3.7514,3.9179,4.0733,4.2119,4.3462,4.4831,4.6212,4.8135,4.9271,4.9784,5.0378,5.0973,5.151,5.151,5.151,5.151,5.151,5.151,5.151,5.151,5.151,5.151,5.151,5.151,5.151,5.151,5.151,5.151,5.151,5.151,5.151,5.151,5.151,5.1686,5.2496,5.0278,4.7701,4.7253,4.4659,4.193,4.0625,4.0346,4.0346,4.0346,4.0848,4.1297,4.1297,4.0777,4.0562,4.1203,4.1862,4.2718,4.3959,4.5234,4.6204,4.6796,4.8024,4.8786,4.8786,4.939,5.0052,5.0692,5.014,4.9768,4.9768,4.9768,4.9768,4.9768,4.9768,4.9768,4.9768,5.0335,5.0312,4.963,4.8312,4.6741,0.0,0.0,0.0,0.0,0.0,0.0,0.0,0.0,0.0,0.0,0.0,0.0,0.0,0.0,0.0,2.7893,3.1009,3.3669,3.4625,3.4744,3.4833,3.4952,3.4971,3.4971,3.4971,3.4971,3.4971,3.4971,3.4971,3.4971,3.4971,3.4971,3.4971,3.4971,3.6292,3.7018,3.7018,3.8408,3.9242,3.9587,4.1788,0.0,4.3922,4.6337,4.8053,4.9174,4.9369,5.0134,5.1192,5.1192,5.129,5.1486,5.1266,5.1315,5.151,5.151,5.151,5.151,5.151,5.151,5.151,5.151,5.151,5.151,5.151,5.151,0.0,5.151,5.151,5.151,5.151,4.8222,4.4918,4.4918,4.163,3.8485,3.8485,3.8485,3.8485,3.8485,3.9353,4.0061,4.0061,3.9205,3.8859,3.9916,4.0279,4.1137,4.3149,4.3598,4.4196,4.5421,4.648,4.7209,4.7428,4.8612,4.9274,4.9012,4.9245,4.9274,4.9012,4.8983,4.8918,4.8686,4.8686,4.8569,4.8307,4.8307,4.7762,4.6636,4.3596,4.2025,0.0,0.0,0.0,0.0,0.0,0.0,0.0,0.0,0.0,0.0,0.0,0.0,0.0,0.0,0.0,0.0,2.8908,3.2142,3.3726,3.3954,3.4207,3.4928,3.4971,3.4971,3.4971,3.4971,3.4971,3.4971,3.4971,3.4971,3.4971,3.4971,0.0,0.0,0.0,3.5301,3.5301,3.5447,3.6292,3.7802,3.8129,3.9832,4.2795,4.4023,4.5455,4.7051,4.7971,4.8971,4.9963,4.9963,5.0573,5.1412,5.0378,5.0598,5.151,5.151,5.151,5.151,5.151,0.0,0.0,5.151,5.151,5.151,5.151,5.151,5.151,5.151,5.151,5.151,5.151,4.8222,4.4918,4.4918,4.163,3.8485,3.8485,3.8485,3.8485,3.8485,3.861,3.871,3.871,3.8585,3.8535,3.8685,3.9696,4.0519,4.083,4.1742,4.2914,4.418,4.4453,0.0,4.6013,4.7275,4.7537,4.6388,4.7413,4.753,4.6359,4.633,4.5806,4.48,4.4771,4.4169,4.3043,4.3043,4.2956,4.2811,4.2374,4.1541,0.0,0.0,0.0,0.0,0.0,0.0,0.0,0.0,0.0,0.0,0.0,0.0,0.0,0.0,0.0,0.0,2.6658,2.9461,3.0705,3.1742,3.2864,3.415,3.472,3.4971,3.4971,3.4971,3.4971,3.4971,3.4971,3.4971,3.4971,3.4971,3.4971,3.4971,3.4971,3.4971,3.4971,3.4971,3.5348,3.6051,3.7353,3.8705,4.018,4.3216,4.5653,4.7581,4.802,4.8734,4.9523,4.9523,4.9914,5.05,0.0,0.0,0.0,0.0,5.151,5.151,5.151,5.151,5.151,5.151,5.151,5.151,5.151,5.151,5.151,5.151,5.151,5.151,5.151,4.8222,4.4918,4.4918,4.163,3.8485,3.8485,3.8485,3.8485,3.8485,3.8485,0.0,3.8485,3.8485,3.8485,3.8485,3.8958,3.9599,4.0352,4.0876,4.1652,4.2868,4.3687,4.4312,4.4813,4.6004,0.0,0.0,0.0,4.6425,4.5894,4.5864,0.0,0.0,0.0,4.2133,4.2171,4.1568,0.0,0.0,3.6994,3.6599,0.0,0.0,0.0,0.0,0.0,0.0,0.0,0.0,0.0,0.0,0.0,0.0,0.0,0.0,0.0,0.0,2.407,2.6285,2.6962,2.9099,3.1057,3.2282,3.3334,3.4055,3.427,3.4288,3.4478,3.4933,3.4971,3.4971,3.4971,3.4971,3.4971,3.4971,3.4971,3.4971,3.4971,3.4971,3.4971,3.5004,3.663,3.7846,3.8895,4.2086,4.4429,4.6023,4.6918,4.7978,4.9059,4.9059,4.9181,4.9418,5.028,5.0598,5.0598,5.0598,5.0598,5.0671,5.129,5.151,5.151,5.151,5.151,5.151,5.151,5.151,5.151,5.151,5.1217,5.0728,4.9922,4.7099,4.4333,4.3752,4.0996,3.8485,3.8485,3.8485,3.8485,3.8485,3.8021,3.7631,3.7631,3.7631,3.7631,3.7631,3.7899,3.8415,3.934,3.9714,4.0349,4.1602,4.2554,4.3374,4.407,4.4899,4.5527,4.5843,4.5864,4.5864,4.5864,4.5545,4.4983,4.4131,4.1393,4.0181,0.0,0.0,0.0,0.0,0.0,0.0,0.0,0.0,0.0,0.0,0.0,0.0,0.0,0.0,0.0,0.0,0.0,0.0,0.0,0.0,0.0,0.0,0.0,0.0,2.2751,2.6265,2.8862,2.8919,3.0392,3.1693,3.2456,3.2551,3.3214,3.489,3.4971,3.4971,3.4971,3.4971,3.4971,3.4971,3.4971,3.4971,3.4971,3.4971,3.4971,3.4971,3.507,3.6824,3.9993,4.0149,4.0255,4.0486,4.3641,4.6234,4.8264,4.8264,4.8264,4.8264,4.8313,4.8313,4.8313,4.8313,4.8313,4.8605,5.0777,5.151,5.151,5.151,5.151,5.151,5.151,5.151,5.151,5.151,5.0508,4.8773,4.5874,4.4264,4.2902,4.0856,3.9413,3.8485,3.8485,3.8485,3.8485,3.8485,3.685,3.5483,3.5483,3.5483,3.5483,3.5483,3.6338,0.0,3.7021,3.7924,3.9057,4.0351,4.0519,4.1514,4.3937,4.4158,4.4661,4.5801,4.5864,4.5864,4.5864,4.48,4.416,4.4131,4.0339,3.7779,3.6512,0.0,0.0,0.0,0.0,0.0,0.0,0.0,0.0,0.0,0.0,0.0,0.0,0.0,0.0,0.0,0.0,0.0,0.0,0.0,0.0,0.0,0.0,0.0,0.0,2.4021,2.6316,2.6316,2.8748,3.0069,2.9197,2.9121,2.9349,2.9917,3.1008,3.191,3.2491,3.3612,3.4454,3.4952,3.4971,3.4971,3.4971,3.4971,3.4971,3.4971,3.4971,3.5579,3.6695,3.6695,3.6695,3.676,3.7846,4.1249,4.6015,4.6015,4.6015,4.6015,4.6015,4.6015,4.6015,4.6015,4.6015,4.6136,4.6874,4.7118,4.7118,4.7118,4.7118,4.7118,4.7118,4.7118,4.7758,5.0679,5.1144,4.9865,4.5947,4.3208,4.1311,4.0465,3.8827,3.746,3.746,3.746,3.7265,3.6558,3.5239,3.4456,3.5247,3.5386,3.5386,3.5386,3.5655,3.6167,3.6851,3.7241,3.79,3.9032,3.9891,4.0759,4.1585,4.3172,4.429,4.4683,4.4714,4.4692,4.4692,4.35,4.2423,4.1541,3.9397,3.6723,3.3522,0.0,0.0,0.0,0.0,0.0,0.0,0.0,0.0,0.0,0.0,0.0,0.0,0.0,0.0,0.0,0.0,0.0,0.0,0.0,0.0,0.0,0.0,0.0,0.0,0.0,0.0,2.4287,2.6563,0.0,2.583,2.5678,2.5919,2.6532,2.784,2.8873,2.9451,3.137,3.2669,3.3201,3.4093,3.4511,3.4383,3.4763,3.4971,3.4971,3.4971,3.4971,3.4971,3.4971,3.6292,3.8546,3.8546,3.9575,4.1362,4.1362,4.1362,4.1607,4.3986,4.4918,4.4918,4.4918,4.4918,4.4918,4.4918,4.3344,4.1759,4.4134,4.412,4.3681,4.6419,4.402,4.0896,4.3785,4.6788,4.8156,4.3752,4.1238,3.9327,3.7142,3.617,3.5648,3.5215,3.5118,3.4624,3.2876,3.2521,3.2654,3.3077,3.3431,3.3775,3.4165,3.4556,3.5068,3.5728,3.6461,3.7192,3.7875,3.9031,3.9915,4.0375,4.1888,4.2991,4.3392,4.3074,4.2868,4.2868,4.162,4.0191,3.8587,3.7302,3.472,0.0,0.0,0.0,0.0,0.0,0.0,0.0,0.0,0.0,0.0,0.0,0.0,0.0,0.0,0.0,0.0,0.0,0.0,0.0,0.0,0.0,0.0,0.0,0.0,0.0,0.0,0.0,2.2444,2.3697,0.0,0.0,0.0,0.0,2.4568,2.5456,2.595,2.6006,2.8296,2.9661,2.9737,3.2214,3.341,3.3081,3.427,3.4895,3.4971,3.4971,3.4971,3.4971,3.4971,3.843,4.44,4.44,4.1025,3.5447,3.5136,3.4927,3.5458,4.1528,4.3912,4.3914,4.3718,4.3777,4.3918,4.4173,4.0118,3.5888,4.2206,4.2037,4.0682,4.7994,4.1562,0.0,0.0,3.7481,4.3026,3.9165,3.8168,3.6825,3.1585,3.2029,3.3351,3.2129,3.1935,3.1072,2.7936,2.8958,3.007,2.9199,0.0,3.0798,3.1851,3.2945,3.3697,3.3819,3.5582,3.6875,3.6948,3.7875,3.9008,4.023,4.0373,4.082,4.1933,4.106,4.0525,4.0525,3.9227,3.7549,3.5495,3.4096,0.0,0.0,0.0,0.0,0.0,0.0,0.0,0.0,0.0,0.0,0.0,0.0,0.0,0.0,0.0,0.0,0.0,0.0,0.0,0.0,0.0,0.0,0.0,0.0,0.0,0.0,1.6819,1.8374,1.7068,1.8909,1.9913,0.0,0.0,0.0,0.0,0.0,0.0,2.2435,2.4271,2.5906,2.7164,2.9071,3.0278,3.078,3.2305,3.3757,3.4971,3.4971,3.4971,3.4971,3.4971,3.592,3.7493,3.7493,3.9377,4.1972,3.7031,3.4116,3.2631,3.0844,3.0322,3.0247,2.7433,2.7997,3.0667,3.4152,3.4246,3.3086,3.4807,3.2626,2.9721,3.1671,0.0,0.0,0.0,0.0,3.0705,3.3103,3.3707,3.3623,3.3261,3.3637,3.3666,3.2196,3.2653,3.1898,2.7025,2.7157,2.8006,2.7881,2.8686,0.0,3.0749,3.1184,3.1965,3.3623,3.4971,3.6094,3.6851,3.7875,3.861,3.8958,3.9155,3.9399,3.9696,3.94,3.9202,3.9202,3.7172,3.5438,3.4155,0.0,0.0,0.0,0.0,0.0,0.0,0.0,0.0,0.0,0.0,0.0,0.0,0.0,0.0,0.0,0.0,0.0,0.0,0.0,0.0,0.0,0.0,0.0,0.0,0.0,0.0,0.0,1.5528,1.6914,1.5703,1.6784,1.7011,0.0,0.0,0.0,0.0,0.0,0.0,0.0,0.0,0.0,2.291,2.519,2.6487,2.6696,2.9794,3.2582,3.4971,3.4971,3.4971,3.4971,3.4971,3.4971,3.4971,3.4971,3.6271,3.7822,3.1181,2.7776,2.6551,0.0,0.0,0.0,0.0,2.2275,2.57,2.8337,2.8201,2.677,2.677,0.0,0.0,0.0,0.0,0.0,0.0,0.0,2.3814,2.7937,3.054,3.2013,3.1804,3.1746,3.1225,2.939,3.0433,3.0007,2.4308,2.5007,2.6197,2.5046,2.6335,0.0,0.0,0.0,3.0964,3.221,3.4117,3.563,3.6192,3.7606,3.8314,3.785,3.7938,3.7812,3.7381,3.7291,3.6779,3.5824,3.452,3.2649,0.0,0.0,0.0,0.0,0.0,0.0,0.0,0.0,0.0,0.0,0.0,0.0,0.0,0.0,0.0,0.0,0.0,0.0,0.0,0.0,0.0,0.0,0.0,0.0,0.0,0.0,0.0,0.0,0.0,1.7052,1.5805,0.0,0.0,0.0,0.0,0.0,0.0,0.0,0.0,0.0,0.0,0.0,0.0,0.0,2.2286,2.1568,2.5817,2.9661,3.2999,3.2999,3.3454,3.4307,3.4307,3.4307,3.4251,3.3378,0.0,2.7518,2.1735,0.0,0.0,0.0,0.0,0.0,0.0,0.0,0.0,0.0,0.0,0.0,0.0,0.0,0.0,0.0,0.0,0.0,0.0,0.0,0.0,0.0,0.0,3.0266,2.9276,2.9036,2.8354,2.5858,2.7007,2.6771,2.0849,2.2599,2.433,0.0,0.0,0.0,0.0,0.0,0.0,3.048,3.3238,3.5239,3.5361,3.7143,3.7923,3.7021,3.6826,3.6289,3.5239,3.504,3.4014,3.1972,3.1447,0.0,0.0,0.0,0.0,0.0,0.0,0.0,0.0,0.0,0.0,0.0,0.0,0.0,0.0,0.0,0.0,0.0,0.0,0.0,0.0,0.0,0.0,0.0,0.0,0.0,0.0,0.0,0.0,0.0,0.0,0.0,0.0,0.0,0.0,0.0,0.0,0.0,0.0,0.0,0.0,0.0,0.0,0.0,0.0,0.0,0.0,0.0,0.0,0.0,0.0,2.263,2.5494,3.0799,3.0799,3.0799,3.0524,2.5,2.0691,1.749,1.6317,0.0,0.0,0.0,0.0,0.0,0.0,0.0,0.0,0.0,0.0,0.0,0.0,0.0,0.0,0.0,0.0,0.0,0.0,0.0,0.0,0.0,0.0,2.368,2.9955,3.1482,3.0391,2.643,0.0,0.0,0.0,0.0,0.0,0.0,0.0,0.0,0.0,0.0,0.0,3.0305,3.26,3.4432,3.5288,3.6484,3.7119,3.6948,3.6143,3.5215,3.4163,3.3188,3.2081,0.0,0.0,0.0,0.0,0.0,0.0,0.0,0.0,0.0,0.0,0.0,0.0,0.0,0.0,0.0,0.0,0.0,0.0,0.0,0.0,0.0,0.0,0.0,0.0,0.0,0.0,0.0,0.0,0.0,0.0,0.0,0.0,0.0,0.0,0.0,0.0,0.0,0.0,0.0,0.0,0.0,0.0,0.0,0.0,0.0,0.0,0.0,0.0,0.0,0.0,0.0,0.0,0.0,0.0,0.0,0.0,0.0,0.0,1.9552,1.6465,0.0,0.0,0.0,0.0,0.0,0.0,0.0,0.0,0.0,0.0,0.0,0.0,0.0,0.0,0.0,0.0,0.0,0.0,0.0,0.0,0.0,0.0,0.0,0.0,0.0,0.0,0.0,0.0,0.0,0.0,0.0,0.0,0.0,0.0,0.0,0.0,0.0,0.0,0.0,0.0,2.9518,3.2112,3.4236,3.5264,3.5826,3.6095,3.6095,3.5166,3.3848,3.221,3.2073,0.0,0.0,0.0,0.0,0.0,0.0,0.0,0.0,0.0,0.0,0.0,0.0,0.0,0.0,0.0,0.0,0.0,0.0,0.0,0.0,0.0,0.0,0.0,0.0,0.0,0.0,0.0,0.0,0.0,0.0,0.0,0.0,0.0,0.0,0.0,0.0,0.0,0.0,0.0,0.0,0.0,0.0,0.0,0.0,0.0,0.0,0.0,0.0,0.0,0.0,0.0,0.0,0.0,0.0,0.0,0.0,0.0,0.0,0.0,1.5063,1.39,0.0,0.0,0.0,0.0,0.0,0.0,0.0,0.0,0.0,0.0,0.0,0.0,0.0,0.0,0.0,0.0,0.0,0.0,0.0,0.0,0.0,0.0,0.0,0.0,0.0,0.0,0.0,0.0,0.0,0.0,0.0,0.0,0.0,0.0,0.0,0.0,0.0,0.0,0.0,0.0,2.8779,3.14,3.3699,3.5239,3.519,3.5142,3.5361,3.4432,3.2869,3.0671,3.0872,0.0,0.0,0.0,0.0,0.0,0.0,0.0,0.0,0.0,0.0,0.0,0.0,0.0,0.0,0.0,0.0,0.0,0.0,0.0,0.0,0.0,0.0,0.0,0.0,0.0,0.0,0.0,0.0,0.0,0.0,0.0,0.0,0.0,0.0,0.0,0.0,0.0,0.0,0.0,0.0,0.0,0.0,0.0,0.0,0.0,0.0,0.0,0.0,0.0,0.0,0.0,0.0,0.0,0.0,0.0,0.0,0.0,0.0,0.0,0.0,0.0,0.0,0.0,0.0,0.0,0.0,0.0,0.0,0.0,0.0,0.0,0.0,0.0,0.0,0.0,0.0,0.0,0.0,0.0,0.0,0.0,0.0,0.0,0.0,0.0,0.0,0.0,0.0,0.0,0.0,0.0,0.0,0.0,0.0,0.0,0.0,0.0,0.0,0.0,0.0,0.0,2.8584,3.0056,3.1993,3.5046,3.4507,3.4359,3.5312,3.4432,3.2869,3.0671,0.0,0.0,0.0,0.0,0.0,0.0,0.0,0.0,0.0,0.0,0.0,0.0,0.0,0.0,0.0,0.0,0.0,0.0,0.0,0.0,0.0,0.0,0.0,0.0,0.0,0.0,0.0,0.0,0.0,0.0,0.0,0.0,0.0,0.0,0.0,0.0,0.0,0.0,0.0,0.0,0.0,0.0,0.0,0.0,0.0,0.0,0.0,0.0,0.0,0.0,0.0,0.0,0.0,0.0,0.0,0.0,0.0,0.0,0.0,0.0,0.0,0.0,0.0,0.0,0.0,0.0,0.0,0.0,0.0,0.0,0.0,0.0,0.0,0.0,0.0,0.0,0.0,0.0,0.0,0.0,0.0,0.0,0.0,0.0,0.0,0.0,0.0,0.0,0.0,0.0,0.0,0.0,0.0,0.0,0.0,0.0,0.0,0.0,0.0,0.0,0.0,0.0,2.7672,2.9494,3.153,3.4141,3.3433,3.3214,3.4359,3.2844,3.1184,2.9689,0.0,0.0,0.0,0.0,0.0,0.0,0.0,0.0,0.0,0.0,0.0,0.0,0.0,0.0,0.0,0.0,0.0,0.0,0.0,0.0,0.0,0.0,0.0,0.0,0.0,0.0,0.0,0.0,0.0,0.0,0.0,0.0,0.0,0.0,0.0,0.0,0.0,0.0,0.0,0.0,0.0,0.0,0.0,0.0,0.0,0.0,0.0,0.0,0.0,0.0,0.0,0.0,0.0,0.0,0.0,0.0,0.0,0.0,0.0,0.0,0.0,0.0,0.0,0.0,0.0,0.0,0.0,0.0,0.0,0.0,0.0,0.0,0.0,0.0,0.0,0.0,0.0,0.0,0.0,0.0,0.0,0.0,0.0,0.0,0.0,0.0,0.0,0.0,0.0,0.0,0.0,0.0,0.0,0.0,0.0,0.0,0.0,0.0,0.0,0.0,0.0,0.0,2.7103,2.8975,3.1013,3.3553,3.2774,3.2534,3.3745,3.1794,2.9939,2.8602,0.0,0.0,0.0,0.0,0.0,0.0,0.0,0.0,0.0,0.0,0.0,0.0,0.0,0.0,0.0,0.0,0.0,0.0,0.0,0.0,0.0,0.0,0.0,0.0,0.0,0.0,0.0,0.0,0.0,0.0,0.0,0.0,0.0,0.0,0.0,0.0,0.0,0.0,0.0,0.0,0.0,0.0,0.0,0.0,0.0,0.0,0.0,0.0,0.0,0.0,0.0,0.0,0.0,0.0,0.0,0.0,0.0,0.0,0.0,0.0,0.0,0.0,0.0,0.0,0.0,0.0,0.0,0.0,0.0,0.0,0.0,0.0,0.0,0.0,0.0,0.0,0.0,0.0,0.0,0.0,0.0,0.0,0.0,0.0,0.0,0.0,0.0,0.0,0.0,0.0,0.0,0.0,0.0,0.0,0.0,0.0,0.0,0.0,0.0,0.0,0.0,0.0,2.7078,2.8333,3.0246,3.3455,3.2774,3.2534,3.3745,3.1794,2.964,0.0,0.0,0.0,0.0,0.0,0.0,0.0,0.0,0.0,0.0,0.0,0.0,0.0,0.0,0.0,0.0,0.0,0.0,0.0,0.0,0.0,0.0,0.0,0.0,0.0,0.0,0.0,0.0,0.0,0.0,0.0,0.0,0.0,0.0,0.0,0.0,0.0,0.0,0.0,0.0,0.0,0.0,0.0,0.0,0.0,0.0,0.0,0.0,0.0,0.0,0.0,0.0,0.0,0.0,0.0,0.0,0.0,0.0,0.0,0.0,0.0,0.0,0.0,0.0,0.0,0.0,0.0,0.0,0.0,0.0,0.0,0.0,0.0,0.0,0.0,0.0,0.0,0.0,0.0,0.0,0.0,0.0,0.0,0.0,0.0,0.0,0.0,0.0,0.0,0.0,0.0,0.0,0.0,0.0,0.0,0.0,0.0,0.0,0.0,0.0,0.0,0.0,0.0,2.5381,2.7554,2.989,3.2384,3.2269,3.2241,3.2582,3.0671,2.8877,2.7494,0.0,0.0,0.0,0.0,0.0,0.0,0.0,0.0,0.0,0.0,0.0,0.0,0.0,0.0,0.0,0.0,0.0,0.0,0.0,0.0,0.0,0.0,0.0,0.0,0.0,0.0,0.0,0.0,0.0,0.0,0.0,0.0,0.0,0.0,0.0,0.0,0.0,0.0,0.0,0.0,0.0,0.0,0.0,0.0,0.0,0.0,0.0,0.0,0.0,0.0,0.0,0.0,0.0,0.0,0.0,0.0,0.0,0.0,0.0,0.0,0.0,0.0,0.0,0.0,0.0,0.0,0.0,0.0,0.0,0.0,0.0,0.0,0.0,0.0,0.0,0.0,0.0,0.0,0.0,0.0,0.0,0.0,0.0,0.0,0.0,0.0,0.0,0.0,0.0,0.0,0.0,0.0,0.0,0.0,0.0,0.0,0.0,0.0,0.0,0.0,0.0,0.0,0.0,2.7192,2.9762,3.1875,3.2074,3.2074,3.2074,3.0158,2.8321,2.6855,0.0,0.0,0.0,0.0,0.0,0.0,0.0,0.0,0.0,0.0,0.0,0.0,0.0,0.0,0.0,0.0,0.0,0.0,0.0,0.0,0.0,0.0,0.0,0.0,0.0,0.0,0.0,0.0,0.0,0.0,0.0,0.0,0.0,0.0,0.0,0.0,0.0,0.0,0.0,0.0,0.0,0.0,0.0,0.0,0.0,0.0,0.0,0.0,0.0,0.0,0.0,0.0,0.0,0.0,0.0,0.0,0.0,0.0,0.0,0.0,0.0,0.0,0.0,0.0,0.0,0.0,0.0,0.0,0.0,0.0,0.0,0.0,0.0,0.0,0.0,0.0,0.0,0.0,0.0,0.0,0.0,0.0,0.0,0.0,0.0,0.0,0.0,0.0,0.0,0.0,0.0,0.0,0.0,0.0,0.0,0.0,0.0,0.0,0.0,0.0,0.0,0.0,0.0,2.7168,2.9738,3.1753,3.2046,3.2074,3.2074,3.0158,2.8009,2.5801,2.3681,0.0,0.0,0.0,0.0,0.0,0.0,0.0,0.0,0.0,0.0,0.0,0.0,0.0,0.0,0.0,0.0,0.0,0.0,0.0,0.0,0.0,0.0,0.0,0.0,0.0,0.0,0.0,0.0,0.0,0.0,0.0,0.0,0.0,0.0,0.0,0.0,0.0,0.0,0.0,0.0,0.0,0.0,0.0,0.0,0.0,0.0,0.0,0.0,0.0,0.0,0.0,0.0,0.0,0.0,0.0,0.0,0.0,0.0,0.0,0.0,0.0,0.0,0.0,0.0,0.0,0.0,0.0,0.0,0.0,0.0,0.0,0.0,0.0,0.0,0.0,0.0,0.0,0.0,0.0,0.0,0.0,0.0,0.0,0.0,0.0,0.0,0.0,0.0,0.0,0.0,0.0,0.0,0.0,0.0,0.0,0.0,0.0,0.0,0.0,0.0,0.0,0.0,2.7065,2.9445,3.0749,3.1607,3.2074,3.2074,3.0158,2.8009,2.5801,2.3681,0.0,0.0,0.0,0.0,0.0,0.0,0.0,0.0,0.0,0.0,0.0,0.0,0.0,0.0,0.0,0.0,0.0,0.0,0.0,0.0,0.0,0.0,0.0,0.0,0.0,0.0,0.0,0.0,0.0,0.0,0.0,0.0,0.0,0.0,0.0,0.0,0.0,0.0,0.0,0.0,0.0,0.0,0.0,0.0,0.0,0.0,0.0,0.0,0.0,0.0,0.0,0.0,0.0,0.0,0.0,0.0,0.0,0.0,0.0,0.0,0.0,0.0,0.0,0.0,0.0,0.0,0.0,0.0,0.0,0.0,0.0,0.0,0.0,0.0,0.0,0.0,0.0,0.0,0.0,0.0,0.0,0.0,0.0,0.0,0.0,0.0,0.0,0.0,0.0,0.0,0.0,0.0,0.0,0.0,0.0,0.0,0.0,0.0,0.0,0.0,0.0,0.0,2.5438,2.7787,3.0246,3.1436,3.1879,3.1387,2.9909,2.7814,2.5128,2.2949,0.0,0.0,0.0,0.0,0.0,0.0,0.0,0.0,0.0,0.0,0.0,0.0,0.0,0.0,0.0,0.0,0.0,0.0,0.0,0.0,0.0,0.0,0.0,0.0,0.0,0.0,0.0,0.0,0.0,0.0,0.0,0.0,0.0,0.0,0.0,0.0,0.0,0.0,0.0,0.0,0.0,0.0,0.0,0.0,0.0,0.0,0.0,0.0,0.0,0.0,0.0,0.0,0.0,0.0,0.0,0.0,0.0,0.0,0.0,0.0,0.0,0.0,0.0,0.0,0.0,0.0,0.0,0.0,0.0,0.0,0.0,0.0,0.0,0.0,0.0,0.0,0.0,0.0,0.0,0.0,0.0,0.0,0.0,0.0,0.0,0.0,0.0,0.0,0.0,0.0,0.0,0.0,0.0,0.0,0.0,0.0,0.0,0.0,0.0,0.0,0.0,0.0,0.0,2.5507,2.9379,3.1042,3.1485,3.0578,2.9567,2.7563,2.4315,0.0,0.0,0.0,0.0,0.0,0.0,0.0,0.0,0.0,0.0,0.0,0.0,0.0,0.0,0.0,0.0,0.0,0.0,0.0,0.0,0.0,0.0,0.0,0.0,0.0,0.0,0.0,0.0,0.0,0.0,0.0,0.0,0.0,0.0,0.0,0.0,0.0,0.0,0.0,0.0,0.0,0.0,0.0,0.0,0.0,0.0,0.0,0.0,0.0,0.0,0.0,0.0,0.0,0.0,0.0,0.0,0.0,0.0,0.0,0.0,0.0,0.0,0.0,0.0,0.0,0.0,0.0,0.0,0.0,0.0,0.0,0.0,0.0,0.0,0.0,0.0,0.0,0.0,0.0,0.0,0.0,0.0,0.0,0.0,0.0,0.0,0.0,0.0,0.0,0.0,0.0,0.0,0.0,0.0,0.0,0.0,0.0,0.0,0.0,0.0,0.0,0.0,0.0,0.0,2.3736,2.6142,2.9022,3.0676,3.0549,2.9567,2.7563,2.4315,0.0,0.0,0.0,0.0,0.0,0.0,0.0,0.0,0.0,0.0,0.0,0.0,0.0,0.0]}]]]